<?xml version="1.0" encoding="UTF-8" standalone="no" ?>
<gpx xmlns="http://www.topografix.com/GPX/1/1" xmlns:xsi="http://www.w3.org/2001/XMLSchema-instance" xsi:schemaLocation="http://www.topografix.com/GPX/1/1 http://www.topografix.com/GPX/1/1/gpx.xsd" version="1.1" creator="VisuGPX - https://www.visugpx.com">
  <metadata>
    <name>De Carnac à Erdeven</name>
    <desc><![CDATA[Pour découvrir les abbayes bénédictines, les sites de Ste Barbe (oratoire, chapelle et lavoir), les dunes et les plages d\'Erdeven.]]></desc>
  </metadata>
  <trk>
    <name><![CDATA[Vélo Laure]]></name>
    <cmt><![CDATA[14 mars 2012 15:12:34]]></cmt>
    <trkseg>
      <trkpt lat="47.58743" lon="-3.08959">
        <ele>15.9</ele>
        <time>2012-03-14T14:12:34Z</time>
      </trkpt>
      <trkpt lat="47.5874" lon="-3.08957">
        <ele>15.8</ele>
        <time>2012-03-14T14:12:46Z</time>
      </trkpt>
      <trkpt lat="47.5874" lon="-3.08953">
        <ele>2</ele>
        <time>2012-03-14T14:12:52Z</time>
      </trkpt>
      <trkpt lat="47.58743" lon="-3.08944">
        <ele>6</ele>
        <time>2012-03-14T14:12:56Z</time>
      </trkpt>
      <trkpt lat="47.58742" lon="-3.08947">
        <ele>5</ele>
        <time>2012-03-14T14:13:11Z</time>
      </trkpt>
      <trkpt lat="47.58746" lon="-3.08939">
        <ele>1</ele>
        <time>2012-03-14T14:13:31Z</time>
      </trkpt>
      <trkpt lat="47.58749" lon="-3.08937">
        <ele>3</ele>
        <time>2012-03-14T14:14:04Z</time>
      </trkpt>
      <trkpt lat="47.58738" lon="-3.08937">
        <ele>5</ele>
        <time>2012-03-14T14:16:16Z</time>
      </trkpt>
      <trkpt lat="47.58731" lon="-3.08947">
        <ele>6</ele>
        <time>2012-03-14T14:16:21Z</time>
      </trkpt>
      <trkpt lat="47.5872" lon="-3.08947">
        <ele>4</ele>
        <time>2012-03-14T14:16:26Z</time>
      </trkpt>
      <trkpt lat="47.58715" lon="-3.08944">
        <ele>15.7</ele>
        <time>2012-03-14T14:16:32Z</time>
      </trkpt>
      <trkpt lat="47.58725" lon="-3.08943">
        <ele>4</ele>
        <time>2012-03-14T14:16:40Z</time>
      </trkpt>
      <trkpt lat="47.58733" lon="-3.08937">
        <ele>16.1</ele>
        <time>2012-03-14T14:16:43Z</time>
      </trkpt>
      <trkpt lat="47.58737" lon="-3.08934">
        <ele>8</ele>
        <time>2012-03-14T14:16:50Z</time>
      </trkpt>
      <trkpt lat="47.5874" lon="-3.08934">
        <ele>5</ele>
        <time>2012-03-14T14:17:40Z</time>
      </trkpt>
      <trkpt lat="47.58742" lon="-3.08936">
        <ele>16</ele>
        <time>2012-03-14T14:18:03Z</time>
      </trkpt>
      <trkpt lat="47.58744" lon="-3.08935">
        <ele>16</ele>
        <time>2012-03-14T14:18:14Z</time>
      </trkpt>
      <trkpt lat="47.58752" lon="-3.08931">
        <ele>2</ele>
        <time>2012-03-14T14:20:20Z</time>
      </trkpt>
      <trkpt lat="47.5875" lon="-3.08946">
        <ele>16</ele>
        <time>2012-03-14T14:24:27Z</time>
      </trkpt>
      <trkpt lat="47.5875" lon="-3.08945">
        <ele>16</ele>
        <time>2012-03-14T14:25:06Z</time>
      </trkpt>
      <trkpt lat="47.58742" lon="-3.0894">
        <ele>1</ele>
        <time>2012-03-14T14:25:12Z</time>
      </trkpt>
      <trkpt lat="47.58739" lon="-3.08945">
        <ele>16</ele>
        <time>2012-03-14T14:25:16Z</time>
      </trkpt>
      <trkpt lat="47.58731" lon="-3.08953">
        <ele>2</ele>
        <time>2012-03-14T14:25:20Z</time>
      </trkpt>
      <trkpt lat="47.58721" lon="-3.08948">
        <ele>1</ele>
        <time>2012-03-14T14:25:24Z</time>
      </trkpt>
      <trkpt lat="47.58711" lon="-3.08941">
        <ele>2</ele>
        <time>2012-03-14T14:25:28Z</time>
      </trkpt>
      <trkpt lat="47.587" lon="-3.08934">
        <ele>15.5</ele>
        <time>2012-03-14T14:25:32Z</time>
      </trkpt>
      <trkpt lat="47.58691" lon="-3.08929">
        <ele>2</ele>
        <time>2012-03-14T14:25:35Z</time>
      </trkpt>
      <trkpt lat="47.58674" lon="-3.08917">
        <ele>15.2</ele>
        <time>2012-03-14T14:25:41Z</time>
      </trkpt>
      <trkpt lat="47.5867" lon="-3.08911">
        <ele>3</ele>
        <time>2012-03-14T14:25:43Z</time>
      </trkpt>
      <trkpt lat="47.5867" lon="-3.08901">
        <ele>10</ele>
        <time>2012-03-14T14:25:46Z</time>
      </trkpt>
      <trkpt lat="47.58672" lon="-3.08893">
        <ele>9</ele>
        <time>2012-03-14T14:25:48Z</time>
      </trkpt>
      <trkpt lat="47.58673" lon="-3.08885">
        <ele>9</ele>
        <time>2012-03-14T14:25:50Z</time>
      </trkpt>
      <trkpt lat="47.5867" lon="-3.08878">
        <ele>7</ele>
        <time>2012-03-14T14:25:52Z</time>
      </trkpt>
      <trkpt lat="47.58661" lon="-3.0887">
        <ele>15.8</ele>
        <time>2012-03-14T14:25:56Z</time>
      </trkpt>
      <trkpt lat="47.58651" lon="-3.08865">
        <ele>15.4</ele>
        <time>2012-03-14T14:25:59Z</time>
      </trkpt>
      <trkpt lat="47.58627" lon="-3.08851">
        <ele>8</ele>
        <time>2012-03-14T14:26:05Z</time>
      </trkpt>
      <trkpt lat="47.58623" lon="-3.08835">
        <ele>1</ele>
        <time>2012-03-14T14:26:08Z</time>
      </trkpt>
      <trkpt lat="47.58625" lon="-3.08817">
        <ele>1</ele>
        <time>2012-03-14T14:26:11Z</time>
      </trkpt>
      <trkpt lat="47.58628" lon="-3.08801">
        <ele>3</ele>
        <time>2012-03-14T14:26:14Z</time>
      </trkpt>
      <trkpt lat="47.5863" lon="-3.08792">
        <ele>3</ele>
        <time>2012-03-14T14:26:16Z</time>
      </trkpt>
      <trkpt lat="47.58624" lon="-3.08781">
        <ele>14.9</ele>
        <time>2012-03-14T14:26:20Z</time>
      </trkpt>
      <trkpt lat="47.58618" lon="-3.08781">
        <ele>14.9</ele>
        <time>2012-03-14T14:26:22Z</time>
      </trkpt>
      <trkpt lat="47.58609" lon="-3.08781">
        <ele>3</ele>
        <time>2012-03-14T14:26:25Z</time>
      </trkpt>
      <trkpt lat="47.58599" lon="-3.0878">
        <ele>4</ele>
        <time>2012-03-14T14:26:28Z</time>
      </trkpt>
      <trkpt lat="47.58593" lon="-3.0878">
        <ele>2</ele>
        <time>2012-03-14T14:26:30Z</time>
      </trkpt>
      <trkpt lat="47.58586" lon="-3.0878">
        <ele>2</ele>
        <time>2012-03-14T14:26:32Z</time>
      </trkpt>
      <trkpt lat="47.58576" lon="-3.08779">
        <ele>3</ele>
        <time>2012-03-14T14:26:35Z</time>
      </trkpt>
      <trkpt lat="47.58569" lon="-3.08779">
        <ele>7</ele>
        <time>2012-03-14T14:26:37Z</time>
      </trkpt>
      <trkpt lat="47.58561" lon="-3.0878">
        <ele>7</ele>
        <time>2012-03-14T14:26:40Z</time>
      </trkpt>
      <trkpt lat="47.58555" lon="-3.08779">
        <ele>10</ele>
        <time>2012-03-14T14:26:41Z</time>
      </trkpt>
      <trkpt lat="47.58543" lon="-3.08778">
        <ele>8</ele>
        <time>2012-03-14T14:26:45Z</time>
      </trkpt>
      <trkpt lat="47.58537" lon="-3.08779">
        <ele>10</ele>
        <time>2012-03-14T14:26:47Z</time>
      </trkpt>
      <trkpt lat="47.58532" lon="-3.08778">
        <ele>4</ele>
        <time>2012-03-14T14:26:49Z</time>
      </trkpt>
      <trkpt lat="47.58526" lon="-3.08778">
        <ele>7</ele>
        <time>2012-03-14T14:26:51Z</time>
      </trkpt>
      <trkpt lat="47.58506" lon="-3.08776">
        <ele>13</ele>
        <time>2012-03-14T14:26:57Z</time>
      </trkpt>
      <trkpt lat="47.58489" lon="-3.08775">
        <ele>13</ele>
        <time>2012-03-14T14:27:02Z</time>
      </trkpt>
      <trkpt lat="47.58482" lon="-3.08774">
        <ele>11</ele>
        <time>2012-03-14T14:27:04Z</time>
      </trkpt>
      <trkpt lat="47.58475" lon="-3.08774">
        <ele>11</ele>
        <time>2012-03-14T14:27:06Z</time>
      </trkpt>
      <trkpt lat="47.58456" lon="-3.0877">
        <ele>8</ele>
        <time>2012-03-14T14:27:12Z</time>
      </trkpt>
      <trkpt lat="47.58416" lon="-3.08764">
        <ele>9</ele>
        <time>2012-03-14T14:27:25Z</time>
      </trkpt>
      <trkpt lat="47.5841" lon="-3.08764">
        <ele>11</ele>
        <time>2012-03-14T14:27:27Z</time>
      </trkpt>
      <trkpt lat="47.58399" lon="-3.08763">
        <ele>10</ele>
        <time>2012-03-14T14:27:31Z</time>
      </trkpt>
      <trkpt lat="47.58384" lon="-3.08761">
        <ele>4</ele>
        <time>2012-03-14T14:27:36Z</time>
      </trkpt>
      <trkpt lat="47.58379" lon="-3.0876">
        <ele>4</ele>
        <time>2012-03-14T14:27:38Z</time>
      </trkpt>
      <trkpt lat="47.58372" lon="-3.08759">
        <ele>2</ele>
        <time>2012-03-14T14:27:40Z</time>
      </trkpt>
      <trkpt lat="47.58351" lon="-3.08757">
        <ele>9</ele>
        <time>2012-03-14T14:27:48Z</time>
      </trkpt>
      <trkpt lat="47.58345" lon="-3.0876">
        <ele>9</ele>
        <time>2012-03-14T14:27:51Z</time>
      </trkpt>
      <trkpt lat="47.58343" lon="-3.08768">
        <ele>9</ele>
        <time>2012-03-14T14:27:54Z</time>
      </trkpt>
      <trkpt lat="47.58344" lon="-3.08782">
        <ele>10</ele>
        <time>2012-03-14T14:27:57Z</time>
      </trkpt>
      <trkpt lat="47.58345" lon="-3.08801">
        <ele>13</ele>
        <time>2012-03-14T14:28:00Z</time>
      </trkpt>
      <trkpt lat="47.58348" lon="-3.08834">
        <ele>11</ele>
        <time>2012-03-14T14:28:05Z</time>
      </trkpt>
      <trkpt lat="47.5835" lon="-3.08849">
        <ele>13</ele>
        <time>2012-03-14T14:28:07Z</time>
      </trkpt>
      <trkpt lat="47.58352" lon="-3.08865">
        <ele>10</ele>
        <time>2012-03-14T14:28:09Z</time>
      </trkpt>
      <trkpt lat="47.58355" lon="-3.08881">
        <ele>9</ele>
        <time>2012-03-14T14:28:11Z</time>
      </trkpt>
      <trkpt lat="47.58364" lon="-3.08914">
        <ele>1</ele>
        <time>2012-03-14T14:28:15Z</time>
      </trkpt>
      <trkpt lat="47.58368" lon="-3.08931">
        <ele>3</ele>
        <time>2012-03-14T14:28:17Z</time>
      </trkpt>
      <trkpt lat="47.58374" lon="-3.08947">
        <ele>2</ele>
        <time>2012-03-14T14:28:19Z</time>
      </trkpt>
      <trkpt lat="47.5838" lon="-3.08963">
        <ele>2</ele>
        <time>2012-03-14T14:28:21Z</time>
      </trkpt>
      <trkpt lat="47.58393" lon="-3.09006">
        <ele>10</ele>
        <time>2012-03-14T14:28:29Z</time>
      </trkpt>
      <trkpt lat="47.58395" lon="-3.09016">
        <ele>9</ele>
        <time>2012-03-14T14:28:31Z</time>
      </trkpt>
      <trkpt lat="47.58398" lon="-3.09032">
        <ele>9</ele>
        <time>2012-03-14T14:28:34Z</time>
      </trkpt>
      <trkpt lat="47.58399" lon="-3.0905">
        <ele>7</ele>
        <time>2012-03-14T14:28:37Z</time>
      </trkpt>
      <trkpt lat="47.58401" lon="-3.09062">
        <ele>8</ele>
        <time>2012-03-14T14:28:39Z</time>
      </trkpt>
      <trkpt lat="47.58402" lon="-3.09078">
        <ele>12</ele>
        <time>2012-03-14T14:28:42Z</time>
      </trkpt>
      <trkpt lat="47.58404" lon="-3.0911">
        <ele>15</ele>
        <time>2012-03-14T14:28:48Z</time>
      </trkpt>
      <trkpt lat="47.58406" lon="-3.09123">
        <ele>15</ele>
        <time>2012-03-14T14:28:51Z</time>
      </trkpt>
      <trkpt lat="47.58407" lon="-3.09137">
        <ele>15</ele>
        <time>2012-03-14T14:29:00Z</time>
      </trkpt>
      <trkpt lat="47.58408" lon="-3.09155">
        <ele>14</ele>
        <time>2012-03-14T14:29:05Z</time>
      </trkpt>
      <trkpt lat="47.58412" lon="-3.0919">
        <ele>8</ele>
        <time>2012-03-14T14:29:11Z</time>
      </trkpt>
      <trkpt lat="47.58414" lon="-3.0922">
        <ele>10</ele>
        <time>2012-03-14T14:29:17Z</time>
      </trkpt>
      <trkpt lat="47.58411" lon="-3.09254">
        <ele>6</ele>
        <time>2012-03-14T14:29:23Z</time>
      </trkpt>
      <trkpt lat="47.58407" lon="-3.09269">
        <ele>11</ele>
        <time>2012-03-14T14:29:26Z</time>
      </trkpt>
      <trkpt lat="47.58403" lon="-3.09285">
        <ele>9</ele>
        <time>2012-03-14T14:29:29Z</time>
      </trkpt>
      <trkpt lat="47.58399" lon="-3.09298">
        <ele>13</ele>
        <time>2012-03-14T14:29:32Z</time>
      </trkpt>
      <trkpt lat="47.58399" lon="-3.09317">
        <ele>6</ele>
        <time>2012-03-14T14:29:36Z</time>
      </trkpt>
      <trkpt lat="47.58408" lon="-3.09327">
        <ele>9</ele>
        <time>2012-03-14T14:29:46Z</time>
      </trkpt>
      <trkpt lat="47.58419" lon="-3.09327">
        <ele>6</ele>
        <time>2012-03-14T14:29:49Z</time>
      </trkpt>
      <trkpt lat="47.58431" lon="-3.09325">
        <ele>5</ele>
        <time>2012-03-14T14:29:52Z</time>
      </trkpt>
      <trkpt lat="47.58454" lon="-3.0932">
        <ele>6</ele>
        <time>2012-03-14T14:29:58Z</time>
      </trkpt>
      <trkpt lat="47.58466" lon="-3.0932">
        <ele>3</ele>
        <time>2012-03-14T14:30:01Z</time>
      </trkpt>
      <trkpt lat="47.58488" lon="-3.09318">
        <ele>11</ele>
        <time>2012-03-14T14:30:08Z</time>
      </trkpt>
      <trkpt lat="47.585" lon="-3.09318">
        <ele>8</ele>
        <time>2012-03-14T14:30:12Z</time>
      </trkpt>
      <trkpt lat="47.58511" lon="-3.09319">
        <ele>7</ele>
        <time>2012-03-14T14:30:15Z</time>
      </trkpt>
      <trkpt lat="47.58521" lon="-3.09317">
        <ele>3</ele>
        <time>2012-03-14T14:30:18Z</time>
      </trkpt>
      <trkpt lat="47.5856" lon="-3.0931">
        <ele>13</ele>
        <time>2012-03-14T14:30:30Z</time>
      </trkpt>
      <trkpt lat="47.58569" lon="-3.09307">
        <ele>8</ele>
        <time>2012-03-14T14:30:34Z</time>
      </trkpt>
      <trkpt lat="47.58577" lon="-3.09303">
        <ele>7</ele>
        <time>2012-03-14T14:30:38Z</time>
      </trkpt>
      <trkpt lat="47.58582" lon="-3.093">
        <ele>8</ele>
        <time>2012-03-14T14:30:40Z</time>
      </trkpt>
      <trkpt lat="47.58593" lon="-3.09297">
        <ele>6</ele>
        <time>2012-03-14T14:30:44Z</time>
      </trkpt>
      <trkpt lat="47.58612" lon="-3.09292">
        <ele>9</ele>
        <time>2012-03-14T14:30:52Z</time>
      </trkpt>
      <trkpt lat="47.58622" lon="-3.09286">
        <ele>5</ele>
        <time>2012-03-14T14:30:55Z</time>
      </trkpt>
      <trkpt lat="47.58643" lon="-3.09283">
        <ele>12</ele>
        <time>2012-03-14T14:31:00Z</time>
      </trkpt>
      <trkpt lat="47.58657" lon="-3.09295">
        <ele>11</ele>
        <time>2012-03-14T14:31:05Z</time>
      </trkpt>
      <trkpt lat="47.58668" lon="-3.09299">
        <ele>9</ele>
        <time>2012-03-14T14:31:08Z</time>
      </trkpt>
      <trkpt lat="47.58679" lon="-3.09304">
        <ele>13</ele>
        <time>2012-03-14T14:31:11Z</time>
      </trkpt>
      <trkpt lat="47.58689" lon="-3.09306">
        <ele>12</ele>
        <time>2012-03-14T14:31:14Z</time>
      </trkpt>
      <trkpt lat="47.587" lon="-3.09306">
        <ele>12</ele>
        <time>2012-03-14T14:31:17Z</time>
      </trkpt>
      <trkpt lat="47.58719" lon="-3.09314">
        <ele>6</ele>
        <time>2012-03-14T14:31:23Z</time>
      </trkpt>
      <trkpt lat="47.58751" lon="-3.09323">
        <ele>16</ele>
        <time>2012-03-14T14:31:32Z</time>
      </trkpt>
      <trkpt lat="47.58762" lon="-3.09327">
        <ele>16</ele>
        <time>2012-03-14T14:31:35Z</time>
      </trkpt>
      <trkpt lat="47.58773" lon="-3.09331">
        <ele>19</ele>
        <time>2012-03-14T14:31:38Z</time>
      </trkpt>
      <trkpt lat="47.58782" lon="-3.09336">
        <ele>13</ele>
        <time>2012-03-14T14:31:41Z</time>
      </trkpt>
      <trkpt lat="47.58788" lon="-3.09347">
        <ele>16</ele>
        <time>2012-03-14T14:31:45Z</time>
      </trkpt>
      <trkpt lat="47.58796" lon="-3.09354">
        <ele>11</ele>
        <time>2012-03-14T14:31:48Z</time>
      </trkpt>
      <trkpt lat="47.58805" lon="-3.09361">
        <ele>10</ele>
        <time>2012-03-14T14:31:51Z</time>
      </trkpt>
      <trkpt lat="47.58814" lon="-3.09372">
        <ele>6</ele>
        <time>2012-03-14T14:31:54Z</time>
      </trkpt>
      <trkpt lat="47.58824" lon="-3.09382">
        <ele>7</ele>
        <time>2012-03-14T14:31:57Z</time>
      </trkpt>
      <trkpt lat="47.58832" lon="-3.09391">
        <ele>4</ele>
        <time>2012-03-14T14:32:00Z</time>
      </trkpt>
      <trkpt lat="47.5884" lon="-3.09399">
        <ele>3</ele>
        <time>2012-03-14T14:32:02Z</time>
      </trkpt>
      <trkpt lat="47.5886" lon="-3.09412">
        <ele>11</ele>
        <time>2012-03-14T14:32:08Z</time>
      </trkpt>
      <trkpt lat="47.58869" lon="-3.09417">
        <ele>10</ele>
        <time>2012-03-14T14:32:11Z</time>
      </trkpt>
      <trkpt lat="47.58879" lon="-3.09422">
        <ele>10</ele>
        <time>2012-03-14T14:32:15Z</time>
      </trkpt>
      <trkpt lat="47.58897" lon="-3.09436">
        <ele>4</ele>
        <time>2012-03-14T14:32:23Z</time>
      </trkpt>
      <trkpt lat="47.58908" lon="-3.09445">
        <ele>6</ele>
        <time>2012-03-14T14:32:27Z</time>
      </trkpt>
      <trkpt lat="47.58916" lon="-3.09452">
        <ele>7</ele>
        <time>2012-03-14T14:32:30Z</time>
      </trkpt>
      <trkpt lat="47.58945" lon="-3.0947">
        <ele>18.9</ele>
        <time>2012-03-14T14:32:42Z</time>
      </trkpt>
      <trkpt lat="47.58953" lon="-3.09477">
        <ele>4</ele>
        <time>2012-03-14T14:32:45Z</time>
      </trkpt>
      <trkpt lat="47.58963" lon="-3.09488">
        <ele>3</ele>
        <time>2012-03-14T14:32:48Z</time>
      </trkpt>
      <trkpt lat="47.5897" lon="-3.09495">
        <ele>3</ele>
        <time>2012-03-14T14:32:50Z</time>
      </trkpt>
      <trkpt lat="47.58978" lon="-3.09503">
        <ele>18.2</ele>
        <time>2012-03-14T14:32:52Z</time>
      </trkpt>
      <trkpt lat="47.58986" lon="-3.0951">
        <ele>2</ele>
        <time>2012-03-14T14:32:54Z</time>
      </trkpt>
      <trkpt lat="47.58996" lon="-3.09517">
        <ele>18.3</ele>
        <time>2012-03-14T14:32:57Z</time>
      </trkpt>
      <trkpt lat="47.59016" lon="-3.0953">
        <ele>1</ele>
        <time>2012-03-14T14:33:02Z</time>
      </trkpt>
      <trkpt lat="47.59025" lon="-3.09535">
        <ele>1</ele>
        <time>2012-03-14T14:33:04Z</time>
      </trkpt>
      <trkpt lat="47.59033" lon="-3.0954">
        <ele>4</ele>
        <time>2012-03-14T14:33:06Z</time>
      </trkpt>
      <trkpt lat="47.59042" lon="-3.09544">
        <ele>4</ele>
        <time>2012-03-14T14:33:08Z</time>
      </trkpt>
      <trkpt lat="47.59059" lon="-3.09549">
        <ele>8</ele>
        <time>2012-03-14T14:33:30Z</time>
      </trkpt>
      <trkpt lat="47.59068" lon="-3.09553">
        <ele>7</ele>
        <time>2012-03-14T14:33:34Z</time>
      </trkpt>
      <trkpt lat="47.5908" lon="-3.09556">
        <ele>7</ele>
        <time>2012-03-14T14:33:37Z</time>
      </trkpt>
      <trkpt lat="47.59101" lon="-3.09557">
        <ele>7</ele>
        <time>2012-03-14T14:33:43Z</time>
      </trkpt>
      <trkpt lat="47.59111" lon="-3.09558">
        <ele>5</ele>
        <time>2012-03-14T14:33:46Z</time>
      </trkpt>
      <trkpt lat="47.59121" lon="-3.09558">
        <ele>7</ele>
        <time>2012-03-14T14:33:48Z</time>
      </trkpt>
      <trkpt lat="47.59131" lon="-3.09558">
        <ele>4</ele>
        <time>2012-03-14T14:33:50Z</time>
      </trkpt>
      <trkpt lat="47.59145" lon="-3.0956">
        <ele>4</ele>
        <time>2012-03-14T14:33:53Z</time>
      </trkpt>
      <trkpt lat="47.59156" lon="-3.09564">
        <ele>9</ele>
        <time>2012-03-14T14:33:56Z</time>
      </trkpt>
      <trkpt lat="47.59194" lon="-3.09578">
        <ele>16</ele>
        <time>2012-03-14T14:34:10Z</time>
      </trkpt>
      <trkpt lat="47.59222" lon="-3.09594">
        <ele>17</ele>
        <time>2012-03-14T14:34:20Z</time>
      </trkpt>
      <trkpt lat="47.59299" lon="-3.09665">
        <ele>18.8</ele>
        <time>2012-03-14T14:34:50Z</time>
      </trkpt>
      <trkpt lat="47.59385" lon="-3.09689">
        <ele>19.2</ele>
        <time>2012-03-14T14:35:06Z</time>
      </trkpt>
      <trkpt lat="47.59417" lon="-3.097">
        <ele>17</ele>
        <time>2012-03-14T14:35:12Z</time>
      </trkpt>
      <trkpt lat="47.59432" lon="-3.09703">
        <ele>12</ele>
        <time>2012-03-14T14:35:16Z</time>
      </trkpt>
      <trkpt lat="47.59442" lon="-3.09708">
        <ele>20</ele>
        <time>2012-03-14T14:35:19Z</time>
      </trkpt>
      <trkpt lat="47.59452" lon="-3.09721">
        <ele>19</ele>
        <time>2012-03-14T14:35:22Z</time>
      </trkpt>
      <trkpt lat="47.59455" lon="-3.09728">
        <ele>19</ele>
        <time>2012-03-14T14:35:23Z</time>
      </trkpt>
      <trkpt lat="47.59458" lon="-3.09742">
        <ele>14</ele>
        <time>2012-03-14T14:35:25Z</time>
      </trkpt>
      <trkpt lat="47.59465" lon="-3.09774">
        <ele>16</ele>
        <time>2012-03-14T14:35:31Z</time>
      </trkpt>
      <trkpt lat="47.59469" lon="-3.09791">
        <ele>13</ele>
        <time>2012-03-14T14:35:34Z</time>
      </trkpt>
      <trkpt lat="47.59474" lon="-3.09807">
        <ele>13</ele>
        <time>2012-03-14T14:35:37Z</time>
      </trkpt>
      <trkpt lat="47.59486" lon="-3.09841">
        <ele>17</ele>
        <time>2012-03-14T14:35:44Z</time>
      </trkpt>
      <trkpt lat="47.59497" lon="-3.09867">
        <ele>14</ele>
        <time>2012-03-14T14:35:50Z</time>
      </trkpt>
      <trkpt lat="47.59501" lon="-3.09876">
        <ele>15</ele>
        <time>2012-03-14T14:35:52Z</time>
      </trkpt>
      <trkpt lat="47.59505" lon="-3.09885">
        <ele>14</ele>
        <time>2012-03-14T14:35:54Z</time>
      </trkpt>
      <trkpt lat="47.59508" lon="-3.09895">
        <ele>14</ele>
        <time>2012-03-14T14:35:56Z</time>
      </trkpt>
      <trkpt lat="47.59514" lon="-3.09911">
        <ele>12</ele>
        <time>2012-03-14T14:35:59Z</time>
      </trkpt>
      <trkpt lat="47.59525" lon="-3.09942">
        <ele>18</ele>
        <time>2012-03-14T14:36:05Z</time>
      </trkpt>
      <trkpt lat="47.59531" lon="-3.09955">
        <ele>17</ele>
        <time>2012-03-14T14:36:08Z</time>
      </trkpt>
      <trkpt lat="47.59538" lon="-3.09966">
        <ele>19</ele>
        <time>2012-03-14T14:36:11Z</time>
      </trkpt>
      <trkpt lat="47.59545" lon="-3.09976">
        <ele>18</ele>
        <time>2012-03-14T14:36:13Z</time>
      </trkpt>
      <trkpt lat="47.59559" lon="-3.10018">
        <ele>14</ele>
        <time>2012-03-14T14:36:19Z</time>
      </trkpt>
      <trkpt lat="47.59553" lon="-3.1005">
        <ele>8</ele>
        <time>2012-03-14T14:36:25Z</time>
      </trkpt>
      <trkpt lat="47.5955" lon="-3.10066">
        <ele>9</ele>
        <time>2012-03-14T14:36:28Z</time>
      </trkpt>
      <trkpt lat="47.59552" lon="-3.10082">
        <ele>12</ele>
        <time>2012-03-14T14:36:31Z</time>
      </trkpt>
      <trkpt lat="47.59553" lon="-3.101">
        <ele>6</ele>
        <time>2012-03-14T14:36:34Z</time>
      </trkpt>
      <trkpt lat="47.59554" lon="-3.10115">
        <ele>6</ele>
        <time>2012-03-14T14:36:36Z</time>
      </trkpt>
      <trkpt lat="47.59556" lon="-3.1013">
        <ele>3</ele>
        <time>2012-03-14T14:36:38Z</time>
      </trkpt>
      <trkpt lat="47.59568" lon="-3.10177">
        <ele>6</ele>
        <time>2012-03-14T14:36:47Z</time>
      </trkpt>
      <trkpt lat="47.59576" lon="-3.10191">
        <ele>12</ele>
        <time>2012-03-14T14:36:51Z</time>
      </trkpt>
      <trkpt lat="47.59584" lon="-3.10202">
        <ele>10</ele>
        <time>2012-03-14T14:36:54Z</time>
      </trkpt>
      <trkpt lat="47.59592" lon="-3.10211">
        <ele>15</ele>
        <time>2012-03-14T14:36:59Z</time>
      </trkpt>
      <trkpt lat="47.59605" lon="-3.10207">
        <ele>11</ele>
        <time>2012-03-14T14:37:03Z</time>
      </trkpt>
      <trkpt lat="47.59611" lon="-3.10198">
        <ele>5</ele>
        <time>2012-03-14T14:37:05Z</time>
      </trkpt>
      <trkpt lat="47.59618" lon="-3.10184">
        <ele>5</ele>
        <time>2012-03-14T14:37:08Z</time>
      </trkpt>
      <trkpt lat="47.59623" lon="-3.1017">
        <ele>6</ele>
        <time>2012-03-14T14:37:11Z</time>
      </trkpt>
      <trkpt lat="47.59628" lon="-3.10156">
        <ele>12</ele>
        <time>2012-03-14T14:37:15Z</time>
      </trkpt>
      <trkpt lat="47.59643" lon="-3.10127">
        <ele>1</ele>
        <time>2012-03-14T14:37:24Z</time>
      </trkpt>
      <trkpt lat="47.59693" lon="-3.10104">
        <ele>18.3</ele>
        <time>2012-03-14T14:37:44Z</time>
      </trkpt>
      <trkpt lat="47.59698" lon="-3.10079">
        <ele>27</ele>
        <time>2012-03-14T14:38:06Z</time>
      </trkpt>
      <trkpt lat="47.59704" lon="-3.10075">
        <ele>26</ele>
        <time>2012-03-14T14:38:51Z</time>
      </trkpt>
      <trkpt lat="47.59719" lon="-3.1009">
        <ele>16</ele>
        <time>2012-03-14T14:38:59Z</time>
      </trkpt>
      <trkpt lat="47.59729" lon="-3.10084">
        <ele>19</ele>
        <time>2012-03-14T14:39:04Z</time>
      </trkpt>
      <trkpt lat="47.59741" lon="-3.10078">
        <ele>14</ele>
        <time>2012-03-14T14:39:07Z</time>
      </trkpt>
      <trkpt lat="47.59751" lon="-3.10072">
        <ele>15</ele>
        <time>2012-03-14T14:39:10Z</time>
      </trkpt>
      <trkpt lat="47.59761" lon="-3.10068">
        <ele>24</ele>
        <time>2012-03-14T14:39:13Z</time>
      </trkpt>
      <trkpt lat="47.5977" lon="-3.10067">
        <ele>16</ele>
        <time>2012-03-14T14:39:16Z</time>
      </trkpt>
      <trkpt lat="47.59778" lon="-3.10062">
        <ele>16</ele>
        <time>2012-03-14T14:39:19Z</time>
      </trkpt>
      <trkpt lat="47.59788" lon="-3.10057">
        <ele>11</ele>
        <time>2012-03-14T14:39:22Z</time>
      </trkpt>
      <trkpt lat="47.59795" lon="-3.10054">
        <ele>11</ele>
        <time>2012-03-14T14:39:24Z</time>
      </trkpt>
      <trkpt lat="47.59804" lon="-3.1005">
        <ele>15</ele>
        <time>2012-03-14T14:39:27Z</time>
      </trkpt>
      <trkpt lat="47.59825" lon="-3.10043">
        <ele>5</ele>
        <time>2012-03-14T14:39:33Z</time>
      </trkpt>
      <trkpt lat="47.59834" lon="-3.10038">
        <ele>9</ele>
        <time>2012-03-14T14:39:36Z</time>
      </trkpt>
      <trkpt lat="47.59843" lon="-3.10035">
        <ele>3</ele>
        <time>2012-03-14T14:39:39Z</time>
      </trkpt>
      <trkpt lat="47.59853" lon="-3.10031">
        <ele>3</ele>
        <time>2012-03-14T14:39:43Z</time>
      </trkpt>
      <trkpt lat="47.59872" lon="-3.10021">
        <ele>18.3</ele>
        <time>2012-03-14T14:39:49Z</time>
      </trkpt>
      <trkpt lat="47.59891" lon="-3.10007">
        <ele>11</ele>
        <time>2012-03-14T14:39:56Z</time>
      </trkpt>
      <trkpt lat="47.599" lon="-3.10002">
        <ele>11</ele>
        <time>2012-03-14T14:39:59Z</time>
      </trkpt>
      <trkpt lat="47.59927" lon="-3.09992">
        <ele>22</ele>
        <time>2012-03-14T14:40:07Z</time>
      </trkpt>
      <trkpt lat="47.59939" lon="-3.09998">
        <ele>24</ele>
        <time>2012-03-14T14:40:10Z</time>
      </trkpt>
      <trkpt lat="47.59948" lon="-3.10005">
        <ele>24</ele>
        <time>2012-03-14T14:40:12Z</time>
      </trkpt>
      <trkpt lat="47.59956" lon="-3.10011">
        <ele>19</ele>
        <time>2012-03-14T14:40:14Z</time>
      </trkpt>
      <trkpt lat="47.59966" lon="-3.10017">
        <ele>20</ele>
        <time>2012-03-14T14:40:17Z</time>
      </trkpt>
      <trkpt lat="47.59976" lon="-3.10023">
        <ele>20</ele>
        <time>2012-03-14T14:40:20Z</time>
      </trkpt>
      <trkpt lat="47.59986" lon="-3.10031">
        <ele>22</ele>
        <time>2012-03-14T14:40:23Z</time>
      </trkpt>
      <trkpt lat="47.59996" lon="-3.10039">
        <ele>20</ele>
        <time>2012-03-14T14:40:26Z</time>
      </trkpt>
      <trkpt lat="47.6001" lon="-3.10052">
        <ele>20</ele>
        <time>2012-03-14T14:40:32Z</time>
      </trkpt>
      <trkpt lat="47.60014" lon="-3.1007">
        <ele>11</ele>
        <time>2012-03-14T14:40:46Z</time>
      </trkpt>
      <trkpt lat="47.60015" lon="-3.10085">
        <ele>8</ele>
        <time>2012-03-14T14:40:50Z</time>
      </trkpt>
      <trkpt lat="47.60015" lon="-3.101">
        <ele>12</ele>
        <time>2012-03-14T14:40:54Z</time>
      </trkpt>
      <trkpt lat="47.60015" lon="-3.10117">
        <ele>12</ele>
        <time>2012-03-14T14:40:58Z</time>
      </trkpt>
      <trkpt lat="47.60015" lon="-3.10131">
        <ele>12</ele>
        <time>2012-03-14T14:41:01Z</time>
      </trkpt>
      <trkpt lat="47.60015" lon="-3.10144">
        <ele>5</ele>
        <time>2012-03-14T14:41:04Z</time>
      </trkpt>
      <trkpt lat="47.60015" lon="-3.1019">
        <ele>13</ele>
        <time>2012-03-14T14:41:13Z</time>
      </trkpt>
      <trkpt lat="47.60015" lon="-3.10205">
        <ele>10</ele>
        <time>2012-03-14T14:41:16Z</time>
      </trkpt>
      <trkpt lat="47.60015" lon="-3.10219">
        <ele>13</ele>
        <time>2012-03-14T14:41:19Z</time>
      </trkpt>
      <trkpt lat="47.60015" lon="-3.10237">
        <ele>13</ele>
        <time>2012-03-14T14:41:23Z</time>
      </trkpt>
      <trkpt lat="47.60016" lon="-3.10254">
        <ele>10</ele>
        <time>2012-03-14T14:41:26Z</time>
      </trkpt>
      <trkpt lat="47.60016" lon="-3.10268">
        <ele>15</ele>
        <time>2012-03-14T14:41:29Z</time>
      </trkpt>
      <trkpt lat="47.60018" lon="-3.10282">
        <ele>12</ele>
        <time>2012-03-14T14:41:32Z</time>
      </trkpt>
      <trkpt lat="47.60018" lon="-3.10296">
        <ele>12</ele>
        <time>2012-03-14T14:41:35Z</time>
      </trkpt>
      <trkpt lat="47.60019" lon="-3.10311">
        <ele>14</ele>
        <time>2012-03-14T14:41:38Z</time>
      </trkpt>
      <trkpt lat="47.6002" lon="-3.10324">
        <ele>13</ele>
        <time>2012-03-14T14:41:41Z</time>
      </trkpt>
      <trkpt lat="47.60021" lon="-3.1034">
        <ele>7</ele>
        <time>2012-03-14T14:41:45Z</time>
      </trkpt>
      <trkpt lat="47.60028" lon="-3.1035">
        <ele>14</ele>
        <time>2012-03-14T14:41:50Z</time>
      </trkpt>
      <trkpt lat="47.60039" lon="-3.10348">
        <ele>17</ele>
        <time>2012-03-14T14:41:55Z</time>
      </trkpt>
      <trkpt lat="47.6005" lon="-3.10349">
        <ele>16</ele>
        <time>2012-03-14T14:42:00Z</time>
      </trkpt>
      <trkpt lat="47.6006" lon="-3.10349">
        <ele>14</ele>
        <time>2012-03-14T14:42:04Z</time>
      </trkpt>
      <trkpt lat="47.6007" lon="-3.10349">
        <ele>14</ele>
        <time>2012-03-14T14:42:08Z</time>
      </trkpt>
      <trkpt lat="47.60079" lon="-3.10348">
        <ele>19</ele>
        <time>2012-03-14T14:42:11Z</time>
      </trkpt>
      <trkpt lat="47.601" lon="-3.10341">
        <ele>13</ele>
        <time>2012-03-14T14:42:21Z</time>
      </trkpt>
      <trkpt lat="47.6011" lon="-3.10337">
        <ele>13</ele>
        <time>2012-03-14T14:42:24Z</time>
      </trkpt>
      <trkpt lat="47.60139" lon="-3.10321">
        <ele>23.5</ele>
        <time>2012-03-14T14:42:32Z</time>
      </trkpt>
      <trkpt lat="47.60163" lon="-3.1032">
        <ele>15</ele>
        <time>2012-03-14T14:42:47Z</time>
      </trkpt>
      <trkpt lat="47.60176" lon="-3.10321">
        <ele>13</ele>
        <time>2012-03-14T14:42:49Z</time>
      </trkpt>
      <trkpt lat="47.60188" lon="-3.1032">
        <ele>18</ele>
        <time>2012-03-14T14:42:51Z</time>
      </trkpt>
      <trkpt lat="47.60192" lon="-3.10319">
        <ele>17</ele>
        <time>2012-03-14T14:42:52Z</time>
      </trkpt>
      <trkpt lat="47.602" lon="-3.10317">
        <ele>24</ele>
        <time>2012-03-14T14:42:55Z</time>
      </trkpt>
      <trkpt lat="47.60202" lon="-3.10315">
        <ele>22</ele>
        <time>2012-03-14T14:43:02Z</time>
      </trkpt>
      <trkpt lat="47.60205" lon="-3.10322">
        <ele>15</ele>
        <time>2012-03-14T14:43:18Z</time>
      </trkpt>
      <trkpt lat="47.60201" lon="-3.10328">
        <ele>13</ele>
        <time>2012-03-14T14:43:21Z</time>
      </trkpt>
      <trkpt lat="47.60198" lon="-3.1034">
        <ele>20</ele>
        <time>2012-03-14T14:43:24Z</time>
      </trkpt>
      <trkpt lat="47.60197" lon="-3.10352">
        <ele>18</ele>
        <time>2012-03-14T14:43:27Z</time>
      </trkpt>
      <trkpt lat="47.60194" lon="-3.10373">
        <ele>22</ele>
        <time>2012-03-14T14:43:33Z</time>
      </trkpt>
      <trkpt lat="47.60193" lon="-3.10395">
        <ele>15</ele>
        <time>2012-03-14T14:43:40Z</time>
      </trkpt>
      <trkpt lat="47.60191" lon="-3.10406">
        <ele>18</ele>
        <time>2012-03-14T14:43:44Z</time>
      </trkpt>
      <trkpt lat="47.60188" lon="-3.10415">
        <ele>19</ele>
        <time>2012-03-14T14:43:46Z</time>
      </trkpt>
      <trkpt lat="47.60184" lon="-3.1043">
        <ele>17</ele>
        <time>2012-03-14T14:43:49Z</time>
      </trkpt>
      <trkpt lat="47.60179" lon="-3.10442">
        <ele>17</ele>
        <time>2012-03-14T14:43:51Z</time>
      </trkpt>
      <trkpt lat="47.60172" lon="-3.10453">
        <ele>21</ele>
        <time>2012-03-14T14:43:53Z</time>
      </trkpt>
      <trkpt lat="47.60164" lon="-3.10464">
        <ele>21</ele>
        <time>2012-03-14T14:43:55Z</time>
      </trkpt>
      <trkpt lat="47.60155" lon="-3.10478">
        <ele>22</ele>
        <time>2012-03-14T14:43:57Z</time>
      </trkpt>
      <trkpt lat="47.60141" lon="-3.105">
        <ele>17</ele>
        <time>2012-03-14T14:44:00Z</time>
      </trkpt>
      <trkpt lat="47.60137" lon="-3.10508">
        <ele>17</ele>
        <time>2012-03-14T14:44:01Z</time>
      </trkpt>
      <trkpt lat="47.60129" lon="-3.10522">
        <ele>16</ele>
        <time>2012-03-14T14:44:03Z</time>
      </trkpt>
      <trkpt lat="47.60123" lon="-3.10532">
        <ele>12</ele>
        <time>2012-03-14T14:44:05Z</time>
      </trkpt>
      <trkpt lat="47.60121" lon="-3.10548">
        <ele>10</ele>
        <time>2012-03-14T14:44:09Z</time>
      </trkpt>
      <trkpt lat="47.60119" lon="-3.10556">
        <ele>13</ele>
        <time>2012-03-14T14:44:16Z</time>
      </trkpt>
      <trkpt lat="47.60119" lon="-3.10557">
        <ele>8</ele>
        <time>2012-03-14T14:46:44Z</time>
      </trkpt>
      <trkpt lat="47.60122" lon="-3.10564">
        <ele>10</ele>
        <time>2012-03-14T14:46:46Z</time>
      </trkpt>
      <trkpt lat="47.60126" lon="-3.10572">
        <ele>9</ele>
        <time>2012-03-14T14:46:48Z</time>
      </trkpt>
      <trkpt lat="47.6013" lon="-3.1058">
        <ele>10</ele>
        <time>2012-03-14T14:46:50Z</time>
      </trkpt>
      <trkpt lat="47.60133" lon="-3.10587">
        <ele>10</ele>
        <time>2012-03-14T14:46:52Z</time>
      </trkpt>
      <trkpt lat="47.60143" lon="-3.10629">
        <ele>12</ele>
        <time>2012-03-14T14:47:00Z</time>
      </trkpt>
      <trkpt lat="47.60147" lon="-3.10644">
        <ele>12</ele>
        <time>2012-03-14T14:47:03Z</time>
      </trkpt>
      <trkpt lat="47.60153" lon="-3.10658">
        <ele>12</ele>
        <time>2012-03-14T14:47:06Z</time>
      </trkpt>
      <trkpt lat="47.60175" lon="-3.10673">
        <ele>13</ele>
        <time>2012-03-14T14:47:12Z</time>
      </trkpt>
      <trkpt lat="47.60185" lon="-3.10676">
        <ele>11</ele>
        <time>2012-03-14T14:47:15Z</time>
      </trkpt>
      <trkpt lat="47.60194" lon="-3.10686">
        <ele>10</ele>
        <time>2012-03-14T14:47:24Z</time>
      </trkpt>
      <trkpt lat="47.60196" lon="-3.10699">
        <ele>14</ele>
        <time>2012-03-14T14:47:27Z</time>
      </trkpt>
      <trkpt lat="47.60205" lon="-3.10726">
        <ele>15</ele>
        <time>2012-03-14T14:47:33Z</time>
      </trkpt>
      <trkpt lat="47.60209" lon="-3.10739">
        <ele>17</ele>
        <time>2012-03-14T14:47:36Z</time>
      </trkpt>
      <trkpt lat="47.60213" lon="-3.10753">
        <ele>14</ele>
        <time>2012-03-14T14:47:39Z</time>
      </trkpt>
      <trkpt lat="47.6022" lon="-3.10778">
        <ele>13</ele>
        <time>2012-03-14T14:47:44Z</time>
      </trkpt>
      <trkpt lat="47.60223" lon="-3.10789">
        <ele>13</ele>
        <time>2012-03-14T14:47:46Z</time>
      </trkpt>
      <trkpt lat="47.60228" lon="-3.10821">
        <ele>15</ele>
        <time>2012-03-14T14:47:53Z</time>
      </trkpt>
      <trkpt lat="47.60229" lon="-3.1083">
        <ele>17</ele>
        <time>2012-03-14T14:47:54Z</time>
      </trkpt>
      <trkpt lat="47.6023" lon="-3.10838">
        <ele>16</ele>
        <time>2012-03-14T14:47:56Z</time>
      </trkpt>
      <trkpt lat="47.60232" lon="-3.10846">
        <ele>17</ele>
        <time>2012-03-14T14:47:58Z</time>
      </trkpt>
      <trkpt lat="47.60234" lon="-3.10855">
        <ele>18</ele>
        <time>2012-03-14T14:48:00Z</time>
      </trkpt>
      <trkpt lat="47.60237" lon="-3.10863">
        <ele>17</ele>
        <time>2012-03-14T14:48:08Z</time>
      </trkpt>
      <trkpt lat="47.60241" lon="-3.1086">
        <ele>17</ele>
        <time>2012-03-14T14:48:13Z</time>
      </trkpt>
      <trkpt lat="47.60244" lon="-3.10862">
        <ele>14</ele>
        <time>2012-03-14T14:48:34Z</time>
      </trkpt>
      <trkpt lat="47.6024" lon="-3.1087">
        <ele>13</ele>
        <time>2012-03-14T14:48:39Z</time>
      </trkpt>
      <trkpt lat="47.60243" lon="-3.10878">
        <ele>12</ele>
        <time>2012-03-14T14:48:43Z</time>
      </trkpt>
      <trkpt lat="47.60249" lon="-3.10893">
        <ele>12</ele>
        <time>2012-03-14T14:48:48Z</time>
      </trkpt>
      <trkpt lat="47.60259" lon="-3.1092">
        <ele>12</ele>
        <time>2012-03-14T14:48:54Z</time>
      </trkpt>
      <trkpt lat="47.60267" lon="-3.10931">
        <ele>11</ele>
        <time>2012-03-14T14:48:58Z</time>
      </trkpt>
      <trkpt lat="47.60277" lon="-3.10936">
        <ele>14</ele>
        <time>2012-03-14T14:49:01Z</time>
      </trkpt>
      <trkpt lat="47.6028" lon="-3.10945">
        <ele>14</ele>
        <time>2012-03-14T14:49:06Z</time>
      </trkpt>
      <trkpt lat="47.60283" lon="-3.10954">
        <ele>13</ele>
        <time>2012-03-14T14:49:09Z</time>
      </trkpt>
      <trkpt lat="47.60288" lon="-3.10969">
        <ele>13</ele>
        <time>2012-03-14T14:49:13Z</time>
      </trkpt>
      <trkpt lat="47.60295" lon="-3.10989">
        <ele>17</ele>
        <time>2012-03-14T14:49:18Z</time>
      </trkpt>
      <trkpt lat="47.60298" lon="-3.10997">
        <ele>14</ele>
        <time>2012-03-14T14:49:20Z</time>
      </trkpt>
      <trkpt lat="47.60302" lon="-3.11016">
        <ele>12</ele>
        <time>2012-03-14T14:49:24Z</time>
      </trkpt>
      <trkpt lat="47.60305" lon="-3.11037">
        <ele>14</ele>
        <time>2012-03-14T14:49:29Z</time>
      </trkpt>
      <trkpt lat="47.60308" lon="-3.11049">
        <ele>12</ele>
        <time>2012-03-14T14:49:32Z</time>
      </trkpt>
      <trkpt lat="47.60316" lon="-3.11073">
        <ele>18</ele>
        <time>2012-03-14T14:49:38Z</time>
      </trkpt>
      <trkpt lat="47.60318" lon="-3.11082">
        <ele>15</ele>
        <time>2012-03-14T14:49:40Z</time>
      </trkpt>
      <trkpt lat="47.60318" lon="-3.11096">
        <ele>14</ele>
        <time>2012-03-14T14:49:45Z</time>
      </trkpt>
      <trkpt lat="47.60316" lon="-3.11115">
        <ele>17</ele>
        <time>2012-03-14T14:49:49Z</time>
      </trkpt>
      <trkpt lat="47.60308" lon="-3.11145">
        <ele>10</ele>
        <time>2012-03-14T14:49:55Z</time>
      </trkpt>
      <trkpt lat="47.60307" lon="-3.1116">
        <ele>11</ele>
        <time>2012-03-14T14:49:59Z</time>
      </trkpt>
      <trkpt lat="47.6032" lon="-3.11187">
        <ele>18</ele>
        <time>2012-03-14T14:50:10Z</time>
      </trkpt>
      <trkpt lat="47.60323" lon="-3.11195">
        <ele>14</ele>
        <time>2012-03-14T14:50:13Z</time>
      </trkpt>
      <trkpt lat="47.60337" lon="-3.11231">
        <ele>9</ele>
        <time>2012-03-14T14:50:25Z</time>
      </trkpt>
      <trkpt lat="47.60341" lon="-3.11235">
        <ele>11</ele>
        <time>2012-03-14T14:50:27Z</time>
      </trkpt>
      <trkpt lat="47.60345" lon="-3.1124">
        <ele>11</ele>
        <time>2012-03-14T14:50:29Z</time>
      </trkpt>
      <trkpt lat="47.60355" lon="-3.11264">
        <ele>20</ele>
        <time>2012-03-14T14:50:37Z</time>
      </trkpt>
      <trkpt lat="47.60365" lon="-3.1129">
        <ele>16</ele>
        <time>2012-03-14T14:50:44Z</time>
      </trkpt>
      <trkpt lat="47.60371" lon="-3.11302">
        <ele>19</ele>
        <time>2012-03-14T14:50:47Z</time>
      </trkpt>
      <trkpt lat="47.60377" lon="-3.11311">
        <ele>19</ele>
        <time>2012-03-14T14:50:50Z</time>
      </trkpt>
      <trkpt lat="47.6039" lon="-3.11337">
        <ele>11</ele>
        <time>2012-03-14T14:50:58Z</time>
      </trkpt>
      <trkpt lat="47.60394" lon="-3.1135">
        <ele>15</ele>
        <time>2012-03-14T14:51:01Z</time>
      </trkpt>
      <trkpt lat="47.60397" lon="-3.11369">
        <ele>9</ele>
        <time>2012-03-14T14:51:05Z</time>
      </trkpt>
      <trkpt lat="47.60398" lon="-3.11386">
        <ele>9</ele>
        <time>2012-03-14T14:51:08Z</time>
      </trkpt>
      <trkpt lat="47.60398" lon="-3.11402">
        <ele>5</ele>
        <time>2012-03-14T14:51:11Z</time>
      </trkpt>
      <trkpt lat="47.60399" lon="-3.11433">
        <ele>10</ele>
        <time>2012-03-14T14:51:17Z</time>
      </trkpt>
      <trkpt lat="47.60402" lon="-3.11464">
        <ele>11</ele>
        <time>2012-03-14T14:51:23Z</time>
      </trkpt>
      <trkpt lat="47.60405" lon="-3.11479">
        <ele>10</ele>
        <time>2012-03-14T14:51:27Z</time>
      </trkpt>
      <trkpt lat="47.60409" lon="-3.11508">
        <ele>15</ele>
        <time>2012-03-14T14:51:33Z</time>
      </trkpt>
      <trkpt lat="47.60409" lon="-3.11526">
        <ele>13</ele>
        <time>2012-03-14T14:51:36Z</time>
      </trkpt>
      <trkpt lat="47.60408" lon="-3.11545">
        <ele>15</ele>
        <time>2012-03-14T14:51:39Z</time>
      </trkpt>
      <trkpt lat="47.60407" lon="-3.1156">
        <ele>18</ele>
        <time>2012-03-14T14:51:42Z</time>
      </trkpt>
      <trkpt lat="47.60404" lon="-3.11591">
        <ele>19</ele>
        <time>2012-03-14T14:51:48Z</time>
      </trkpt>
      <trkpt lat="47.60405" lon="-3.11601">
        <ele>20</ele>
        <time>2012-03-14T14:51:50Z</time>
      </trkpt>
      <trkpt lat="47.60405" lon="-3.11615">
        <ele>19</ele>
        <time>2012-03-14T14:51:53Z</time>
      </trkpt>
      <trkpt lat="47.60408" lon="-3.11628">
        <ele>19</ele>
        <time>2012-03-14T14:51:56Z</time>
      </trkpt>
      <trkpt lat="47.60402" lon="-3.11632">
        <ele>19</ele>
        <time>2012-03-14T14:52:00Z</time>
      </trkpt>
      <trkpt lat="47.60397" lon="-3.11632">
        <ele>19</ele>
        <time>2012-03-14T14:52:02Z</time>
      </trkpt>
      <trkpt lat="47.60392" lon="-3.11632">
        <ele>19</ele>
        <time>2012-03-14T14:52:04Z</time>
      </trkpt>
      <trkpt lat="47.60378" lon="-3.11633">
        <ele>14</ele>
        <time>2012-03-14T14:52:09Z</time>
      </trkpt>
      <trkpt lat="47.60367" lon="-3.11636">
        <ele>17</ele>
        <time>2012-03-14T14:52:13Z</time>
      </trkpt>
      <trkpt lat="47.60362" lon="-3.11638">
        <ele>17</ele>
        <time>2012-03-14T14:52:15Z</time>
      </trkpt>
      <trkpt lat="47.60358" lon="-3.11641">
        <ele>15</ele>
        <time>2012-03-14T14:52:17Z</time>
      </trkpt>
      <trkpt lat="47.60349" lon="-3.11645">
        <ele>18</ele>
        <time>2012-03-14T14:52:21Z</time>
      </trkpt>
      <trkpt lat="47.60344" lon="-3.11646">
        <ele>18</ele>
        <time>2012-03-14T14:52:23Z</time>
      </trkpt>
      <trkpt lat="47.60336" lon="-3.1165">
        <ele>14</ele>
        <time>2012-03-14T14:52:27Z</time>
      </trkpt>
      <trkpt lat="47.60331" lon="-3.1165">
        <ele>14</ele>
        <time>2012-03-14T14:52:30Z</time>
      </trkpt>
      <trkpt lat="47.60313" lon="-3.11645">
        <ele>19</ele>
        <time>2012-03-14T14:52:36Z</time>
      </trkpt>
      <trkpt lat="47.60293" lon="-3.1164">
        <ele>18</ele>
        <time>2012-03-14T14:52:41Z</time>
      </trkpt>
      <trkpt lat="47.60275" lon="-3.11639">
        <ele>23</ele>
        <time>2012-03-14T14:52:45Z</time>
      </trkpt>
      <trkpt lat="47.60271" lon="-3.11638">
        <ele>23</ele>
        <time>2012-03-14T14:52:46Z</time>
      </trkpt>
      <trkpt lat="47.60266" lon="-3.11638">
        <ele>25</ele>
        <time>2012-03-14T14:52:47Z</time>
      </trkpt>
      <trkpt lat="47.60253" lon="-3.11635">
        <ele>24</ele>
        <time>2012-03-14T14:52:50Z</time>
      </trkpt>
      <trkpt lat="47.60248" lon="-3.11632">
        <ele>24</ele>
        <time>2012-03-14T14:52:52Z</time>
      </trkpt>
      <trkpt lat="47.60219" lon="-3.11618">
        <ele>20</ele>
        <time>2012-03-14T14:53:01Z</time>
      </trkpt>
      <trkpt lat="47.6021" lon="-3.11616">
        <ele>20</ele>
        <time>2012-03-14T14:53:04Z</time>
      </trkpt>
      <trkpt lat="47.602" lon="-3.11612">
        <ele>19</ele>
        <time>2012-03-14T14:53:07Z</time>
      </trkpt>
      <trkpt lat="47.60191" lon="-3.1161">
        <ele>21</ele>
        <time>2012-03-14T14:53:10Z</time>
      </trkpt>
      <trkpt lat="47.60182" lon="-3.11609">
        <ele>21</ele>
        <time>2012-03-14T14:53:13Z</time>
      </trkpt>
      <trkpt lat="47.6017" lon="-3.11606">
        <ele>15</ele>
        <time>2012-03-14T14:53:17Z</time>
      </trkpt>
      <trkpt lat="47.6016" lon="-3.11607">
        <ele>16</ele>
        <time>2012-03-14T14:53:21Z</time>
      </trkpt>
      <trkpt lat="47.60151" lon="-3.11618">
        <ele>10</ele>
        <time>2012-03-14T14:53:25Z</time>
      </trkpt>
      <trkpt lat="47.60138" lon="-3.11642">
        <ele>18</ele>
        <time>2012-03-14T14:53:32Z</time>
      </trkpt>
      <trkpt lat="47.60136" lon="-3.1165">
        <ele>13</ele>
        <time>2012-03-14T14:53:40Z</time>
      </trkpt>
      <trkpt lat="47.60129" lon="-3.11662">
        <ele>17</ele>
        <time>2012-03-14T14:53:45Z</time>
      </trkpt>
      <trkpt lat="47.60124" lon="-3.11672">
        <ele>17</ele>
        <time>2012-03-14T14:53:48Z</time>
      </trkpt>
      <trkpt lat="47.60119" lon="-3.11681">
        <ele>17</ele>
        <time>2012-03-14T14:53:50Z</time>
      </trkpt>
      <trkpt lat="47.60114" lon="-3.11687">
        <ele>20</ele>
        <time>2012-03-14T14:53:52Z</time>
      </trkpt>
      <trkpt lat="47.6011" lon="-3.11692">
        <ele>15</ele>
        <time>2012-03-14T14:53:54Z</time>
      </trkpt>
      <trkpt lat="47.601" lon="-3.1171">
        <ele>20</ele>
        <time>2012-03-14T14:54:00Z</time>
      </trkpt>
      <trkpt lat="47.60098" lon="-3.11719">
        <ele>15</ele>
        <time>2012-03-14T14:54:02Z</time>
      </trkpt>
      <trkpt lat="47.60096" lon="-3.11727">
        <ele>18</ele>
        <time>2012-03-14T14:54:04Z</time>
      </trkpt>
      <trkpt lat="47.60093" lon="-3.11744">
        <ele>18</ele>
        <time>2012-03-14T14:54:08Z</time>
      </trkpt>
      <trkpt lat="47.60088" lon="-3.11789">
        <ele>14</ele>
        <time>2012-03-14T14:54:18Z</time>
      </trkpt>
      <trkpt lat="47.60086" lon="-3.11807">
        <ele>16</ele>
        <time>2012-03-14T14:54:21Z</time>
      </trkpt>
      <trkpt lat="47.60076" lon="-3.11849">
        <ele>3</ele>
        <time>2012-03-14T14:54:30Z</time>
      </trkpt>
      <trkpt lat="47.60075" lon="-3.11849">
        <ele>22</ele>
        <time>2012-03-14T14:54:44Z</time>
      </trkpt>
      <trkpt lat="47.60081" lon="-3.11835">
        <ele>23</ele>
        <time>2012-03-14T14:54:49Z</time>
      </trkpt>
      <trkpt lat="47.60082" lon="-3.11828">
        <ele>18</ele>
        <time>2012-03-14T14:54:51Z</time>
      </trkpt>
      <trkpt lat="47.60078" lon="-3.11819">
        <ele>17</ele>
        <time>2012-03-14T14:54:55Z</time>
      </trkpt>
      <trkpt lat="47.60072" lon="-3.11819">
        <ele>19</ele>
        <time>2012-03-14T14:54:58Z</time>
      </trkpt>
      <trkpt lat="47.60067" lon="-3.11821">
        <ele>22</ele>
        <time>2012-03-14T14:55:00Z</time>
      </trkpt>
      <trkpt lat="47.60062" lon="-3.11825">
        <ele>19</ele>
        <time>2012-03-14T14:55:02Z</time>
      </trkpt>
      <trkpt lat="47.60051" lon="-3.11833">
        <ele>20</ele>
        <time>2012-03-14T14:55:06Z</time>
      </trkpt>
      <trkpt lat="47.60031" lon="-3.11848">
        <ele>15</ele>
        <time>2012-03-14T14:55:14Z</time>
      </trkpt>
      <trkpt lat="47.60021" lon="-3.11855">
        <ele>14</ele>
        <time>2012-03-14T14:55:18Z</time>
      </trkpt>
      <trkpt lat="47.60012" lon="-3.11862">
        <ele>16</ele>
        <time>2012-03-14T14:55:21Z</time>
      </trkpt>
      <trkpt lat="47.59986" lon="-3.11883">
        <ele>11</ele>
        <time>2012-03-14T14:55:30Z</time>
      </trkpt>
      <trkpt lat="47.59967" lon="-3.119">
        <ele>13</ele>
        <time>2012-03-14T14:55:37Z</time>
      </trkpt>
      <trkpt lat="47.59959" lon="-3.11908">
        <ele>11</ele>
        <time>2012-03-14T14:55:40Z</time>
      </trkpt>
      <trkpt lat="47.5995" lon="-3.11916">
        <ele>14</ele>
        <time>2012-03-14T14:55:44Z</time>
      </trkpt>
      <trkpt lat="47.59952" lon="-3.11929">
        <ele>14</ele>
        <time>2012-03-14T14:55:53Z</time>
      </trkpt>
      <trkpt lat="47.5996" lon="-3.11942">
        <ele>8</ele>
        <time>2012-03-14T14:55:58Z</time>
      </trkpt>
      <trkpt lat="47.59963" lon="-3.11948">
        <ele>8</ele>
        <time>2012-03-14T14:56:00Z</time>
      </trkpt>
      <trkpt lat="47.59973" lon="-3.11963">
        <ele>16</ele>
        <time>2012-03-14T14:56:05Z</time>
      </trkpt>
      <trkpt lat="47.59981" lon="-3.11972">
        <ele>9</ele>
        <time>2012-03-14T14:56:08Z</time>
      </trkpt>
      <trkpt lat="47.59989" lon="-3.1198">
        <ele>12</ele>
        <time>2012-03-14T14:56:11Z</time>
      </trkpt>
      <trkpt lat="47.59997" lon="-3.1199">
        <ele>12</ele>
        <time>2012-03-14T14:56:14Z</time>
      </trkpt>
      <trkpt lat="47.60004" lon="-3.12001">
        <ele>11</ele>
        <time>2012-03-14T14:56:17Z</time>
      </trkpt>
      <trkpt lat="47.60014" lon="-3.12012">
        <ele>15</ele>
        <time>2012-03-14T14:56:21Z</time>
      </trkpt>
      <trkpt lat="47.60023" lon="-3.12021">
        <ele>14</ele>
        <time>2012-03-14T14:56:24Z</time>
      </trkpt>
      <trkpt lat="47.60031" lon="-3.12029">
        <ele>15</ele>
        <time>2012-03-14T14:56:27Z</time>
      </trkpt>
      <trkpt lat="47.60038" lon="-3.12036">
        <ele>16</ele>
        <time>2012-03-14T14:56:29Z</time>
      </trkpt>
      <trkpt lat="47.60042" lon="-3.1204">
        <ele>16</ele>
        <time>2012-03-14T14:56:30Z</time>
      </trkpt>
      <trkpt lat="47.60053" lon="-3.12053">
        <ele>18</ele>
        <time>2012-03-14T14:56:34Z</time>
      </trkpt>
      <trkpt lat="47.60058" lon="-3.1206">
        <ele>17</ele>
        <time>2012-03-14T14:56:36Z</time>
      </trkpt>
      <trkpt lat="47.60069" lon="-3.12071">
        <ele>19</ele>
        <time>2012-03-14T14:56:39Z</time>
      </trkpt>
      <trkpt lat="47.60079" lon="-3.12082">
        <ele>18</ele>
        <time>2012-03-14T14:56:43Z</time>
      </trkpt>
      <trkpt lat="47.60095" lon="-3.12103">
        <ele>19</ele>
        <time>2012-03-14T14:56:48Z</time>
      </trkpt>
      <trkpt lat="47.60104" lon="-3.12113">
        <ele>20</ele>
        <time>2012-03-14T14:56:51Z</time>
      </trkpt>
      <trkpt lat="47.60109" lon="-3.12119">
        <ele>20</ele>
        <time>2012-03-14T14:56:53Z</time>
      </trkpt>
      <trkpt lat="47.60131" lon="-3.12151">
        <ele>17</ele>
        <time>2012-03-14T14:57:01Z</time>
      </trkpt>
      <trkpt lat="47.6014" lon="-3.12171">
        <ele>17</ele>
        <time>2012-03-14T14:57:06Z</time>
      </trkpt>
      <trkpt lat="47.60145" lon="-3.12184">
        <ele>14</ele>
        <time>2012-03-14T14:57:09Z</time>
      </trkpt>
      <trkpt lat="47.60157" lon="-3.12208">
        <ele>13</ele>
        <time>2012-03-14T14:57:15Z</time>
      </trkpt>
      <trkpt lat="47.60163" lon="-3.1222">
        <ele>10</ele>
        <time>2012-03-14T14:57:18Z</time>
      </trkpt>
      <trkpt lat="47.60173" lon="-3.12248">
        <ele>14</ele>
        <time>2012-03-14T14:57:25Z</time>
      </trkpt>
      <trkpt lat="47.60184" lon="-3.12269">
        <ele>13</ele>
        <time>2012-03-14T14:57:30Z</time>
      </trkpt>
      <trkpt lat="47.60188" lon="-3.12275">
        <ele>13</ele>
        <time>2012-03-14T14:57:32Z</time>
      </trkpt>
      <trkpt lat="47.60192" lon="-3.12277">
        <ele>15</ele>
        <time>2012-03-14T14:57:38Z</time>
      </trkpt>
      <trkpt lat="47.60197" lon="-3.12277">
        <ele>12</ele>
        <time>2012-03-14T14:59:03Z</time>
      </trkpt>
      <trkpt lat="47.60193" lon="-3.12293">
        <ele>16</ele>
        <time>2012-03-14T14:59:20Z</time>
      </trkpt>
      <trkpt lat="47.60192" lon="-3.12299">
        <ele>20</ele>
        <time>2012-03-14T14:59:22Z</time>
      </trkpt>
      <trkpt lat="47.60191" lon="-3.12305">
        <ele>16</ele>
        <time>2012-03-14T14:59:24Z</time>
      </trkpt>
      <trkpt lat="47.60192" lon="-3.12313">
        <ele>13</ele>
        <time>2012-03-14T14:59:26Z</time>
      </trkpt>
      <trkpt lat="47.60192" lon="-3.12328">
        <ele>11</ele>
        <time>2012-03-14T14:59:30Z</time>
      </trkpt>
      <trkpt lat="47.60193" lon="-3.12348">
        <ele>14</ele>
        <time>2012-03-14T14:59:35Z</time>
      </trkpt>
      <trkpt lat="47.60193" lon="-3.12356">
        <ele>11</ele>
        <time>2012-03-14T14:59:37Z</time>
      </trkpt>
      <trkpt lat="47.60193" lon="-3.12373">
        <ele>16</ele>
        <time>2012-03-14T14:59:41Z</time>
      </trkpt>
      <trkpt lat="47.60192" lon="-3.1238">
        <ele>12</ele>
        <time>2012-03-14T14:59:43Z</time>
      </trkpt>
      <trkpt lat="47.60193" lon="-3.12387">
        <ele>13</ele>
        <time>2012-03-14T14:59:45Z</time>
      </trkpt>
      <trkpt lat="47.60193" lon="-3.12396">
        <ele>9</ele>
        <time>2012-03-14T14:59:48Z</time>
      </trkpt>
      <trkpt lat="47.6019" lon="-3.12415">
        <ele>13</ele>
        <time>2012-03-14T14:59:53Z</time>
      </trkpt>
      <trkpt lat="47.60189" lon="-3.12423">
        <ele>14</ele>
        <time>2012-03-14T14:59:55Z</time>
      </trkpt>
      <trkpt lat="47.60188" lon="-3.12431">
        <ele>13</ele>
        <time>2012-03-14T14:59:57Z</time>
      </trkpt>
      <trkpt lat="47.60185" lon="-3.12448">
        <ele>9</ele>
        <time>2012-03-14T15:00:01Z</time>
      </trkpt>
      <trkpt lat="47.60184" lon="-3.12457">
        <ele>10</ele>
        <time>2012-03-14T15:00:03Z</time>
      </trkpt>
      <trkpt lat="47.60183" lon="-3.12467">
        <ele>12</ele>
        <time>2012-03-14T15:00:05Z</time>
      </trkpt>
      <trkpt lat="47.60181" lon="-3.12482">
        <ele>13</ele>
        <time>2012-03-14T15:00:09Z</time>
      </trkpt>
      <trkpt lat="47.60178" lon="-3.12505">
        <ele>9</ele>
        <time>2012-03-14T15:00:13Z</time>
      </trkpt>
      <trkpt lat="47.60178" lon="-3.12522">
        <ele>14</ele>
        <time>2012-03-14T15:00:18Z</time>
      </trkpt>
      <trkpt lat="47.60179" lon="-3.12536">
        <ele>8</ele>
        <time>2012-03-14T15:00:22Z</time>
      </trkpt>
      <trkpt lat="47.60179" lon="-3.12543">
        <ele>8</ele>
        <time>2012-03-14T15:00:24Z</time>
      </trkpt>
      <trkpt lat="47.60178" lon="-3.12562">
        <ele>7</ele>
        <time>2012-03-14T15:00:28Z</time>
      </trkpt>
      <trkpt lat="47.60177" lon="-3.12574">
        <ele>9</ele>
        <time>2012-03-14T15:00:30Z</time>
      </trkpt>
      <trkpt lat="47.60176" lon="-3.12586">
        <ele>9</ele>
        <time>2012-03-14T15:00:32Z</time>
      </trkpt>
      <trkpt lat="47.60176" lon="-3.12603">
        <ele>9</ele>
        <time>2012-03-14T15:00:35Z</time>
      </trkpt>
      <trkpt lat="47.60175" lon="-3.12621">
        <ele>10</ele>
        <time>2012-03-14T15:00:38Z</time>
      </trkpt>
      <trkpt lat="47.60174" lon="-3.12639">
        <ele>10</ele>
        <time>2012-03-14T15:00:41Z</time>
      </trkpt>
      <trkpt lat="47.60173" lon="-3.12656">
        <ele>17</ele>
        <time>2012-03-14T15:00:44Z</time>
      </trkpt>
      <trkpt lat="47.60172" lon="-3.12674">
        <ele>19</ele>
        <time>2012-03-14T15:00:47Z</time>
      </trkpt>
      <trkpt lat="47.60168" lon="-3.12708">
        <ele>14</ele>
        <time>2012-03-14T15:00:53Z</time>
      </trkpt>
      <trkpt lat="47.60169" lon="-3.12727">
        <ele>15</ele>
        <time>2012-03-14T15:00:56Z</time>
      </trkpt>
      <trkpt lat="47.60169" lon="-3.12745">
        <ele>9</ele>
        <time>2012-03-14T15:00:59Z</time>
      </trkpt>
      <trkpt lat="47.60169" lon="-3.12794">
        <ele>14</ele>
        <time>2012-03-14T15:01:06Z</time>
      </trkpt>
      <trkpt lat="47.60168" lon="-3.12808">
        <ele>12</ele>
        <time>2012-03-14T15:01:08Z</time>
      </trkpt>
      <trkpt lat="47.60167" lon="-3.12821">
        <ele>12</ele>
        <time>2012-03-14T15:01:10Z</time>
      </trkpt>
      <trkpt lat="47.60164" lon="-3.12838">
        <ele>13</ele>
        <time>2012-03-14T15:01:13Z</time>
      </trkpt>
      <trkpt lat="47.60158" lon="-3.12895">
        <ele>2</ele>
        <time>2012-03-14T15:01:21Z</time>
      </trkpt>
      <trkpt lat="47.60158" lon="-3.1294">
        <ele>12</ele>
        <time>2012-03-14T15:01:30Z</time>
      </trkpt>
      <trkpt lat="47.60148" lon="-3.12975">
        <ele>4</ele>
        <time>2012-03-14T15:01:37Z</time>
      </trkpt>
      <trkpt lat="47.60141" lon="-3.12986">
        <ele>7</ele>
        <time>2012-03-14T15:01:41Z</time>
      </trkpt>
      <trkpt lat="47.60132" lon="-3.12994">
        <ele>2</ele>
        <time>2012-03-14T15:01:47Z</time>
      </trkpt>
      <trkpt lat="47.60135" lon="-3.13001">
        <ele>8</ele>
        <time>2012-03-14T15:02:41Z</time>
      </trkpt>
      <trkpt lat="47.60138" lon="-3.13007">
        <ele>5</ele>
        <time>2012-03-14T15:02:43Z</time>
      </trkpt>
      <trkpt lat="47.60141" lon="-3.13021">
        <ele>6</ele>
        <time>2012-03-14T15:02:47Z</time>
      </trkpt>
      <trkpt lat="47.60143" lon="-3.13034">
        <ele>6</ele>
        <time>2012-03-14T15:02:50Z</time>
      </trkpt>
      <trkpt lat="47.60144" lon="-3.13084">
        <ele>15</ele>
        <time>2012-03-14T15:02:59Z</time>
      </trkpt>
      <trkpt lat="47.60152" lon="-3.13108">
        <ele>8</ele>
        <time>2012-03-14T15:03:09Z</time>
      </trkpt>
      <trkpt lat="47.60154" lon="-3.13111">
        <ele>12.4</ele>
        <time>2012-03-14T15:03:19Z</time>
      </trkpt>
      <trkpt lat="47.60163" lon="-3.13121">
        <ele>7</ele>
        <time>2012-03-14T15:03:34Z</time>
      </trkpt>
      <trkpt lat="47.60165" lon="-3.13129">
        <ele>5</ele>
        <time>2012-03-14T15:03:39Z</time>
      </trkpt>
      <trkpt lat="47.60166" lon="-3.13136">
        <ele>4</ele>
        <time>2012-03-14T15:03:43Z</time>
      </trkpt>
      <trkpt lat="47.6017" lon="-3.13142">
        <ele>5</ele>
        <time>2012-03-14T15:03:49Z</time>
      </trkpt>
      <trkpt lat="47.60176" lon="-3.13143">
        <ele>3</ele>
        <time>2012-03-14T15:03:53Z</time>
      </trkpt>
      <trkpt lat="47.60181" lon="-3.13144">
        <ele>3</ele>
        <time>2012-03-14T15:03:56Z</time>
      </trkpt>
      <trkpt lat="47.60186" lon="-3.13145">
        <ele>3</ele>
        <time>2012-03-14T15:04:00Z</time>
      </trkpt>
      <trkpt lat="47.60191" lon="-3.13147">
        <ele>3</ele>
        <time>2012-03-14T15:04:05Z</time>
      </trkpt>
      <trkpt lat="47.60201" lon="-3.13154">
        <ele>6</ele>
        <time>2012-03-14T15:04:11Z</time>
      </trkpt>
      <trkpt lat="47.60206" lon="-3.13157">
        <ele>3</ele>
        <time>2012-03-14T15:04:14Z</time>
      </trkpt>
      <trkpt lat="47.60211" lon="-3.13159">
        <ele>4</ele>
        <time>2012-03-14T15:04:17Z</time>
      </trkpt>
      <trkpt lat="47.60216" lon="-3.13162">
        <ele>3</ele>
        <time>2012-03-14T15:04:20Z</time>
      </trkpt>
      <trkpt lat="47.60222" lon="-3.13164">
        <ele>3</ele>
        <time>2012-03-14T15:04:23Z</time>
      </trkpt>
      <trkpt lat="47.60228" lon="-3.13167">
        <ele>4</ele>
        <time>2012-03-14T15:04:26Z</time>
      </trkpt>
      <trkpt lat="47.60233" lon="-3.13168">
        <ele>4</ele>
        <time>2012-03-14T15:04:28Z</time>
      </trkpt>
      <trkpt lat="47.60238" lon="-3.13169">
        <ele>4</ele>
        <time>2012-03-14T15:04:30Z</time>
      </trkpt>
      <trkpt lat="47.60243" lon="-3.1317">
        <ele>6</ele>
        <time>2012-03-14T15:04:32Z</time>
      </trkpt>
      <trkpt lat="47.60248" lon="-3.1317">
        <ele>5</ele>
        <time>2012-03-14T15:04:34Z</time>
      </trkpt>
      <trkpt lat="47.60255" lon="-3.13172">
        <ele>7</ele>
        <time>2012-03-14T15:04:38Z</time>
      </trkpt>
      <trkpt lat="47.60258" lon="-3.13178">
        <ele>10</ele>
        <time>2012-03-14T15:04:41Z</time>
      </trkpt>
      <trkpt lat="47.60266" lon="-3.13188">
        <ele>11</ele>
        <time>2012-03-14T15:04:44Z</time>
      </trkpt>
      <trkpt lat="47.60272" lon="-3.13193">
        <ele>9</ele>
        <time>2012-03-14T15:04:46Z</time>
      </trkpt>
      <trkpt lat="47.60279" lon="-3.13199">
        <ele>10</ele>
        <time>2012-03-14T15:04:48Z</time>
      </trkpt>
      <trkpt lat="47.60284" lon="-3.13202">
        <ele>7</ele>
        <time>2012-03-14T15:04:50Z</time>
      </trkpt>
      <trkpt lat="47.60289" lon="-3.13206">
        <ele>7</ele>
        <time>2012-03-14T15:04:52Z</time>
      </trkpt>
      <trkpt lat="47.60294" lon="-3.13209">
        <ele>6</ele>
        <time>2012-03-14T15:04:54Z</time>
      </trkpt>
      <trkpt lat="47.603" lon="-3.13211">
        <ele>7</ele>
        <time>2012-03-14T15:04:56Z</time>
      </trkpt>
      <trkpt lat="47.60311" lon="-3.13213">
        <ele>4</ele>
        <time>2012-03-14T15:05:01Z</time>
      </trkpt>
      <trkpt lat="47.60323" lon="-3.13215">
        <ele>4</ele>
        <time>2012-03-14T15:05:05Z</time>
      </trkpt>
      <trkpt lat="47.60332" lon="-3.13216">
        <ele>4</ele>
        <time>2012-03-14T15:05:08Z</time>
      </trkpt>
      <trkpt lat="47.60338" lon="-3.13217">
        <ele>10.5</ele>
        <time>2012-03-14T15:05:10Z</time>
      </trkpt>
      <trkpt lat="47.6035" lon="-3.13219">
        <ele>1</ele>
        <time>2012-03-14T15:05:14Z</time>
      </trkpt>
      <trkpt lat="47.6036" lon="-3.13221">
        <ele>11</ele>
        <time>2012-03-14T15:05:17Z</time>
      </trkpt>
      <trkpt lat="47.60377" lon="-3.13233">
        <ele>10</ele>
        <time>2012-03-14T15:05:24Z</time>
      </trkpt>
      <trkpt lat="47.60387" lon="-3.13239">
        <ele>3</ele>
        <time>2012-03-14T15:05:28Z</time>
      </trkpt>
      <trkpt lat="47.60392" lon="-3.13245">
        <ele>3</ele>
        <time>2012-03-14T15:05:32Z</time>
      </trkpt>
      <trkpt lat="47.60414" lon="-3.13268">
        <ele>9.1</ele>
        <time>2012-03-14T15:05:44Z</time>
      </trkpt>
      <trkpt lat="47.60418" lon="-3.13274">
        <ele>9.2</ele>
        <time>2012-03-14T15:05:47Z</time>
      </trkpt>
      <trkpt lat="47.60424" lon="-3.13278">
        <ele>1</ele>
        <time>2012-03-14T15:05:50Z</time>
      </trkpt>
      <trkpt lat="47.60429" lon="-3.13283">
        <ele>8.6</ele>
        <time>2012-03-14T15:05:52Z</time>
      </trkpt>
      <trkpt lat="47.60438" lon="-3.13292">
        <ele>7.6</ele>
        <time>2012-03-14T15:05:56Z</time>
      </trkpt>
      <trkpt lat="47.60442" lon="-3.13298">
        <ele>2</ele>
        <time>2012-03-14T15:05:59Z</time>
      </trkpt>
      <trkpt lat="47.60447" lon="-3.13305">
        <ele>6.4</ele>
        <time>2012-03-14T15:06:02Z</time>
      </trkpt>
      <trkpt lat="47.60469" lon="-3.13412">
        <ele>3.9</ele>
        <time>2012-03-14T15:06:33Z</time>
      </trkpt>
      <trkpt lat="47.6047" lon="-3.13445">
        <ele>3.9</ele>
        <time>2012-03-14T15:06:44Z</time>
      </trkpt>
      <trkpt lat="47.60473" lon="-3.13448">
        <ele>2</ele>
        <time>2012-03-14T15:07:02Z</time>
      </trkpt>
      <trkpt lat="47.60477" lon="-3.1345">
        <ele>4.7</ele>
        <time>2012-03-14T15:10:59Z</time>
      </trkpt>
      <trkpt lat="47.60479" lon="-3.13465">
        <ele>3</ele>
        <time>2012-03-14T15:11:21Z</time>
      </trkpt>
      <trkpt lat="47.60482" lon="-3.13478">
        <ele>1</ele>
        <time>2012-03-14T15:11:25Z</time>
      </trkpt>
      <trkpt lat="47.60481" lon="-3.13486">
        <ele>4.8</ele>
        <time>2012-03-14T15:11:28Z</time>
      </trkpt>
      <trkpt lat="47.60482" lon="-3.13489">
        <ele>4.7</ele>
        <time>2012-03-14T15:12:17Z</time>
      </trkpt>
      <trkpt lat="47.60473" lon="-3.13499">
        <ele>4</ele>
        <time>2012-03-14T15:12:24Z</time>
      </trkpt>
      <trkpt lat="47.60403" lon="-3.13572">
        <ele>3.6</ele>
        <time>2012-03-14T15:12:56Z</time>
      </trkpt>
      <trkpt lat="47.60355" lon="-3.13644">
        <ele>3.2</ele>
        <time>2012-03-14T15:13:20Z</time>
      </trkpt>
      <trkpt lat="47.60351" lon="-3.13651">
        <ele>2</ele>
        <time>2012-03-14T15:13:22Z</time>
      </trkpt>
      <trkpt lat="47.60348" lon="-3.13659">
        <ele>1</ele>
        <time>2012-03-14T15:13:24Z</time>
      </trkpt>
      <trkpt lat="47.60347" lon="-3.13666">
        <ele>4</ele>
        <time>2012-03-14T15:13:26Z</time>
      </trkpt>
      <trkpt lat="47.60348" lon="-3.13674">
        <ele>4</ele>
        <time>2012-03-14T15:13:28Z</time>
      </trkpt>
      <trkpt lat="47.60348" lon="-3.13742">
        <ele>4.9</ele>
        <time>2012-03-14T15:13:48Z</time>
      </trkpt>
      <trkpt lat="47.60347" lon="-3.13751">
        <ele>2</ele>
        <time>2012-03-14T15:13:50Z</time>
      </trkpt>
      <trkpt lat="47.60347" lon="-3.13759">
        <ele>5.2</ele>
        <time>2012-03-14T15:13:52Z</time>
      </trkpt>
      <trkpt lat="47.60347" lon="-3.13797">
        <ele>5.8</ele>
        <time>2012-03-14T15:14:01Z</time>
      </trkpt>
      <trkpt lat="47.60346" lon="-3.13811">
        <ele>2</ele>
        <time>2012-03-14T15:14:05Z</time>
      </trkpt>
      <trkpt lat="47.60347" lon="-3.13819">
        <ele>2</ele>
        <time>2012-03-14T15:14:08Z</time>
      </trkpt>
      <trkpt lat="47.60345" lon="-3.13822">
        <ele>6</ele>
        <time>2012-03-14T15:14:30Z</time>
      </trkpt>
      <trkpt lat="47.60357" lon="-3.13825">
        <ele>2</ele>
        <time>2012-03-14T15:15:23Z</time>
      </trkpt>
      <trkpt lat="47.60361" lon="-3.13828">
        <ele>2</ele>
        <time>2012-03-14T15:15:25Z</time>
      </trkpt>
      <trkpt lat="47.60367" lon="-3.1383">
        <ele>2</ele>
        <time>2012-03-14T15:15:27Z</time>
      </trkpt>
      <trkpt lat="47.60373" lon="-3.13832">
        <ele>2</ele>
        <time>2012-03-14T15:15:29Z</time>
      </trkpt>
      <trkpt lat="47.60378" lon="-3.13833">
        <ele>4</ele>
        <time>2012-03-14T15:15:31Z</time>
      </trkpt>
      <trkpt lat="47.60392" lon="-3.13836">
        <ele>3</ele>
        <time>2012-03-14T15:15:36Z</time>
      </trkpt>
      <trkpt lat="47.60412" lon="-3.1384">
        <ele>7</ele>
        <time>2012-03-14T15:15:42Z</time>
      </trkpt>
      <trkpt lat="47.60432" lon="-3.13845">
        <ele>5</ele>
        <time>2012-03-14T15:15:49Z</time>
      </trkpt>
      <trkpt lat="47.60454" lon="-3.1385">
        <ele>2</ele>
        <time>2012-03-14T15:15:55Z</time>
      </trkpt>
      <trkpt lat="47.60464" lon="-3.13852">
        <ele>4</ele>
        <time>2012-03-14T15:15:58Z</time>
      </trkpt>
      <trkpt lat="47.60475" lon="-3.13855">
        <ele>3</ele>
        <time>2012-03-14T15:16:01Z</time>
      </trkpt>
      <trkpt lat="47.60481" lon="-3.13857">
        <ele>7</ele>
        <time>2012-03-14T15:16:03Z</time>
      </trkpt>
      <trkpt lat="47.60486" lon="-3.13858">
        <ele>7</ele>
        <time>2012-03-14T15:16:05Z</time>
      </trkpt>
      <trkpt lat="47.60501" lon="-3.13858">
        <ele>7</ele>
        <time>2012-03-14T15:16:10Z</time>
      </trkpt>
      <trkpt lat="47.60512" lon="-3.1386">
        <ele>1</ele>
        <time>2012-03-14T15:16:13Z</time>
      </trkpt>
      <trkpt lat="47.60519" lon="-3.13861">
        <ele>7.7</ele>
        <time>2012-03-14T15:16:15Z</time>
      </trkpt>
      <trkpt lat="47.60525" lon="-3.13862">
        <ele>2</ele>
        <time>2012-03-14T15:16:17Z</time>
      </trkpt>
      <trkpt lat="47.60537" lon="-3.13863">
        <ele>8</ele>
        <time>2012-03-14T15:16:20Z</time>
      </trkpt>
      <trkpt lat="47.60568" lon="-3.1386">
        <ele>8</ele>
        <time>2012-03-14T15:16:29Z</time>
      </trkpt>
      <trkpt lat="47.60575" lon="-3.13858">
        <ele>8</ele>
        <time>2012-03-14T15:16:31Z</time>
      </trkpt>
      <trkpt lat="47.60582" lon="-3.13857">
        <ele>2</ele>
        <time>2012-03-14T15:16:33Z</time>
      </trkpt>
      <trkpt lat="47.606" lon="-3.13853">
        <ele>1</ele>
        <time>2012-03-14T15:16:39Z</time>
      </trkpt>
      <trkpt lat="47.60605" lon="-3.13852">
        <ele>3</ele>
        <time>2012-03-14T15:16:41Z</time>
      </trkpt>
      <trkpt lat="47.60617" lon="-3.13852">
        <ele>8.7</ele>
        <time>2012-03-14T15:16:45Z</time>
      </trkpt>
      <trkpt lat="47.60627" lon="-3.13851">
        <ele>8.6</ele>
        <time>2012-03-14T15:16:48Z</time>
      </trkpt>
      <trkpt lat="47.60649" lon="-3.13841">
        <ele>4</ele>
        <time>2012-03-14T15:16:55Z</time>
      </trkpt>
      <trkpt lat="47.60658" lon="-3.13836">
        <ele>8.8</ele>
        <time>2012-03-14T15:16:58Z</time>
      </trkpt>
      <trkpt lat="47.60664" lon="-3.13837">
        <ele>9</ele>
        <time>2012-03-14T15:17:01Z</time>
      </trkpt>
      <trkpt lat="47.60668" lon="-3.13839">
        <ele>1</ele>
        <time>2012-03-14T15:17:03Z</time>
      </trkpt>
      <trkpt lat="47.60673" lon="-3.1384">
        <ele>1</ele>
        <time>2012-03-14T15:17:05Z</time>
      </trkpt>
      <trkpt lat="47.60684" lon="-3.13847">
        <ele>2</ele>
        <time>2012-03-14T15:17:09Z</time>
      </trkpt>
      <trkpt lat="47.60689" lon="-3.13853">
        <ele>6</ele>
        <time>2012-03-14T15:17:11Z</time>
      </trkpt>
      <trkpt lat="47.60698" lon="-3.13869">
        <ele>2</ele>
        <time>2012-03-14T15:17:15Z</time>
      </trkpt>
      <trkpt lat="47.60703" lon="-3.13875">
        <ele>5</ele>
        <time>2012-03-14T15:17:17Z</time>
      </trkpt>
      <trkpt lat="47.60708" lon="-3.13876">
        <ele>5</ele>
        <time>2012-03-14T15:17:19Z</time>
      </trkpt>
      <trkpt lat="47.60719" lon="-3.13877">
        <ele>3</ele>
        <time>2012-03-14T15:17:23Z</time>
      </trkpt>
      <trkpt lat="47.60729" lon="-3.13878">
        <ele>4</ele>
        <time>2012-03-14T15:17:27Z</time>
      </trkpt>
      <trkpt lat="47.60737" lon="-3.13881">
        <ele>2</ele>
        <time>2012-03-14T15:17:29Z</time>
      </trkpt>
      <trkpt lat="47.60747" lon="-3.13892">
        <ele>2</ele>
        <time>2012-03-14T15:17:33Z</time>
      </trkpt>
      <trkpt lat="47.60765" lon="-3.13907">
        <ele>5</ele>
        <time>2012-03-14T15:17:39Z</time>
      </trkpt>
      <trkpt lat="47.60778" lon="-3.13909">
        <ele>4</ele>
        <time>2012-03-14T15:17:43Z</time>
      </trkpt>
      <trkpt lat="47.60799" lon="-3.13912">
        <ele>10</ele>
        <time>2012-03-14T15:17:51Z</time>
      </trkpt>
      <trkpt lat="47.60805" lon="-3.13913">
        <ele>9</ele>
        <time>2012-03-14T15:17:53Z</time>
      </trkpt>
      <trkpt lat="47.60822" lon="-3.13919">
        <ele>10</ele>
        <time>2012-03-14T15:17:59Z</time>
      </trkpt>
      <trkpt lat="47.60828" lon="-3.13922">
        <ele>8</ele>
        <time>2012-03-14T15:18:01Z</time>
      </trkpt>
      <trkpt lat="47.60837" lon="-3.1393">
        <ele>7</ele>
        <time>2012-03-14T15:18:04Z</time>
      </trkpt>
      <trkpt lat="47.60857" lon="-3.1395">
        <ele>12</ele>
        <time>2012-03-14T15:18:11Z</time>
      </trkpt>
      <trkpt lat="47.60868" lon="-3.13952">
        <ele>8</ele>
        <time>2012-03-14T15:18:15Z</time>
      </trkpt>
      <trkpt lat="47.60874" lon="-3.1395">
        <ele>9</ele>
        <time>2012-03-14T15:18:17Z</time>
      </trkpt>
      <trkpt lat="47.60881" lon="-3.13949">
        <ele>9</ele>
        <time>2012-03-14T15:18:19Z</time>
      </trkpt>
      <trkpt lat="47.60887" lon="-3.13947">
        <ele>9</ele>
        <time>2012-03-14T15:18:21Z</time>
      </trkpt>
      <trkpt lat="47.60893" lon="-3.13944">
        <ele>9</ele>
        <time>2012-03-14T15:18:23Z</time>
      </trkpt>
      <trkpt lat="47.609" lon="-3.13941">
        <ele>11</ele>
        <time>2012-03-14T15:18:25Z</time>
      </trkpt>
      <trkpt lat="47.60915" lon="-3.13937">
        <ele>7</ele>
        <time>2012-03-14T15:18:29Z</time>
      </trkpt>
      <trkpt lat="47.60922" lon="-3.1394">
        <ele>10</ele>
        <time>2012-03-14T15:18:31Z</time>
      </trkpt>
      <trkpt lat="47.60932" lon="-3.13955">
        <ele>5</ele>
        <time>2012-03-14T15:18:35Z</time>
      </trkpt>
      <trkpt lat="47.60936" lon="-3.13965">
        <ele>6</ele>
        <time>2012-03-14T15:18:37Z</time>
      </trkpt>
      <trkpt lat="47.6095" lon="-3.13992">
        <ele>12</ele>
        <time>2012-03-14T15:18:43Z</time>
      </trkpt>
      <trkpt lat="47.60957" lon="-3.14005">
        <ele>12</ele>
        <time>2012-03-14T15:18:46Z</time>
      </trkpt>
      <trkpt lat="47.60962" lon="-3.14014">
        <ele>10</ele>
        <time>2012-03-14T15:18:48Z</time>
      </trkpt>
      <trkpt lat="47.60966" lon="-3.14022">
        <ele>9</ele>
        <time>2012-03-14T15:18:50Z</time>
      </trkpt>
      <trkpt lat="47.6097" lon="-3.14031">
        <ele>10</ele>
        <time>2012-03-14T15:18:52Z</time>
      </trkpt>
      <trkpt lat="47.60976" lon="-3.14045">
        <ele>7</ele>
        <time>2012-03-14T15:18:55Z</time>
      </trkpt>
      <trkpt lat="47.60983" lon="-3.14058">
        <ele>8</ele>
        <time>2012-03-14T15:18:58Z</time>
      </trkpt>
      <trkpt lat="47.6099" lon="-3.1407">
        <ele>13</ele>
        <time>2012-03-14T15:19:01Z</time>
      </trkpt>
      <trkpt lat="47.60997" lon="-3.14086">
        <ele>13</ele>
        <time>2012-03-14T15:19:04Z</time>
      </trkpt>
      <trkpt lat="47.61007" lon="-3.14117">
        <ele>9</ele>
        <time>2012-03-14T15:19:10Z</time>
      </trkpt>
      <trkpt lat="47.61011" lon="-3.14132">
        <ele>8</ele>
        <time>2012-03-14T15:19:13Z</time>
      </trkpt>
      <trkpt lat="47.61018" lon="-3.14148">
        <ele>1</ele>
        <time>2012-03-14T15:19:17Z</time>
      </trkpt>
      <trkpt lat="47.61024" lon="-3.14163">
        <ele>5</ele>
        <time>2012-03-14T15:19:20Z</time>
      </trkpt>
      <trkpt lat="47.61031" lon="-3.14179">
        <ele>4</ele>
        <time>2012-03-14T15:19:23Z</time>
      </trkpt>
      <trkpt lat="47.61039" lon="-3.14197">
        <ele>6</ele>
        <time>2012-03-14T15:19:27Z</time>
      </trkpt>
      <trkpt lat="47.61048" lon="-3.14218">
        <ele>11</ele>
        <time>2012-03-14T15:19:31Z</time>
      </trkpt>
      <trkpt lat="47.61053" lon="-3.1423">
        <ele>7</ele>
        <time>2012-03-14T15:19:33Z</time>
      </trkpt>
      <trkpt lat="47.61058" lon="-3.14239">
        <ele>6</ele>
        <time>2012-03-14T15:19:35Z</time>
      </trkpt>
      <trkpt lat="47.61064" lon="-3.14255">
        <ele>3</ele>
        <time>2012-03-14T15:19:38Z</time>
      </trkpt>
      <trkpt lat="47.61069" lon="-3.14266">
        <ele>3</ele>
        <time>2012-03-14T15:19:40Z</time>
      </trkpt>
      <trkpt lat="47.61074" lon="-3.14281">
        <ele>2</ele>
        <time>2012-03-14T15:19:43Z</time>
      </trkpt>
      <trkpt lat="47.61092" lon="-3.1433">
        <ele>9</ele>
        <time>2012-03-14T15:19:52Z</time>
      </trkpt>
      <trkpt lat="47.61096" lon="-3.14347">
        <ele>5</ele>
        <time>2012-03-14T15:19:55Z</time>
      </trkpt>
      <trkpt lat="47.61103" lon="-3.14365">
        <ele>3</ele>
        <time>2012-03-14T15:19:58Z</time>
      </trkpt>
      <trkpt lat="47.61109" lon="-3.1438">
        <ele>6</ele>
        <time>2012-03-14T15:20:01Z</time>
      </trkpt>
      <trkpt lat="47.6112" lon="-3.14413">
        <ele>10.4</ele>
        <time>2012-03-14T15:20:07Z</time>
      </trkpt>
      <trkpt lat="47.61125" lon="-3.14426">
        <ele>10.5</ele>
        <time>2012-03-14T15:20:10Z</time>
      </trkpt>
      <trkpt lat="47.61137" lon="-3.14451">
        <ele>8</ele>
        <time>2012-03-14T15:20:15Z</time>
      </trkpt>
      <trkpt lat="47.61143" lon="-3.14463">
        <ele>4</ele>
        <time>2012-03-14T15:20:17Z</time>
      </trkpt>
      <trkpt lat="47.61146" lon="-3.14469">
        <ele>4</ele>
        <time>2012-03-14T15:20:18Z</time>
      </trkpt>
      <trkpt lat="47.61152" lon="-3.1448">
        <ele>9</ele>
        <time>2012-03-14T15:20:20Z</time>
      </trkpt>
      <trkpt lat="47.61159" lon="-3.14491">
        <ele>6</ele>
        <time>2012-03-14T15:20:22Z</time>
      </trkpt>
      <trkpt lat="47.61165" lon="-3.14502">
        <ele>6</ele>
        <time>2012-03-14T15:20:24Z</time>
      </trkpt>
      <trkpt lat="47.61168" lon="-3.14507">
        <ele>6</ele>
        <time>2012-03-14T15:20:25Z</time>
      </trkpt>
      <trkpt lat="47.61171" lon="-3.14512">
        <ele>6</ele>
        <time>2012-03-14T15:20:26Z</time>
      </trkpt>
      <trkpt lat="47.61185" lon="-3.14532">
        <ele>5</ele>
        <time>2012-03-14T15:20:31Z</time>
      </trkpt>
      <trkpt lat="47.61205" lon="-3.1457">
        <ele>10</ele>
        <time>2012-03-14T15:20:40Z</time>
      </trkpt>
      <trkpt lat="47.6121" lon="-3.14582">
        <ele>10</ele>
        <time>2012-03-14T15:20:42Z</time>
      </trkpt>
      <trkpt lat="47.61216" lon="-3.14593">
        <ele>10</ele>
        <time>2012-03-14T15:20:44Z</time>
      </trkpt>
      <trkpt lat="47.61221" lon="-3.14604">
        <ele>10</ele>
        <time>2012-03-14T15:20:46Z</time>
      </trkpt>
      <trkpt lat="47.61242" lon="-3.14664">
        <ele>10.7</ele>
        <time>2012-03-14T15:20:59Z</time>
      </trkpt>
      <trkpt lat="47.61244" lon="-3.14673">
        <ele>3</ele>
        <time>2012-03-14T15:21:01Z</time>
      </trkpt>
      <trkpt lat="47.61247" lon="-3.1468">
        <ele>4</ele>
        <time>2012-03-14T15:21:03Z</time>
      </trkpt>
      <trkpt lat="47.61249" lon="-3.14686">
        <ele>5</ele>
        <time>2012-03-14T15:21:05Z</time>
      </trkpt>
      <trkpt lat="47.61258" lon="-3.14701">
        <ele>3</ele>
        <time>2012-03-14T15:21:10Z</time>
      </trkpt>
      <trkpt lat="47.61262" lon="-3.14708">
        <ele>3</ele>
        <time>2012-03-14T15:21:12Z</time>
      </trkpt>
      <trkpt lat="47.61266" lon="-3.14714">
        <ele>6</ele>
        <time>2012-03-14T15:21:14Z</time>
      </trkpt>
      <trkpt lat="47.61269" lon="-3.14721">
        <ele>4</ele>
        <time>2012-03-14T15:21:16Z</time>
      </trkpt>
      <trkpt lat="47.61273" lon="-3.14726">
        <ele>9</ele>
        <time>2012-03-14T15:21:18Z</time>
      </trkpt>
      <trkpt lat="47.61278" lon="-3.1473">
        <ele>4</ele>
        <time>2012-03-14T15:21:21Z</time>
      </trkpt>
      <trkpt lat="47.61283" lon="-3.14727">
        <ele>1</ele>
        <time>2012-03-14T15:21:23Z</time>
      </trkpt>
      <trkpt lat="47.61289" lon="-3.14721">
        <ele>4</ele>
        <time>2012-03-14T15:21:25Z</time>
      </trkpt>
      <trkpt lat="47.61299" lon="-3.14711">
        <ele>1</ele>
        <time>2012-03-14T15:21:28Z</time>
      </trkpt>
      <trkpt lat="47.61314" lon="-3.14698">
        <ele>6</ele>
        <time>2012-03-14T15:21:33Z</time>
      </trkpt>
      <trkpt lat="47.61325" lon="-3.14688">
        <ele>11.3</ele>
        <time>2012-03-14T15:21:37Z</time>
      </trkpt>
      <trkpt lat="47.6135" lon="-3.14669">
        <ele>11</ele>
        <time>2012-03-14T15:21:45Z</time>
      </trkpt>
      <trkpt lat="47.61359" lon="-3.14663">
        <ele>1</ele>
        <time>2012-03-14T15:21:48Z</time>
      </trkpt>
      <trkpt lat="47.61369" lon="-3.14656">
        <ele>4</ele>
        <time>2012-03-14T15:21:51Z</time>
      </trkpt>
      <trkpt lat="47.61375" lon="-3.14653">
        <ele>11</ele>
        <time>2012-03-14T15:21:53Z</time>
      </trkpt>
      <trkpt lat="47.6138" lon="-3.1465">
        <ele>4</ele>
        <time>2012-03-14T15:21:55Z</time>
      </trkpt>
      <trkpt lat="47.6139" lon="-3.14651">
        <ele>8</ele>
        <time>2012-03-14T15:21:59Z</time>
      </trkpt>
      <trkpt lat="47.61393" lon="-3.14657">
        <ele>6</ele>
        <time>2012-03-14T15:22:01Z</time>
      </trkpt>
      <trkpt lat="47.61392" lon="-3.14675">
        <ele>3</ele>
        <time>2012-03-14T15:22:05Z</time>
      </trkpt>
      <trkpt lat="47.61392" lon="-3.14684">
        <ele>6</ele>
        <time>2012-03-14T15:22:07Z</time>
      </trkpt>
      <trkpt lat="47.6139" lon="-3.14694">
        <ele>6</ele>
        <time>2012-03-14T15:22:09Z</time>
      </trkpt>
      <trkpt lat="47.61388" lon="-3.14704">
        <ele>6</ele>
        <time>2012-03-14T15:22:11Z</time>
      </trkpt>
      <trkpt lat="47.61389" lon="-3.14719">
        <ele>9</ele>
        <time>2012-03-14T15:22:14Z</time>
      </trkpt>
      <trkpt lat="47.61391" lon="-3.14735">
        <ele>5</ele>
        <time>2012-03-14T15:22:17Z</time>
      </trkpt>
      <trkpt lat="47.61392" lon="-3.14746">
        <ele>11</ele>
        <time>2012-03-14T15:22:19Z</time>
      </trkpt>
      <trkpt lat="47.61397" lon="-3.14768">
        <ele>12</ele>
        <time>2012-03-14T15:22:23Z</time>
      </trkpt>
      <trkpt lat="47.614" lon="-3.14778">
        <ele>14</ele>
        <time>2012-03-14T15:22:25Z</time>
      </trkpt>
      <trkpt lat="47.61402" lon="-3.14787">
        <ele>13</ele>
        <time>2012-03-14T15:22:27Z</time>
      </trkpt>
      <trkpt lat="47.61406" lon="-3.14798">
        <ele>13</ele>
        <time>2012-03-14T15:22:29Z</time>
      </trkpt>
      <trkpt lat="47.61409" lon="-3.1481">
        <ele>13</ele>
        <time>2012-03-14T15:22:31Z</time>
      </trkpt>
      <trkpt lat="47.61412" lon="-3.14822">
        <ele>11</ele>
        <time>2012-03-14T15:22:33Z</time>
      </trkpt>
      <trkpt lat="47.61416" lon="-3.14835">
        <ele>11</ele>
        <time>2012-03-14T15:22:36Z</time>
      </trkpt>
      <trkpt lat="47.61418" lon="-3.14845">
        <ele>9</ele>
        <time>2012-03-14T15:22:38Z</time>
      </trkpt>
      <trkpt lat="47.61421" lon="-3.14859">
        <ele>10</ele>
        <time>2012-03-14T15:22:41Z</time>
      </trkpt>
      <trkpt lat="47.61425" lon="-3.14873">
        <ele>10</ele>
        <time>2012-03-14T15:22:44Z</time>
      </trkpt>
      <trkpt lat="47.61427" lon="-3.14882">
        <ele>14</ele>
        <time>2012-03-14T15:22:46Z</time>
      </trkpt>
      <trkpt lat="47.61429" lon="-3.14891">
        <ele>11</ele>
        <time>2012-03-14T15:22:48Z</time>
      </trkpt>
      <trkpt lat="47.61433" lon="-3.14908">
        <ele>14</ele>
        <time>2012-03-14T15:22:52Z</time>
      </trkpt>
      <trkpt lat="47.61439" lon="-3.14927">
        <ele>5</ele>
        <time>2012-03-14T15:22:57Z</time>
      </trkpt>
      <trkpt lat="47.61443" lon="-3.14942">
        <ele>7</ele>
        <time>2012-03-14T15:23:00Z</time>
      </trkpt>
      <trkpt lat="47.61446" lon="-3.14957">
        <ele>6</ele>
        <time>2012-03-14T15:23:03Z</time>
      </trkpt>
      <trkpt lat="47.6145" lon="-3.14975">
        <ele>11</ele>
        <time>2012-03-14T15:23:07Z</time>
      </trkpt>
      <trkpt lat="47.61453" lon="-3.14984">
        <ele>11</ele>
        <time>2012-03-14T15:23:09Z</time>
      </trkpt>
      <trkpt lat="47.61455" lon="-3.14992">
        <ele>11</ele>
        <time>2012-03-14T15:23:11Z</time>
      </trkpt>
      <trkpt lat="47.61462" lon="-3.1502">
        <ele>18</ele>
        <time>2012-03-14T15:23:17Z</time>
      </trkpt>
      <trkpt lat="47.61465" lon="-3.15032">
        <ele>18</ele>
        <time>2012-03-14T15:23:19Z</time>
      </trkpt>
      <trkpt lat="47.61467" lon="-3.15042">
        <ele>17</ele>
        <time>2012-03-14T15:23:21Z</time>
      </trkpt>
      <trkpt lat="47.6147" lon="-3.15052">
        <ele>18</ele>
        <time>2012-03-14T15:23:23Z</time>
      </trkpt>
      <trkpt lat="47.61476" lon="-3.15082">
        <ele>14</ele>
        <time>2012-03-14T15:23:29Z</time>
      </trkpt>
      <trkpt lat="47.61478" lon="-3.15093">
        <ele>14</ele>
        <time>2012-03-14T15:23:31Z</time>
      </trkpt>
      <trkpt lat="47.6148" lon="-3.15105">
        <ele>11</ele>
        <time>2012-03-14T15:23:33Z</time>
      </trkpt>
      <trkpt lat="47.61481" lon="-3.15111">
        <ele>11</ele>
        <time>2012-03-14T15:23:34Z</time>
      </trkpt>
      <trkpt lat="47.61482" lon="-3.15122">
        <ele>13</ele>
        <time>2012-03-14T15:23:36Z</time>
      </trkpt>
      <trkpt lat="47.61484" lon="-3.15133">
        <ele>14</ele>
        <time>2012-03-14T15:23:38Z</time>
      </trkpt>
      <trkpt lat="47.61487" lon="-3.15144">
        <ele>13</ele>
        <time>2012-03-14T15:23:40Z</time>
      </trkpt>
      <trkpt lat="47.61492" lon="-3.15165">
        <ele>17</ele>
        <time>2012-03-14T15:23:44Z</time>
      </trkpt>
      <trkpt lat="47.61495" lon="-3.15186">
        <ele>11</ele>
        <time>2012-03-14T15:23:48Z</time>
      </trkpt>
      <trkpt lat="47.61498" lon="-3.15197">
        <ele>12</ele>
        <time>2012-03-14T15:23:50Z</time>
      </trkpt>
      <trkpt lat="47.615" lon="-3.15208">
        <ele>11</ele>
        <time>2012-03-14T15:23:52Z</time>
      </trkpt>
      <trkpt lat="47.61505" lon="-3.15223">
        <ele>10</ele>
        <time>2012-03-14T15:23:55Z</time>
      </trkpt>
      <trkpt lat="47.61506" lon="-3.1523">
        <ele>11</ele>
        <time>2012-03-14T15:23:56Z</time>
      </trkpt>
      <trkpt lat="47.61508" lon="-3.15237">
        <ele>11</ele>
        <time>2012-03-14T15:23:57Z</time>
      </trkpt>
      <trkpt lat="47.61511" lon="-3.15255">
        <ele>16</ele>
        <time>2012-03-14T15:24:00Z</time>
      </trkpt>
      <trkpt lat="47.61513" lon="-3.15267">
        <ele>16</ele>
        <time>2012-03-14T15:24:02Z</time>
      </trkpt>
      <trkpt lat="47.61517" lon="-3.15288">
        <ele>8</ele>
        <time>2012-03-14T15:24:06Z</time>
      </trkpt>
      <trkpt lat="47.61519" lon="-3.15297">
        <ele>9</ele>
        <time>2012-03-14T15:24:08Z</time>
      </trkpt>
      <trkpt lat="47.61521" lon="-3.15307">
        <ele>7</ele>
        <time>2012-03-14T15:24:10Z</time>
      </trkpt>
      <trkpt lat="47.61525" lon="-3.15324">
        <ele>7</ele>
        <time>2012-03-14T15:24:13Z</time>
      </trkpt>
      <trkpt lat="47.61527" lon="-3.15334">
        <ele>11</ele>
        <time>2012-03-14T15:24:15Z</time>
      </trkpt>
      <trkpt lat="47.61532" lon="-3.15359">
        <ele>6</ele>
        <time>2012-03-14T15:24:20Z</time>
      </trkpt>
      <trkpt lat="47.61534" lon="-3.1537">
        <ele>9</ele>
        <time>2012-03-14T15:24:22Z</time>
      </trkpt>
      <trkpt lat="47.61536" lon="-3.15381">
        <ele>9</ele>
        <time>2012-03-14T15:24:24Z</time>
      </trkpt>
      <trkpt lat="47.61541" lon="-3.1541">
        <ele>6</ele>
        <time>2012-03-14T15:24:29Z</time>
      </trkpt>
      <trkpt lat="47.61544" lon="-3.15426">
        <ele>6</ele>
        <time>2012-03-14T15:24:32Z</time>
      </trkpt>
      <trkpt lat="47.61547" lon="-3.15441">
        <ele>8</ele>
        <time>2012-03-14T15:24:35Z</time>
      </trkpt>
      <trkpt lat="47.61547" lon="-3.15449">
        <ele>14</ele>
        <time>2012-03-14T15:24:37Z</time>
      </trkpt>
      <trkpt lat="47.61549" lon="-3.15457">
        <ele>13</ele>
        <time>2012-03-14T15:24:39Z</time>
      </trkpt>
      <trkpt lat="47.6155" lon="-3.15465">
        <ele>16</ele>
        <time>2012-03-14T15:24:41Z</time>
      </trkpt>
      <trkpt lat="47.61552" lon="-3.15474">
        <ele>14</ele>
        <time>2012-03-14T15:24:43Z</time>
      </trkpt>
      <trkpt lat="47.61554" lon="-3.15486">
        <ele>15</ele>
        <time>2012-03-14T15:24:45Z</time>
      </trkpt>
      <trkpt lat="47.61558" lon="-3.15506">
        <ele>11</ele>
        <time>2012-03-14T15:24:49Z</time>
      </trkpt>
      <trkpt lat="47.61562" lon="-3.15522">
        <ele>13</ele>
        <time>2012-03-14T15:24:52Z</time>
      </trkpt>
      <trkpt lat="47.61566" lon="-3.1554">
        <ele>11</ele>
        <time>2012-03-14T15:24:55Z</time>
      </trkpt>
      <trkpt lat="47.61568" lon="-3.15551">
        <ele>11</ele>
        <time>2012-03-14T15:24:57Z</time>
      </trkpt>
      <trkpt lat="47.6157" lon="-3.15563">
        <ele>11</ele>
        <time>2012-03-14T15:24:59Z</time>
      </trkpt>
      <trkpt lat="47.61573" lon="-3.15576">
        <ele>12</ele>
        <time>2012-03-14T15:25:01Z</time>
      </trkpt>
      <trkpt lat="47.61575" lon="-3.15587">
        <ele>9</ele>
        <time>2012-03-14T15:25:03Z</time>
      </trkpt>
      <trkpt lat="47.61578" lon="-3.15596">
        <ele>9</ele>
        <time>2012-03-14T15:25:05Z</time>
      </trkpt>
      <trkpt lat="47.61579" lon="-3.15607">
        <ele>5</ele>
        <time>2012-03-14T15:25:07Z</time>
      </trkpt>
      <trkpt lat="47.61583" lon="-3.15629">
        <ele>12</ele>
        <time>2012-03-14T15:25:11Z</time>
      </trkpt>
      <trkpt lat="47.61591" lon="-3.15665">
        <ele>4</ele>
        <time>2012-03-14T15:25:17Z</time>
      </trkpt>
      <trkpt lat="47.61594" lon="-3.15675">
        <ele>4</ele>
        <time>2012-03-14T15:25:19Z</time>
      </trkpt>
      <trkpt lat="47.61597" lon="-3.1569">
        <ele>8</ele>
        <time>2012-03-14T15:25:22Z</time>
      </trkpt>
      <trkpt lat="47.61603" lon="-3.15721">
        <ele>10</ele>
        <time>2012-03-14T15:25:28Z</time>
      </trkpt>
      <trkpt lat="47.61606" lon="-3.15733">
        <ele>10</ele>
        <time>2012-03-14T15:25:30Z</time>
      </trkpt>
      <trkpt lat="47.61613" lon="-3.1578">
        <ele>11</ele>
        <time>2012-03-14T15:25:38Z</time>
      </trkpt>
      <trkpt lat="47.61616" lon="-3.15792">
        <ele>11</ele>
        <time>2012-03-14T15:25:40Z</time>
      </trkpt>
      <trkpt lat="47.6162" lon="-3.15815">
        <ele>6</ele>
        <time>2012-03-14T15:25:45Z</time>
      </trkpt>
      <trkpt lat="47.61624" lon="-3.15832">
        <ele>10</ele>
        <time>2012-03-14T15:25:48Z</time>
      </trkpt>
      <trkpt lat="47.6163" lon="-3.15877">
        <ele>5</ele>
        <time>2012-03-14T15:25:57Z</time>
      </trkpt>
      <trkpt lat="47.61632" lon="-3.15893">
        <ele>6</ele>
        <time>2012-03-14T15:26:00Z</time>
      </trkpt>
      <trkpt lat="47.61633" lon="-3.15911">
        <ele>11</ele>
        <time>2012-03-14T15:26:03Z</time>
      </trkpt>
      <trkpt lat="47.61633" lon="-3.15949">
        <ele>11</ele>
        <time>2012-03-14T15:26:13Z</time>
      </trkpt>
      <trkpt lat="47.61634" lon="-3.15966">
        <ele>10</ele>
        <time>2012-03-14T15:26:15Z</time>
      </trkpt>
      <trkpt lat="47.61638" lon="-3.16">
        <ele>3</ele>
        <time>2012-03-14T15:26:21Z</time>
      </trkpt>
      <trkpt lat="47.61639" lon="-3.1603">
        <ele>3</ele>
        <time>2012-03-14T15:26:27Z</time>
      </trkpt>
      <trkpt lat="47.61637" lon="-3.16057">
        <ele>13</ele>
        <time>2012-03-14T15:26:33Z</time>
      </trkpt>
      <trkpt lat="47.61636" lon="-3.16071">
        <ele>4</ele>
        <time>2012-03-14T15:26:36Z</time>
      </trkpt>
      <trkpt lat="47.61634" lon="-3.1608">
        <ele>6</ele>
        <time>2012-03-14T15:26:38Z</time>
      </trkpt>
      <trkpt lat="47.61628" lon="-3.16083">
        <ele>5</ele>
        <time>2012-03-14T15:26:41Z</time>
      </trkpt>
      <trkpt lat="47.61599" lon="-3.16117">
        <ele>14</ele>
        <time>2012-03-14T15:26:50Z</time>
      </trkpt>
      <trkpt lat="47.61593" lon="-3.16124">
        <ele>10</ele>
        <time>2012-03-14T15:26:52Z</time>
      </trkpt>
      <trkpt lat="47.61588" lon="-3.1613">
        <ele>11</ele>
        <time>2012-03-14T15:26:54Z</time>
      </trkpt>
      <trkpt lat="47.61573" lon="-3.16145">
        <ele>7</ele>
        <time>2012-03-14T15:26:59Z</time>
      </trkpt>
      <trkpt lat="47.61569" lon="-3.16151">
        <ele>9</ele>
        <time>2012-03-14T15:27:01Z</time>
      </trkpt>
      <trkpt lat="47.61567" lon="-3.16157">
        <ele>8</ele>
        <time>2012-03-14T15:27:03Z</time>
      </trkpt>
      <trkpt lat="47.61563" lon="-3.16164">
        <ele>10</ele>
        <time>2012-03-14T15:27:05Z</time>
      </trkpt>
      <trkpt lat="47.61551" lon="-3.16197">
        <ele>6</ele>
        <time>2012-03-14T15:27:15Z</time>
      </trkpt>
      <trkpt lat="47.61539" lon="-3.16231">
        <ele>7</ele>
        <time>2012-03-14T15:27:23Z</time>
      </trkpt>
      <trkpt lat="47.61536" lon="-3.1624">
        <ele>7</ele>
        <time>2012-03-14T15:27:25Z</time>
      </trkpt>
      <trkpt lat="47.61534" lon="-3.16248">
        <ele>10</ele>
        <time>2012-03-14T15:27:27Z</time>
      </trkpt>
      <trkpt lat="47.61533" lon="-3.16257">
        <ele>6</ele>
        <time>2012-03-14T15:27:29Z</time>
      </trkpt>
      <trkpt lat="47.61531" lon="-3.16265">
        <ele>6</ele>
        <time>2012-03-14T15:27:31Z</time>
      </trkpt>
      <trkpt lat="47.6153" lon="-3.16274">
        <ele>10</ele>
        <time>2012-03-14T15:27:33Z</time>
      </trkpt>
      <trkpt lat="47.6153" lon="-3.16284">
        <ele>7</ele>
        <time>2012-03-14T15:27:35Z</time>
      </trkpt>
      <trkpt lat="47.61527" lon="-3.16307">
        <ele>11</ele>
        <time>2012-03-14T15:27:39Z</time>
      </trkpt>
      <trkpt lat="47.61525" lon="-3.16319">
        <ele>10</ele>
        <time>2012-03-14T15:27:41Z</time>
      </trkpt>
      <trkpt lat="47.61524" lon="-3.16326">
        <ele>10</ele>
        <time>2012-03-14T15:27:42Z</time>
      </trkpt>
      <trkpt lat="47.61523" lon="-3.16333">
        <ele>8</ele>
        <time>2012-03-14T15:27:43Z</time>
      </trkpt>
      <trkpt lat="47.61522" lon="-3.16339">
        <ele>11</ele>
        <time>2012-03-14T15:27:44Z</time>
      </trkpt>
      <trkpt lat="47.61521" lon="-3.16346">
        <ele>11</ele>
        <time>2012-03-14T15:27:45Z</time>
      </trkpt>
      <trkpt lat="47.61521" lon="-3.16353">
        <ele>7</ele>
        <time>2012-03-14T15:27:47Z</time>
      </trkpt>
      <trkpt lat="47.61521" lon="-3.1637">
        <ele>9</ele>
        <time>2012-03-14T15:27:49Z</time>
      </trkpt>
      <trkpt lat="47.61521" lon="-3.16383">
        <ele>9</ele>
        <time>2012-03-14T15:27:52Z</time>
      </trkpt>
      <trkpt lat="47.61515" lon="-3.16415">
        <ele>6</ele>
        <time>2012-03-14T15:27:57Z</time>
      </trkpt>
      <trkpt lat="47.61511" lon="-3.16424">
        <ele>6</ele>
        <time>2012-03-14T15:27:59Z</time>
      </trkpt>
      <trkpt lat="47.61501" lon="-3.16441">
        <ele>9</ele>
        <time>2012-03-14T15:28:03Z</time>
      </trkpt>
      <trkpt lat="47.61495" lon="-3.1645">
        <ele>8</ele>
        <time>2012-03-14T15:28:05Z</time>
      </trkpt>
      <trkpt lat="47.61489" lon="-3.16462">
        <ele>8</ele>
        <time>2012-03-14T15:28:08Z</time>
      </trkpt>
      <trkpt lat="47.61484" lon="-3.16474">
        <ele>6</ele>
        <time>2012-03-14T15:28:11Z</time>
      </trkpt>
      <trkpt lat="47.6148" lon="-3.1649">
        <ele>7</ele>
        <time>2012-03-14T15:28:14Z</time>
      </trkpt>
      <trkpt lat="47.61478" lon="-3.16506">
        <ele>5</ele>
        <time>2012-03-14T15:28:17Z</time>
      </trkpt>
      <trkpt lat="47.61476" lon="-3.16525">
        <ele>7</ele>
        <time>2012-03-14T15:28:20Z</time>
      </trkpt>
      <trkpt lat="47.61474" lon="-3.16544">
        <ele>7</ele>
        <time>2012-03-14T15:28:23Z</time>
      </trkpt>
      <trkpt lat="47.61469" lon="-3.16563">
        <ele>9</ele>
        <time>2012-03-14T15:28:26Z</time>
      </trkpt>
      <trkpt lat="47.61461" lon="-3.16582">
        <ele>6</ele>
        <time>2012-03-14T15:28:30Z</time>
      </trkpt>
      <trkpt lat="47.61456" lon="-3.16593">
        <ele>7</ele>
        <time>2012-03-14T15:28:32Z</time>
      </trkpt>
      <trkpt lat="47.61451" lon="-3.16602">
        <ele>7</ele>
        <time>2012-03-14T15:28:34Z</time>
      </trkpt>
      <trkpt lat="47.61446" lon="-3.16611">
        <ele>8</ele>
        <time>2012-03-14T15:28:36Z</time>
      </trkpt>
      <trkpt lat="47.61442" lon="-3.16619">
        <ele>8</ele>
        <time>2012-03-14T15:28:38Z</time>
      </trkpt>
      <trkpt lat="47.61437" lon="-3.16627">
        <ele>8</ele>
        <time>2012-03-14T15:28:40Z</time>
      </trkpt>
      <trkpt lat="47.61426" lon="-3.16672">
        <ele>4</ele>
        <time>2012-03-14T15:28:48Z</time>
      </trkpt>
      <trkpt lat="47.61421" lon="-3.1668">
        <ele>6</ele>
        <time>2012-03-14T15:28:52Z</time>
      </trkpt>
      <trkpt lat="47.61412" lon="-3.16686">
        <ele>2</ele>
        <time>2012-03-14T15:28:57Z</time>
      </trkpt>
      <trkpt lat="47.61407" lon="-3.16688">
        <ele>3</ele>
        <time>2012-03-14T15:28:59Z</time>
      </trkpt>
      <trkpt lat="47.61394" lon="-3.16692">
        <ele>3</ele>
        <time>2012-03-14T15:29:03Z</time>
      </trkpt>
      <trkpt lat="47.61389" lon="-3.16694">
        <ele>1</ele>
        <time>2012-03-14T15:29:05Z</time>
      </trkpt>
      <trkpt lat="47.61374" lon="-3.16706">
        <ele>4</ele>
        <time>2012-03-14T15:29:11Z</time>
      </trkpt>
      <trkpt lat="47.61364" lon="-3.16715">
        <ele>3</ele>
        <time>2012-03-14T15:29:15Z</time>
      </trkpt>
      <trkpt lat="47.61354" lon="-3.16723">
        <ele>3</ele>
        <time>2012-03-14T15:29:18Z</time>
      </trkpt>
      <trkpt lat="47.61335" lon="-3.16738">
        <ele>3</ele>
        <time>2012-03-14T15:29:24Z</time>
      </trkpt>
      <trkpt lat="47.61325" lon="-3.16747">
        <ele>7</ele>
        <time>2012-03-14T15:29:27Z</time>
      </trkpt>
      <trkpt lat="47.61315" lon="-3.16755">
        <ele>5</ele>
        <time>2012-03-14T15:29:30Z</time>
      </trkpt>
      <trkpt lat="47.61295" lon="-3.1677">
        <ele>2</ele>
        <time>2012-03-14T15:29:36Z</time>
      </trkpt>
      <trkpt lat="47.61277" lon="-3.16785">
        <ele>8</ele>
        <time>2012-03-14T15:29:42Z</time>
      </trkpt>
      <trkpt lat="47.61268" lon="-3.16792">
        <ele>5</ele>
        <time>2012-03-14T15:29:45Z</time>
      </trkpt>
      <trkpt lat="47.61259" lon="-3.16798">
        <ele>5</ele>
        <time>2012-03-14T15:29:48Z</time>
      </trkpt>
      <trkpt lat="47.61252" lon="-3.16809">
        <ele>9</ele>
        <time>2012-03-14T15:29:53Z</time>
      </trkpt>
      <trkpt lat="47.61247" lon="-3.16812">
        <ele>8</ele>
        <time>2012-03-14T15:29:54Z</time>
      </trkpt>
      <trkpt lat="47.61242" lon="-3.16815">
        <ele>8</ele>
        <time>2012-03-14T15:29:56Z</time>
      </trkpt>
      <trkpt lat="47.61217" lon="-3.16824">
        <ele>2</ele>
        <time>2012-03-14T15:30:08Z</time>
      </trkpt>
      <trkpt lat="47.61212" lon="-3.1682">
        <ele>5</ele>
        <time>2012-03-14T15:30:11Z</time>
      </trkpt>
      <trkpt lat="47.61207" lon="-3.16819">
        <ele>4</ele>
        <time>2012-03-14T15:30:18Z</time>
      </trkpt>
      <trkpt lat="47.61203" lon="-3.16821">
        <ele>6</ele>
        <time>2012-03-14T15:32:17Z</time>
      </trkpt>
      <trkpt lat="47.61206" lon="-3.16818">
        <ele>7</ele>
        <time>2012-03-14T15:36:26Z</time>
      </trkpt>
      <trkpt lat="47.61213" lon="-3.16819">
        <ele>1</ele>
        <time>2012-03-14T15:36:43Z</time>
      </trkpt>
      <trkpt lat="47.61218" lon="-3.16814">
        <ele>6.7</ele>
        <time>2012-03-14T15:36:48Z</time>
      </trkpt>
      <trkpt lat="47.61228" lon="-3.16812">
        <ele>7</ele>
        <time>2012-03-14T15:36:53Z</time>
      </trkpt>
      <trkpt lat="47.61233" lon="-3.16811">
        <ele>3</ele>
        <time>2012-03-14T15:36:55Z</time>
      </trkpt>
      <trkpt lat="47.61248" lon="-3.16807">
        <ele>5</ele>
        <time>2012-03-14T15:37:03Z</time>
      </trkpt>
      <trkpt lat="47.61252" lon="-3.16805">
        <ele>3</ele>
        <time>2012-03-14T15:37:05Z</time>
      </trkpt>
      <trkpt lat="47.61263" lon="-3.16797">
        <ele>7</ele>
        <time>2012-03-14T15:37:09Z</time>
      </trkpt>
      <trkpt lat="47.61269" lon="-3.16793">
        <ele>7</ele>
        <time>2012-03-14T15:37:11Z</time>
      </trkpt>
      <trkpt lat="47.61275" lon="-3.16788">
        <ele>7</ele>
        <time>2012-03-14T15:37:13Z</time>
      </trkpt>
      <trkpt lat="47.6128" lon="-3.16783">
        <ele>4</ele>
        <time>2012-03-14T15:37:15Z</time>
      </trkpt>
      <trkpt lat="47.61286" lon="-3.16778">
        <ele>4</ele>
        <time>2012-03-14T15:37:17Z</time>
      </trkpt>
      <trkpt lat="47.61291" lon="-3.16774">
        <ele>3</ele>
        <time>2012-03-14T15:37:19Z</time>
      </trkpt>
      <trkpt lat="47.61297" lon="-3.16769">
        <ele>4</ele>
        <time>2012-03-14T15:37:21Z</time>
      </trkpt>
      <trkpt lat="47.61303" lon="-3.16765">
        <ele>3</ele>
        <time>2012-03-14T15:37:24Z</time>
      </trkpt>
      <trkpt lat="47.61318" lon="-3.16751">
        <ele>8</ele>
        <time>2012-03-14T15:37:28Z</time>
      </trkpt>
      <trkpt lat="47.61327" lon="-3.16743">
        <ele>7</ele>
        <time>2012-03-14T15:37:31Z</time>
      </trkpt>
      <trkpt lat="47.61333" lon="-3.16738">
        <ele>7</ele>
        <time>2012-03-14T15:37:33Z</time>
      </trkpt>
      <trkpt lat="47.61338" lon="-3.16733">
        <ele>2</ele>
        <time>2012-03-14T15:37:35Z</time>
      </trkpt>
      <trkpt lat="47.61344" lon="-3.16729">
        <ele>3</ele>
        <time>2012-03-14T15:37:37Z</time>
      </trkpt>
      <trkpt lat="47.61351" lon="-3.16725">
        <ele>3</ele>
        <time>2012-03-14T15:37:39Z</time>
      </trkpt>
      <trkpt lat="47.61364" lon="-3.16717">
        <ele>6</ele>
        <time>2012-03-14T15:37:43Z</time>
      </trkpt>
      <trkpt lat="47.6137" lon="-3.16713">
        <ele>5</ele>
        <time>2012-03-14T15:37:45Z</time>
      </trkpt>
      <trkpt lat="47.61376" lon="-3.16708">
        <ele>1</ele>
        <time>2012-03-14T15:37:47Z</time>
      </trkpt>
      <trkpt lat="47.61391" lon="-3.16697">
        <ele>7</ele>
        <time>2012-03-14T15:37:59Z</time>
      </trkpt>
      <trkpt lat="47.61381" lon="-3.16692">
        <ele>5</ele>
        <time>2012-03-14T15:38:05Z</time>
      </trkpt>
      <trkpt lat="47.61377" lon="-3.16688">
        <ele>8</ele>
        <time>2012-03-14T15:38:07Z</time>
      </trkpt>
      <trkpt lat="47.61371" lon="-3.16678">
        <ele>6</ele>
        <time>2012-03-14T15:38:15Z</time>
      </trkpt>
      <trkpt lat="47.61368" lon="-3.16672">
        <ele>6</ele>
        <time>2012-03-14T15:38:17Z</time>
      </trkpt>
      <trkpt lat="47.61366" lon="-3.16666">
        <ele>10</ele>
        <time>2012-03-14T15:38:19Z</time>
      </trkpt>
      <trkpt lat="47.61363" lon="-3.1666">
        <ele>8</ele>
        <time>2012-03-14T15:38:21Z</time>
      </trkpt>
      <trkpt lat="47.6136" lon="-3.16654">
        <ele>10</ele>
        <time>2012-03-14T15:38:23Z</time>
      </trkpt>
      <trkpt lat="47.61357" lon="-3.16648">
        <ele>11</ele>
        <time>2012-03-14T15:38:25Z</time>
      </trkpt>
      <trkpt lat="47.61353" lon="-3.16641">
        <ele>10</ele>
        <time>2012-03-14T15:38:27Z</time>
      </trkpt>
      <trkpt lat="47.61345" lon="-3.16627">
        <ele>6</ele>
        <time>2012-03-14T15:38:31Z</time>
      </trkpt>
      <trkpt lat="47.61341" lon="-3.16621">
        <ele>7</ele>
        <time>2012-03-14T15:38:33Z</time>
      </trkpt>
      <trkpt lat="47.61337" lon="-3.16614">
        <ele>5</ele>
        <time>2012-03-14T15:38:35Z</time>
      </trkpt>
      <trkpt lat="47.61331" lon="-3.16603">
        <ele>7</ele>
        <time>2012-03-14T15:38:39Z</time>
      </trkpt>
      <trkpt lat="47.61328" lon="-3.16596">
        <ele>5</ele>
        <time>2012-03-14T15:38:41Z</time>
      </trkpt>
      <trkpt lat="47.61325" lon="-3.16589">
        <ele>5</ele>
        <time>2012-03-14T15:38:43Z</time>
      </trkpt>
      <trkpt lat="47.61322" lon="-3.16583">
        <ele>4</ele>
        <time>2012-03-14T15:38:45Z</time>
      </trkpt>
      <trkpt lat="47.6132" lon="-3.16575">
        <ele>4</ele>
        <time>2012-03-14T15:38:47Z</time>
      </trkpt>
      <trkpt lat="47.61316" lon="-3.16563">
        <ele>6</ele>
        <time>2012-03-14T15:38:51Z</time>
      </trkpt>
      <trkpt lat="47.61313" lon="-3.16557">
        <ele>6</ele>
        <time>2012-03-14T15:38:53Z</time>
      </trkpt>
      <trkpt lat="47.61306" lon="-3.16535">
        <ele>11</ele>
        <time>2012-03-14T15:38:59Z</time>
      </trkpt>
      <trkpt lat="47.61301" lon="-3.16523">
        <ele>5</ele>
        <time>2012-03-14T15:39:03Z</time>
      </trkpt>
      <trkpt lat="47.61291" lon="-3.16514">
        <ele>2</ele>
        <time>2012-03-14T15:39:09Z</time>
      </trkpt>
      <trkpt lat="47.61286" lon="-3.16511">
        <ele>4</ele>
        <time>2012-03-14T15:39:12Z</time>
      </trkpt>
      <trkpt lat="47.61285" lon="-3.16507">
        <ele>3</ele>
        <time>2012-03-14T15:39:19Z</time>
      </trkpt>
      <trkpt lat="47.61282" lon="-3.16501">
        <ele>3</ele>
        <time>2012-03-14T15:39:27Z</time>
      </trkpt>
      <trkpt lat="47.61273" lon="-3.16496">
        <ele>5</ele>
        <time>2012-03-14T15:39:31Z</time>
      </trkpt>
      <trkpt lat="47.61263" lon="-3.16486">
        <ele>1</ele>
        <time>2012-03-14T15:39:34Z</time>
      </trkpt>
      <trkpt lat="47.61237" lon="-3.16454">
        <ele>9</ele>
        <time>2012-03-14T15:39:43Z</time>
      </trkpt>
      <trkpt lat="47.61229" lon="-3.16411">
        <ele>6.6</ele>
        <time>2012-03-14T15:39:50Z</time>
      </trkpt>
      <trkpt lat="47.61225" lon="-3.16385">
        <ele>7</ele>
        <time>2012-03-14T15:39:55Z</time>
      </trkpt>
      <trkpt lat="47.61222" lon="-3.16377">
        <ele>4</ele>
        <time>2012-03-14T15:39:57Z</time>
      </trkpt>
      <trkpt lat="47.6122" lon="-3.16368">
        <ele>4</ele>
        <time>2012-03-14T15:39:59Z</time>
      </trkpt>
      <trkpt lat="47.61217" lon="-3.16359">
        <ele>1</ele>
        <time>2012-03-14T15:40:01Z</time>
      </trkpt>
      <trkpt lat="47.61215" lon="-3.1635">
        <ele>2</ele>
        <time>2012-03-14T15:40:03Z</time>
      </trkpt>
      <trkpt lat="47.61212" lon="-3.1634">
        <ele>3</ele>
        <time>2012-03-14T15:40:05Z</time>
      </trkpt>
      <trkpt lat="47.6121" lon="-3.1633">
        <ele>1</ele>
        <time>2012-03-14T15:40:07Z</time>
      </trkpt>
      <trkpt lat="47.61207" lon="-3.16322">
        <ele>7</ele>
        <time>2012-03-14T15:40:09Z</time>
      </trkpt>
      <trkpt lat="47.61204" lon="-3.16315">
        <ele>1</ele>
        <time>2012-03-14T15:40:11Z</time>
      </trkpt>
      <trkpt lat="47.61199" lon="-3.16307">
        <ele>2</ele>
        <time>2012-03-14T15:40:13Z</time>
      </trkpt>
      <trkpt lat="47.61194" lon="-3.163">
        <ele>7</ele>
        <time>2012-03-14T15:40:15Z</time>
      </trkpt>
      <trkpt lat="47.61185" lon="-3.16286">
        <ele>6.7</ele>
        <time>2012-03-14T15:40:19Z</time>
      </trkpt>
      <trkpt lat="47.61175" lon="-3.16272">
        <ele>4</ele>
        <time>2012-03-14T15:40:23Z</time>
      </trkpt>
      <trkpt lat="47.6117" lon="-3.16266">
        <ele>2</ele>
        <time>2012-03-14T15:40:25Z</time>
      </trkpt>
      <trkpt lat="47.61165" lon="-3.16258">
        <ele>2</ele>
        <time>2012-03-14T15:40:27Z</time>
      </trkpt>
      <trkpt lat="47.6116" lon="-3.16251">
        <ele>4</ele>
        <time>2012-03-14T15:40:29Z</time>
      </trkpt>
      <trkpt lat="47.61151" lon="-3.16235">
        <ele>6</ele>
        <time>2012-03-14T15:40:33Z</time>
      </trkpt>
      <trkpt lat="47.61146" lon="-3.16227">
        <ele>1</ele>
        <time>2012-03-14T15:40:35Z</time>
      </trkpt>
      <trkpt lat="47.61141" lon="-3.16219">
        <ele>6</ele>
        <time>2012-03-14T15:40:37Z</time>
      </trkpt>
      <trkpt lat="47.61132" lon="-3.16203">
        <ele>6</ele>
        <time>2012-03-14T15:40:41Z</time>
      </trkpt>
      <trkpt lat="47.61128" lon="-3.16196">
        <ele>6</ele>
        <time>2012-03-14T15:40:43Z</time>
      </trkpt>
      <trkpt lat="47.61124" lon="-3.16187">
        <ele>6</ele>
        <time>2012-03-14T15:40:45Z</time>
      </trkpt>
      <trkpt lat="47.61104" lon="-3.16157">
        <ele>6.2</ele>
        <time>2012-03-14T15:40:53Z</time>
      </trkpt>
      <trkpt lat="47.61099" lon="-3.16149">
        <ele>1</ele>
        <time>2012-03-14T15:40:55Z</time>
      </trkpt>
      <trkpt lat="47.61089" lon="-3.16136">
        <ele>2</ele>
        <time>2012-03-14T15:40:59Z</time>
      </trkpt>
      <trkpt lat="47.61084" lon="-3.1613">
        <ele>5</ele>
        <time>2012-03-14T15:41:01Z</time>
      </trkpt>
      <trkpt lat="47.61074" lon="-3.16117">
        <ele>6.1</ele>
        <time>2012-03-14T15:41:05Z</time>
      </trkpt>
      <trkpt lat="47.61033" lon="-3.16099">
        <ele>6</ele>
        <time>2012-03-14T15:41:17Z</time>
      </trkpt>
      <trkpt lat="47.61009" lon="-3.16105">
        <ele>5.3</ele>
        <time>2012-03-14T15:41:25Z</time>
      </trkpt>
      <trkpt lat="47.61005" lon="-3.16109">
        <ele>4</ele>
        <time>2012-03-14T15:41:33Z</time>
      </trkpt>
      <trkpt lat="47.61004" lon="-3.16118">
        <ele>3</ele>
        <time>2012-03-14T15:41:37Z</time>
      </trkpt>
      <trkpt lat="47.61" lon="-3.16133">
        <ele>5.8</ele>
        <time>2012-03-14T15:41:41Z</time>
      </trkpt>
      <trkpt lat="47.60996" lon="-3.16138">
        <ele>5</ele>
        <time>2012-03-14T15:41:44Z</time>
      </trkpt>
      <trkpt lat="47.60991" lon="-3.16136">
        <ele>3</ele>
        <time>2012-03-14T15:41:49Z</time>
      </trkpt>
      <trkpt lat="47.60982" lon="-3.16126">
        <ele>5</ele>
        <time>2012-03-14T15:41:54Z</time>
      </trkpt>
      <trkpt lat="47.60977" lon="-3.16121">
        <ele>4</ele>
        <time>2012-03-14T15:41:56Z</time>
      </trkpt>
      <trkpt lat="47.60973" lon="-3.16115">
        <ele>5</ele>
        <time>2012-03-14T15:41:58Z</time>
      </trkpt>
      <trkpt lat="47.60963" lon="-3.16096">
        <ele>5.2</ele>
        <time>2012-03-14T15:42:04Z</time>
      </trkpt>
      <trkpt lat="47.60967" lon="-3.16053">
        <ele>5.8</ele>
        <time>2012-03-14T15:42:16Z</time>
      </trkpt>
      <trkpt lat="47.60974" lon="-3.16024">
        <ele>5.9</ele>
        <time>2012-03-14T15:42:24Z</time>
      </trkpt>
      <trkpt lat="47.60977" lon="-3.1601">
        <ele>1</ele>
        <time>2012-03-14T15:42:29Z</time>
      </trkpt>
      <trkpt lat="47.60975" lon="-3.16004">
        <ele>5.9</ele>
        <time>2012-03-14T15:42:31Z</time>
      </trkpt>
      <trkpt lat="47.60967" lon="-3.15992">
        <ele>2</ele>
        <time>2012-03-14T15:42:35Z</time>
      </trkpt>
      <trkpt lat="47.60963" lon="-3.15987">
        <ele>5.8</ele>
        <time>2012-03-14T15:42:37Z</time>
      </trkpt>
      <trkpt lat="47.6096" lon="-3.15981">
        <ele>3</ele>
        <time>2012-03-14T15:42:39Z</time>
      </trkpt>
      <trkpt lat="47.60957" lon="-3.15973">
        <ele>5.5</ele>
        <time>2012-03-14T15:42:41Z</time>
      </trkpt>
      <trkpt lat="47.60944" lon="-3.15937">
        <ele>5</ele>
        <time>2012-03-14T15:42:50Z</time>
      </trkpt>
      <trkpt lat="47.60932" lon="-3.15924">
        <ele>2</ele>
        <time>2012-03-14T15:42:56Z</time>
      </trkpt>
      <trkpt lat="47.60922" lon="-3.15901">
        <ele>5</ele>
        <time>2012-03-14T15:43:03Z</time>
      </trkpt>
      <trkpt lat="47.60911" lon="-3.15867">
        <ele>5</ele>
        <time>2012-03-14T15:43:13Z</time>
      </trkpt>
      <trkpt lat="47.60905" lon="-3.15846">
        <ele>3</ele>
        <time>2012-03-14T15:43:19Z</time>
      </trkpt>
      <trkpt lat="47.60902" lon="-3.15838">
        <ele>2</ele>
        <time>2012-03-14T15:43:21Z</time>
      </trkpt>
      <trkpt lat="47.609" lon="-3.1583">
        <ele>4</ele>
        <time>2012-03-14T15:43:23Z</time>
      </trkpt>
      <trkpt lat="47.60897" lon="-3.15824">
        <ele>3</ele>
        <time>2012-03-14T15:43:25Z</time>
      </trkpt>
      <trkpt lat="47.60895" lon="-3.15817">
        <ele>4</ele>
        <time>2012-03-14T15:43:27Z</time>
      </trkpt>
      <trkpt lat="47.60896" lon="-3.15805">
        <ele>5.7</ele>
        <time>2012-03-14T15:43:39Z</time>
      </trkpt>
      <trkpt lat="47.60895" lon="-3.15808">
        <ele>1</ele>
        <time>2012-03-14T15:45:22Z</time>
      </trkpt>
      <trkpt lat="47.60892" lon="-3.15814">
        <ele>3</ele>
        <time>2012-03-14T15:45:24Z</time>
      </trkpt>
      <trkpt lat="47.60878" lon="-3.15822">
        <ele>4</ele>
        <time>2012-03-14T15:45:32Z</time>
      </trkpt>
      <trkpt lat="47.60872" lon="-3.15821">
        <ele>4</ele>
        <time>2012-03-14T15:45:40Z</time>
      </trkpt>
      <trkpt lat="47.60868" lon="-3.1582">
        <ele>8</ele>
        <time>2012-03-14T15:45:44Z</time>
      </trkpt>
      <trkpt lat="47.60862" lon="-3.15819">
        <ele>1</ele>
        <time>2012-03-14T15:45:50Z</time>
      </trkpt>
      <trkpt lat="47.60852" lon="-3.15817">
        <ele>1</ele>
        <time>2012-03-14T15:45:54Z</time>
      </trkpt>
      <trkpt lat="47.60846" lon="-3.15817">
        <ele>1</ele>
        <time>2012-03-14T15:45:56Z</time>
      </trkpt>
      <trkpt lat="47.6084" lon="-3.15817">
        <ele>2</ele>
        <time>2012-03-14T15:45:58Z</time>
      </trkpt>
      <trkpt lat="47.60823" lon="-3.1582">
        <ele>5.8</ele>
        <time>2012-03-14T15:46:04Z</time>
      </trkpt>
      <trkpt lat="47.60812" lon="-3.15822">
        <ele>5.5</ele>
        <time>2012-03-14T15:46:08Z</time>
      </trkpt>
      <trkpt lat="47.60805" lon="-3.15825">
        <ele>1</ele>
        <time>2012-03-14T15:46:10Z</time>
      </trkpt>
      <trkpt lat="47.60799" lon="-3.15825">
        <ele>5.2</ele>
        <time>2012-03-14T15:46:12Z</time>
      </trkpt>
      <trkpt lat="47.60793" lon="-3.15825">
        <ele>1</ele>
        <time>2012-03-14T15:46:14Z</time>
      </trkpt>
      <trkpt lat="47.60787" lon="-3.15824">
        <ele>5.1</ele>
        <time>2012-03-14T15:46:16Z</time>
      </trkpt>
      <trkpt lat="47.60781" lon="-3.15823">
        <ele>3</ele>
        <time>2012-03-14T15:46:18Z</time>
      </trkpt>
      <trkpt lat="47.60769" lon="-3.15815">
        <ele>5</ele>
        <time>2012-03-14T15:46:22Z</time>
      </trkpt>
      <trkpt lat="47.60697" lon="-3.15755">
        <ele>4.9</ele>
        <time>2012-03-14T15:46:50Z</time>
      </trkpt>
      <trkpt lat="47.60691" lon="-3.15755">
        <ele>2</ele>
        <time>2012-03-14T15:46:53Z</time>
      </trkpt>
      <trkpt lat="47.60686" lon="-3.15751">
        <ele>2</ele>
        <time>2012-03-14T15:46:57Z</time>
      </trkpt>
      <trkpt lat="47.60682" lon="-3.15745">
        <ele>4.7</ele>
        <time>2012-03-14T15:47:00Z</time>
      </trkpt>
      <trkpt lat="47.60679" lon="-3.1574">
        <ele>4</ele>
        <time>2012-03-14T15:47:07Z</time>
      </trkpt>
      <trkpt lat="47.60671" lon="-3.15734">
        <ele>5</ele>
        <time>2012-03-14T15:47:17Z</time>
      </trkpt>
      <trkpt lat="47.60667" lon="-3.1573">
        <ele>1</ele>
        <time>2012-03-14T15:47:20Z</time>
      </trkpt>
      <trkpt lat="47.60664" lon="-3.15724">
        <ele>5.9</ele>
        <time>2012-03-14T15:47:25Z</time>
      </trkpt>
      <trkpt lat="47.60653" lon="-3.15713">
        <ele>8</ele>
        <time>2012-03-14T15:47:55Z</time>
      </trkpt>
      <trkpt lat="47.60646" lon="-3.15705">
        <ele>3</ele>
        <time>2012-03-14T15:48:01Z</time>
      </trkpt>
      <trkpt lat="47.60643" lon="-3.15697">
        <ele>3</ele>
        <time>2012-03-14T15:48:07Z</time>
      </trkpt>
      <trkpt lat="47.60639" lon="-3.15693">
        <ele>2</ele>
        <time>2012-03-14T15:48:15Z</time>
      </trkpt>
      <trkpt lat="47.60635" lon="-3.15689">
        <ele>4</ele>
        <time>2012-03-14T15:48:18Z</time>
      </trkpt>
      <trkpt lat="47.60631" lon="-3.15684">
        <ele>1</ele>
        <time>2012-03-14T15:48:21Z</time>
      </trkpt>
      <trkpt lat="47.60627" lon="-3.1568">
        <ele>3</ele>
        <time>2012-03-14T15:48:24Z</time>
      </trkpt>
      <trkpt lat="47.60624" lon="-3.15675">
        <ele>2</ele>
        <time>2012-03-14T15:48:27Z</time>
      </trkpt>
      <trkpt lat="47.60616" lon="-3.15666">
        <ele>5</ele>
        <time>2012-03-14T15:48:36Z</time>
      </trkpt>
      <trkpt lat="47.60613" lon="-3.1566">
        <ele>6</ele>
        <time>2012-03-14T15:48:40Z</time>
      </trkpt>
      <trkpt lat="47.60609" lon="-3.15655">
        <ele>5.5</ele>
        <time>2012-03-14T15:48:47Z</time>
      </trkpt>
      <trkpt lat="47.60569" lon="-3.15594">
        <ele>6.3</ele>
        <time>2012-03-14T15:49:10Z</time>
      </trkpt>
      <trkpt lat="47.60556" lon="-3.15578">
        <ele>4</ele>
        <time>2012-03-14T15:49:15Z</time>
      </trkpt>
      <trkpt lat="47.60548" lon="-3.15568">
        <ele>6.3</ele>
        <time>2012-03-14T15:49:18Z</time>
      </trkpt>
      <trkpt lat="47.60543" lon="-3.15562">
        <ele>6.4</ele>
        <time>2012-03-14T15:49:20Z</time>
      </trkpt>
      <trkpt lat="47.60539" lon="-3.15556">
        <ele>2</ele>
        <time>2012-03-14T15:49:22Z</time>
      </trkpt>
      <trkpt lat="47.6053" lon="-3.15544">
        <ele>6.5</ele>
        <time>2012-03-14T15:49:26Z</time>
      </trkpt>
      <trkpt lat="47.60522" lon="-3.15533">
        <ele>6.4</ele>
        <time>2012-03-14T15:49:30Z</time>
      </trkpt>
      <trkpt lat="47.60505" lon="-3.15506">
        <ele>5</ele>
        <time>2012-03-14T15:49:39Z</time>
      </trkpt>
      <trkpt lat="47.60498" lon="-3.15494">
        <ele>1</ele>
        <time>2012-03-14T15:49:43Z</time>
      </trkpt>
      <trkpt lat="47.60494" lon="-3.15488">
        <ele>3</ele>
        <time>2012-03-14T15:49:45Z</time>
      </trkpt>
      <trkpt lat="47.6049" lon="-3.15481">
        <ele>1</ele>
        <time>2012-03-14T15:49:47Z</time>
      </trkpt>
      <trkpt lat="47.60485" lon="-3.15473">
        <ele>1</ele>
        <time>2012-03-14T15:49:49Z</time>
      </trkpt>
      <trkpt lat="47.60479" lon="-3.15463">
        <ele>4</ele>
        <time>2012-03-14T15:49:52Z</time>
      </trkpt>
      <trkpt lat="47.60465" lon="-3.15438">
        <ele>4.6</ele>
        <time>2012-03-14T15:49:59Z</time>
      </trkpt>
      <trkpt lat="47.60443" lon="-3.15402">
        <ele>4</ele>
        <time>2012-03-14T15:50:10Z</time>
      </trkpt>
      <trkpt lat="47.60437" lon="-3.15388">
        <ele>2</ele>
        <time>2012-03-14T15:50:14Z</time>
      </trkpt>
      <trkpt lat="47.60433" lon="-3.15381">
        <ele>2</ele>
        <time>2012-03-14T15:50:16Z</time>
      </trkpt>
      <trkpt lat="47.6043" lon="-3.15374">
        <ele>1</ele>
        <time>2012-03-14T15:50:18Z</time>
      </trkpt>
      <trkpt lat="47.60427" lon="-3.15367">
        <ele>2</ele>
        <time>2012-03-14T15:50:20Z</time>
      </trkpt>
      <trkpt lat="47.60421" lon="-3.15356">
        <ele>7</ele>
        <time>2012-03-14T15:50:23Z</time>
      </trkpt>
      <trkpt lat="47.60417" lon="-3.15345">
        <ele>7</ele>
        <time>2012-03-14T15:50:26Z</time>
      </trkpt>
      <trkpt lat="47.60398" lon="-3.1531">
        <ele>5.2</ele>
        <time>2012-03-14T15:50:35Z</time>
      </trkpt>
      <trkpt lat="47.60388" lon="-3.1529">
        <ele>4.9</ele>
        <time>2012-03-14T15:50:41Z</time>
      </trkpt>
      <trkpt lat="47.60386" lon="-3.15283">
        <ele>1</ele>
        <time>2012-03-14T15:50:44Z</time>
      </trkpt>
      <trkpt lat="47.60382" lon="-3.15274">
        <ele>4.4</ele>
        <time>2012-03-14T15:50:47Z</time>
      </trkpt>
      <trkpt lat="47.60374" lon="-3.15255">
        <ele>4.9</ele>
        <time>2012-03-14T15:50:53Z</time>
      </trkpt>
      <trkpt lat="47.60371" lon="-3.15249">
        <ele>2</ele>
        <time>2012-03-14T15:50:55Z</time>
      </trkpt>
      <trkpt lat="47.60368" lon="-3.15243">
        <ele>1</ele>
        <time>2012-03-14T15:50:57Z</time>
      </trkpt>
      <trkpt lat="47.60364" lon="-3.15232">
        <ele>4</ele>
        <time>2012-03-14T15:51:00Z</time>
      </trkpt>
      <trkpt lat="47.60358" lon="-3.15219">
        <ele>1</ele>
        <time>2012-03-14T15:51:04Z</time>
      </trkpt>
      <trkpt lat="47.60355" lon="-3.15213">
        <ele>1</ele>
        <time>2012-03-14T15:51:06Z</time>
      </trkpt>
      <trkpt lat="47.60352" lon="-3.15206">
        <ele>4</ele>
        <time>2012-03-14T15:51:08Z</time>
      </trkpt>
      <trkpt lat="47.60349" lon="-3.152">
        <ele>1</ele>
        <time>2012-03-14T15:51:10Z</time>
      </trkpt>
      <trkpt lat="47.60344" lon="-3.15188">
        <ele>5</ele>
        <time>2012-03-14T15:51:14Z</time>
      </trkpt>
      <trkpt lat="47.60332" lon="-3.1516">
        <ele>5</ele>
        <time>2012-03-14T15:51:22Z</time>
      </trkpt>
      <trkpt lat="47.60327" lon="-3.15149">
        <ele>2</ele>
        <time>2012-03-14T15:51:25Z</time>
      </trkpt>
      <trkpt lat="47.60311" lon="-3.15114">
        <ele>4.2</ele>
        <time>2012-03-14T15:51:34Z</time>
      </trkpt>
      <trkpt lat="47.60288" lon="-3.15069">
        <ele>4.4</ele>
        <time>2012-03-14T15:51:46Z</time>
      </trkpt>
      <trkpt lat="47.60282" lon="-3.15055">
        <ele>3</ele>
        <time>2012-03-14T15:51:50Z</time>
      </trkpt>
      <trkpt lat="47.60276" lon="-3.15044">
        <ele>4.1</ele>
        <time>2012-03-14T15:51:53Z</time>
      </trkpt>
      <trkpt lat="47.60265" lon="-3.15022">
        <ele>3.5</ele>
        <time>2012-03-14T15:51:59Z</time>
      </trkpt>
      <trkpt lat="47.60259" lon="-3.1501">
        <ele>5</ele>
        <time>2012-03-14T15:52:02Z</time>
      </trkpt>
      <trkpt lat="47.60253" lon="-3.14999">
        <ele>6</ele>
        <time>2012-03-14T15:52:05Z</time>
      </trkpt>
      <trkpt lat="47.60242" lon="-3.14977">
        <ele>6</ele>
        <time>2012-03-14T15:52:11Z</time>
      </trkpt>
      <trkpt lat="47.60236" lon="-3.14962">
        <ele>5</ele>
        <time>2012-03-14T15:52:15Z</time>
      </trkpt>
      <trkpt lat="47.6023" lon="-3.1495">
        <ele>6</ele>
        <time>2012-03-14T15:52:18Z</time>
      </trkpt>
      <trkpt lat="47.60224" lon="-3.14937">
        <ele>2</ele>
        <time>2012-03-14T15:52:22Z</time>
      </trkpt>
      <trkpt lat="47.60219" lon="-3.14924">
        <ele>3</ele>
        <time>2012-03-14T15:52:26Z</time>
      </trkpt>
      <trkpt lat="47.60212" lon="-3.1491">
        <ele>9</ele>
        <time>2012-03-14T15:52:30Z</time>
      </trkpt>
      <trkpt lat="47.60191" lon="-3.14865">
        <ele>1</ele>
        <time>2012-03-14T15:52:42Z</time>
      </trkpt>
      <trkpt lat="47.60185" lon="-3.1485">
        <ele>3</ele>
        <time>2012-03-14T15:52:46Z</time>
      </trkpt>
      <trkpt lat="47.60182" lon="-3.14844">
        <ele>3</ele>
        <time>2012-03-14T15:52:48Z</time>
      </trkpt>
      <trkpt lat="47.60179" lon="-3.14838">
        <ele>5.4</ele>
        <time>2012-03-14T15:52:50Z</time>
      </trkpt>
      <trkpt lat="47.6016" lon="-3.14798">
        <ele>5.8</ele>
        <time>2012-03-14T15:53:01Z</time>
      </trkpt>
      <trkpt lat="47.60144" lon="-3.14765">
        <ele>6</ele>
        <time>2012-03-14T15:53:10Z</time>
      </trkpt>
      <trkpt lat="47.60134" lon="-3.14743">
        <ele>4</ele>
        <time>2012-03-14T15:53:16Z</time>
      </trkpt>
      <trkpt lat="47.60129" lon="-3.14732">
        <ele>6</ele>
        <time>2012-03-14T15:53:19Z</time>
      </trkpt>
      <trkpt lat="47.60126" lon="-3.14724">
        <ele>5</ele>
        <time>2012-03-14T15:53:21Z</time>
      </trkpt>
      <trkpt lat="47.60123" lon="-3.14717">
        <ele>5</ele>
        <time>2012-03-14T15:53:23Z</time>
      </trkpt>
      <trkpt lat="47.60118" lon="-3.14705">
        <ele>3</ele>
        <time>2012-03-14T15:53:28Z</time>
      </trkpt>
      <trkpt lat="47.60118" lon="-3.147">
        <ele>4</ele>
        <time>2012-03-14T15:53:35Z</time>
      </trkpt>
      <trkpt lat="47.60113" lon="-3.14695">
        <ele>5</ele>
        <time>2012-03-14T15:53:47Z</time>
      </trkpt>
      <trkpt lat="47.60111" lon="-3.14689">
        <ele>4</ele>
        <time>2012-03-14T15:53:51Z</time>
      </trkpt>
      <trkpt lat="47.60108" lon="-3.14687">
        <ele>5.2</ele>
        <time>2012-03-14T15:54:30Z</time>
      </trkpt>
      <trkpt lat="47.6011" lon="-3.14674">
        <ele>1</ele>
        <time>2012-03-14T15:54:35Z</time>
      </trkpt>
      <trkpt lat="47.60115" lon="-3.14667">
        <ele>5.9</ele>
        <time>2012-03-14T15:54:38Z</time>
      </trkpt>
      <trkpt lat="47.60118" lon="-3.14661">
        <ele>1</ele>
        <time>2012-03-14T15:54:40Z</time>
      </trkpt>
      <trkpt lat="47.60122" lon="-3.14654">
        <ele>1</ele>
        <time>2012-03-14T15:54:42Z</time>
      </trkpt>
      <trkpt lat="47.60126" lon="-3.14648">
        <ele>6.1</ele>
        <time>2012-03-14T15:54:44Z</time>
      </trkpt>
      <trkpt lat="47.60142" lon="-3.14608">
        <ele>5.9</ele>
        <time>2012-03-14T15:54:55Z</time>
      </trkpt>
      <trkpt lat="47.60129" lon="-3.14576">
        <ele>5.6</ele>
        <time>2012-03-14T15:55:03Z</time>
      </trkpt>
      <trkpt lat="47.60124" lon="-3.14564">
        <ele>5.5</ele>
        <time>2012-03-14T15:55:06Z</time>
      </trkpt>
      <trkpt lat="47.60118" lon="-3.14553">
        <ele>5.7</ele>
        <time>2012-03-14T15:55:09Z</time>
      </trkpt>
      <trkpt lat="47.60113" lon="-3.1454">
        <ele>3</ele>
        <time>2012-03-14T15:55:12Z</time>
      </trkpt>
      <trkpt lat="47.60107" lon="-3.14526">
        <ele>2</ele>
        <time>2012-03-14T15:55:15Z</time>
      </trkpt>
      <trkpt lat="47.60101" lon="-3.14514">
        <ele>4</ele>
        <time>2012-03-14T15:55:18Z</time>
      </trkpt>
      <trkpt lat="47.60096" lon="-3.14499">
        <ele>2</ele>
        <time>2012-03-14T15:55:21Z</time>
      </trkpt>
      <trkpt lat="47.60091" lon="-3.14486">
        <ele>2</ele>
        <time>2012-03-14T15:55:24Z</time>
      </trkpt>
      <trkpt lat="47.60082" lon="-3.1446">
        <ele>1</ele>
        <time>2012-03-14T15:55:30Z</time>
      </trkpt>
      <trkpt lat="47.60079" lon="-3.14446">
        <ele>1</ele>
        <time>2012-03-14T15:55:34Z</time>
      </trkpt>
      <trkpt lat="47.60076" lon="-3.14432">
        <ele>5.7</ele>
        <time>2012-03-14T15:55:37Z</time>
      </trkpt>
      <trkpt lat="47.60073" lon="-3.14418">
        <ele>3</ele>
        <time>2012-03-14T15:55:40Z</time>
      </trkpt>
      <trkpt lat="47.60069" lon="-3.14404">
        <ele>2</ele>
        <time>2012-03-14T15:55:43Z</time>
      </trkpt>
      <trkpt lat="47.60064" lon="-3.14389">
        <ele>5</ele>
        <time>2012-03-14T15:55:46Z</time>
      </trkpt>
      <trkpt lat="47.60058" lon="-3.14375">
        <ele>3</ele>
        <time>2012-03-14T15:55:49Z</time>
      </trkpt>
      <trkpt lat="47.60054" lon="-3.14366">
        <ele>3</ele>
        <time>2012-03-14T15:55:51Z</time>
      </trkpt>
      <trkpt lat="47.60047" lon="-3.1435">
        <ele>5.4</ele>
        <time>2012-03-14T15:55:55Z</time>
      </trkpt>
      <trkpt lat="47.6004" lon="-3.14338">
        <ele>5.1</ele>
        <time>2012-03-14T15:55:59Z</time>
      </trkpt>
      <trkpt lat="47.60027" lon="-3.14332">
        <ele>5</ele>
        <time>2012-03-14T15:56:03Z</time>
      </trkpt>
      <trkpt lat="47.60017" lon="-3.14328">
        <ele>5</ele>
        <time>2012-03-14T15:56:06Z</time>
      </trkpt>
      <trkpt lat="47.60007" lon="-3.1432">
        <ele>5</ele>
        <time>2012-03-14T15:56:10Z</time>
      </trkpt>
      <trkpt lat="47.59999" lon="-3.14311">
        <ele>4</ele>
        <time>2012-03-14T15:56:13Z</time>
      </trkpt>
      <trkpt lat="47.59992" lon="-3.14301">
        <ele>10</ele>
        <time>2012-03-14T15:56:16Z</time>
      </trkpt>
      <trkpt lat="47.59987" lon="-3.14295">
        <ele>6</ele>
        <time>2012-03-14T15:56:18Z</time>
      </trkpt>
      <trkpt lat="47.59982" lon="-3.14288">
        <ele>6</ele>
        <time>2012-03-14T15:56:21Z</time>
      </trkpt>
      <trkpt lat="47.59978" lon="-3.14282">
        <ele>7</ele>
        <time>2012-03-14T15:56:22Z</time>
      </trkpt>
      <trkpt lat="47.59975" lon="-3.14276">
        <ele>6</ele>
        <time>2012-03-14T15:56:24Z</time>
      </trkpt>
      <trkpt lat="47.59971" lon="-3.14268">
        <ele>6</ele>
        <time>2012-03-14T15:56:27Z</time>
      </trkpt>
      <trkpt lat="47.59965" lon="-3.14255">
        <ele>3</ele>
        <time>2012-03-14T15:56:33Z</time>
      </trkpt>
      <trkpt lat="47.59961" lon="-3.14249">
        <ele>4</ele>
        <time>2012-03-14T15:56:36Z</time>
      </trkpt>
      <trkpt lat="47.59945" lon="-3.14224">
        <ele>2</ele>
        <time>2012-03-14T15:56:43Z</time>
      </trkpt>
      <trkpt lat="47.5994" lon="-3.14218">
        <ele>3</ele>
        <time>2012-03-14T15:56:45Z</time>
      </trkpt>
      <trkpt lat="47.59936" lon="-3.14211">
        <ele>4</ele>
        <time>2012-03-14T15:56:47Z</time>
      </trkpt>
      <trkpt lat="47.59932" lon="-3.14205">
        <ele>4</ele>
        <time>2012-03-14T15:56:49Z</time>
      </trkpt>
      <trkpt lat="47.59928" lon="-3.14198">
        <ele>7</ele>
        <time>2012-03-14T15:56:51Z</time>
      </trkpt>
      <trkpt lat="47.59921" lon="-3.14188">
        <ele>7</ele>
        <time>2012-03-14T15:56:54Z</time>
      </trkpt>
      <trkpt lat="47.59914" lon="-3.14177">
        <ele>9</ele>
        <time>2012-03-14T15:56:57Z</time>
      </trkpt>
      <trkpt lat="47.59907" lon="-3.14168">
        <ele>5</ele>
        <time>2012-03-14T15:57:00Z</time>
      </trkpt>
      <trkpt lat="47.59892" lon="-3.14145">
        <ele>8</ele>
        <time>2012-03-14T15:57:09Z</time>
      </trkpt>
      <trkpt lat="47.59889" lon="-3.1414">
        <ele>10</ele>
        <time>2012-03-14T15:57:11Z</time>
      </trkpt>
      <trkpt lat="47.59874" lon="-3.14121">
        <ele>7</ele>
        <time>2012-03-14T15:57:19Z</time>
      </trkpt>
      <trkpt lat="47.59861" lon="-3.14103">
        <ele>10</ele>
        <time>2012-03-14T15:57:24Z</time>
      </trkpt>
      <trkpt lat="47.59843" lon="-3.14064">
        <ele>2</ele>
        <time>2012-03-14T15:57:33Z</time>
      </trkpt>
      <trkpt lat="47.59837" lon="-3.14051">
        <ele>4</ele>
        <time>2012-03-14T15:57:36Z</time>
      </trkpt>
      <trkpt lat="47.59829" lon="-3.14038">
        <ele>3</ele>
        <time>2012-03-14T15:57:40Z</time>
      </trkpt>
      <trkpt lat="47.59823" lon="-3.14026">
        <ele>3</ele>
        <time>2012-03-14T15:57:43Z</time>
      </trkpt>
      <trkpt lat="47.59817" lon="-3.14014">
        <ele>5.6</ele>
        <time>2012-03-14T15:57:46Z</time>
      </trkpt>
      <trkpt lat="47.59809" lon="-3.14001">
        <ele>5.9</ele>
        <time>2012-03-14T15:57:50Z</time>
      </trkpt>
      <trkpt lat="47.59802" lon="-3.1399">
        <ele>5.7</ele>
        <time>2012-03-14T15:57:53Z</time>
      </trkpt>
      <trkpt lat="47.59787" lon="-3.13962">
        <ele>4</ele>
        <time>2012-03-14T15:58:00Z</time>
      </trkpt>
      <trkpt lat="47.59783" lon="-3.13954">
        <ele>3</ele>
        <time>2012-03-14T15:58:02Z</time>
      </trkpt>
      <trkpt lat="47.59776" lon="-3.1394">
        <ele>5</ele>
        <time>2012-03-14T15:58:06Z</time>
      </trkpt>
      <trkpt lat="47.59773" lon="-3.13932">
        <ele>5</ele>
        <time>2012-03-14T15:58:08Z</time>
      </trkpt>
      <trkpt lat="47.59771" lon="-3.13925">
        <ele>4</ele>
        <time>2012-03-14T15:58:10Z</time>
      </trkpt>
      <trkpt lat="47.59765" lon="-3.13913">
        <ele>5</ele>
        <time>2012-03-14T15:58:14Z</time>
      </trkpt>
      <trkpt lat="47.59763" lon="-3.13905">
        <ele>1</ele>
        <time>2012-03-14T15:58:16Z</time>
      </trkpt>
      <trkpt lat="47.59755" lon="-3.13886">
        <ele>5.8</ele>
        <time>2012-03-14T15:58:21Z</time>
      </trkpt>
      <trkpt lat="47.59752" lon="-3.1388">
        <ele>3</ele>
        <time>2012-03-14T15:58:23Z</time>
      </trkpt>
      <trkpt lat="47.59749" lon="-3.13875">
        <ele>3</ele>
        <time>2012-03-14T15:58:25Z</time>
      </trkpt>
      <trkpt lat="47.59746" lon="-3.13869">
        <ele>6.2</ele>
        <time>2012-03-14T15:58:27Z</time>
      </trkpt>
      <trkpt lat="47.59739" lon="-3.13855">
        <ele>3</ele>
        <time>2012-03-14T15:58:31Z</time>
      </trkpt>
      <trkpt lat="47.59736" lon="-3.13846">
        <ele>3</ele>
        <time>2012-03-14T15:58:34Z</time>
      </trkpt>
      <trkpt lat="47.59733" lon="-3.1384">
        <ele>7.2</ele>
        <time>2012-03-14T15:58:36Z</time>
      </trkpt>
      <trkpt lat="47.5973" lon="-3.13833">
        <ele>2</ele>
        <time>2012-03-14T15:58:38Z</time>
      </trkpt>
      <trkpt lat="47.59726" lon="-3.13826">
        <ele>2</ele>
        <time>2012-03-14T15:58:40Z</time>
      </trkpt>
      <trkpt lat="47.5972" lon="-3.13812">
        <ele>6</ele>
        <time>2012-03-14T15:58:44Z</time>
      </trkpt>
      <trkpt lat="47.59714" lon="-3.13797">
        <ele>5</ele>
        <time>2012-03-14T15:58:48Z</time>
      </trkpt>
      <trkpt lat="47.59709" lon="-3.13786">
        <ele>5</ele>
        <time>2012-03-14T15:58:51Z</time>
      </trkpt>
      <trkpt lat="47.59703" lon="-3.13774">
        <ele>3</ele>
        <time>2012-03-14T15:58:54Z</time>
      </trkpt>
      <trkpt lat="47.59693" lon="-3.13754">
        <ele>5</ele>
        <time>2012-03-14T15:59:00Z</time>
      </trkpt>
      <trkpt lat="47.59689" lon="-3.13748">
        <ele>7</ele>
        <time>2012-03-14T15:59:02Z</time>
      </trkpt>
      <trkpt lat="47.59682" lon="-3.13738">
        <ele>3</ele>
        <time>2012-03-14T15:59:05Z</time>
      </trkpt>
      <trkpt lat="47.59673" lon="-3.13731">
        <ele>4</ele>
        <time>2012-03-14T15:59:08Z</time>
      </trkpt>
      <trkpt lat="47.59663" lon="-3.13722">
        <ele>6.3</ele>
        <time>2012-03-14T15:59:11Z</time>
      </trkpt>
      <trkpt lat="47.59651" lon="-3.1371">
        <ele>1</ele>
        <time>2012-03-14T15:59:15Z</time>
      </trkpt>
      <trkpt lat="47.59644" lon="-3.137">
        <ele>1</ele>
        <time>2012-03-14T15:59:18Z</time>
      </trkpt>
      <trkpt lat="47.59637" lon="-3.13688">
        <ele>7.5</ele>
        <time>2012-03-14T15:59:22Z</time>
      </trkpt>
      <trkpt lat="47.59633" lon="-3.13679">
        <ele>7.1</ele>
        <time>2012-03-14T15:59:24Z</time>
      </trkpt>
      <trkpt lat="47.59627" lon="-3.13667">
        <ele>3</ele>
        <time>2012-03-14T15:59:27Z</time>
      </trkpt>
      <trkpt lat="47.59621" lon="-3.13651">
        <ele>2</ele>
        <time>2012-03-14T15:59:30Z</time>
      </trkpt>
      <trkpt lat="47.59611" lon="-3.13623">
        <ele>2</ele>
        <time>2012-03-14T15:59:35Z</time>
      </trkpt>
      <trkpt lat="47.59606" lon="-3.13611">
        <ele>7</ele>
        <time>2012-03-14T15:59:37Z</time>
      </trkpt>
      <trkpt lat="47.596" lon="-3.13594">
        <ele>1</ele>
        <time>2012-03-14T15:59:40Z</time>
      </trkpt>
      <trkpt lat="47.59595" lon="-3.13578">
        <ele>6.4</ele>
        <time>2012-03-14T15:59:43Z</time>
      </trkpt>
      <trkpt lat="47.5959" lon="-3.13562">
        <ele>1</ele>
        <time>2012-03-14T15:59:46Z</time>
      </trkpt>
      <trkpt lat="47.59582" lon="-3.1354">
        <ele>5</ele>
        <time>2012-03-14T15:59:51Z</time>
      </trkpt>
      <trkpt lat="47.59572" lon="-3.13513">
        <ele>4</ele>
        <time>2012-03-14T15:59:56Z</time>
      </trkpt>
      <trkpt lat="47.59558" lon="-3.13467">
        <ele>6.6</ele>
        <time>2012-03-14T16:00:05Z</time>
      </trkpt>
      <trkpt lat="47.59543" lon="-3.13425">
        <ele>6.3</ele>
        <time>2012-03-14T16:00:14Z</time>
      </trkpt>
      <trkpt lat="47.59537" lon="-3.13411">
        <ele>1</ele>
        <time>2012-03-14T16:00:17Z</time>
      </trkpt>
      <trkpt lat="47.59532" lon="-3.13398">
        <ele>6.8</ele>
        <time>2012-03-14T16:00:20Z</time>
      </trkpt>
      <trkpt lat="47.59526" lon="-3.13384">
        <ele>1</ele>
        <time>2012-03-14T16:00:23Z</time>
      </trkpt>
      <trkpt lat="47.59521" lon="-3.1337">
        <ele>7</ele>
        <time>2012-03-14T16:00:26Z</time>
      </trkpt>
      <trkpt lat="47.59505" lon="-3.13318">
        <ele>6.9</ele>
        <time>2012-03-14T16:00:39Z</time>
      </trkpt>
      <trkpt lat="47.59519" lon="-3.13262">
        <ele>5.6</ele>
        <time>2012-03-14T16:00:52Z</time>
      </trkpt>
      <trkpt lat="47.59516" lon="-3.13255">
        <ele>2</ele>
        <time>2012-03-14T16:00:54Z</time>
      </trkpt>
      <trkpt lat="47.5951" lon="-3.13243">
        <ele>3</ele>
        <time>2012-03-14T16:00:57Z</time>
      </trkpt>
      <trkpt lat="47.59506" lon="-3.13236">
        <ele>2</ele>
        <time>2012-03-14T16:00:59Z</time>
      </trkpt>
      <trkpt lat="47.59515" lon="-3.13243">
        <ele>8</ele>
        <time>2012-03-14T16:01:13Z</time>
      </trkpt>
      <trkpt lat="47.59519" lon="-3.13247">
        <ele>6</ele>
        <time>2012-03-14T16:01:15Z</time>
      </trkpt>
      <trkpt lat="47.5953" lon="-3.13257">
        <ele>6</ele>
        <time>2012-03-14T16:01:18Z</time>
      </trkpt>
      <trkpt lat="47.59538" lon="-3.13269">
        <ele>7</ele>
        <time>2012-03-14T16:01:21Z</time>
      </trkpt>
      <trkpt lat="47.59547" lon="-3.13277">
        <ele>8</ele>
        <time>2012-03-14T16:01:23Z</time>
      </trkpt>
      <trkpt lat="47.59558" lon="-3.13282">
        <ele>7</ele>
        <time>2012-03-14T16:01:26Z</time>
      </trkpt>
      <trkpt lat="47.59564" lon="-3.13272">
        <ele>10</ele>
        <time>2012-03-14T16:01:29Z</time>
      </trkpt>
      <trkpt lat="47.59577" lon="-3.13226">
        <ele>3</ele>
        <time>2012-03-14T16:01:38Z</time>
      </trkpt>
      <trkpt lat="47.59585" lon="-3.13205">
        <ele>5</ele>
        <time>2012-03-14T16:01:42Z</time>
      </trkpt>
      <trkpt lat="47.59592" lon="-3.13187">
        <ele>4.8</ele>
        <time>2012-03-14T16:01:46Z</time>
      </trkpt>
      <trkpt lat="47.59602" lon="-3.13192">
        <ele>4.4</ele>
        <time>2012-03-14T16:01:50Z</time>
      </trkpt>
      <trkpt lat="47.59619" lon="-3.13226">
        <ele>4</ele>
        <time>2012-03-14T16:01:56Z</time>
      </trkpt>
      <trkpt lat="47.59622" lon="-3.13233">
        <ele>1</ele>
        <time>2012-03-14T16:01:57Z</time>
      </trkpt>
      <trkpt lat="47.59627" lon="-3.13245">
        <ele>2</ele>
        <time>2012-03-14T16:01:59Z</time>
      </trkpt>
      <trkpt lat="47.59643" lon="-3.13277">
        <ele>6</ele>
        <time>2012-03-14T16:02:05Z</time>
      </trkpt>
      <trkpt lat="47.59645" lon="-3.13282">
        <ele>5</ele>
        <time>2012-03-14T16:02:06Z</time>
      </trkpt>
      <trkpt lat="47.59654" lon="-3.13304">
        <ele>4</ele>
        <time>2012-03-14T16:02:10Z</time>
      </trkpt>
      <trkpt lat="47.59659" lon="-3.13315">
        <ele>5</ele>
        <time>2012-03-14T16:02:12Z</time>
      </trkpt>
      <trkpt lat="47.59663" lon="-3.13325">
        <ele>3</ele>
        <time>2012-03-14T16:02:14Z</time>
      </trkpt>
      <trkpt lat="47.5967" lon="-3.13341">
        <ele>4</ele>
        <time>2012-03-14T16:02:17Z</time>
      </trkpt>
      <trkpt lat="47.59675" lon="-3.13351">
        <ele>4</ele>
        <time>2012-03-14T16:02:19Z</time>
      </trkpt>
      <trkpt lat="47.59678" lon="-3.13361">
        <ele>2</ele>
        <time>2012-03-14T16:02:21Z</time>
      </trkpt>
      <trkpt lat="47.59687" lon="-3.1338">
        <ele>3</ele>
        <time>2012-03-14T16:02:25Z</time>
      </trkpt>
      <trkpt lat="47.59692" lon="-3.13391">
        <ele>3</ele>
        <time>2012-03-14T16:02:27Z</time>
      </trkpt>
      <trkpt lat="47.59717" lon="-3.13453">
        <ele>9</ele>
        <time>2012-03-14T16:02:39Z</time>
      </trkpt>
      <trkpt lat="47.59722" lon="-3.13462">
        <ele>8</ele>
        <time>2012-03-14T16:02:41Z</time>
      </trkpt>
      <trkpt lat="47.59726" lon="-3.13472">
        <ele>6</ele>
        <time>2012-03-14T16:02:43Z</time>
      </trkpt>
      <trkpt lat="47.59731" lon="-3.13482">
        <ele>7</ele>
        <time>2012-03-14T16:02:45Z</time>
      </trkpt>
      <trkpt lat="47.59736" lon="-3.13492">
        <ele>5</ele>
        <time>2012-03-14T16:02:47Z</time>
      </trkpt>
      <trkpt lat="47.5974" lon="-3.13501">
        <ele>6</ele>
        <time>2012-03-14T16:02:49Z</time>
      </trkpt>
      <trkpt lat="47.59745" lon="-3.13511">
        <ele>6</ele>
        <time>2012-03-14T16:02:51Z</time>
      </trkpt>
      <trkpt lat="47.5975" lon="-3.1352">
        <ele>7</ele>
        <time>2012-03-14T16:02:53Z</time>
      </trkpt>
      <trkpt lat="47.59759" lon="-3.13539">
        <ele>5</ele>
        <time>2012-03-14T16:02:57Z</time>
      </trkpt>
      <trkpt lat="47.59774" lon="-3.1357">
        <ele>6</ele>
        <time>2012-03-14T16:03:03Z</time>
      </trkpt>
      <trkpt lat="47.5978" lon="-3.1358">
        <ele>5</ele>
        <time>2012-03-14T16:03:05Z</time>
      </trkpt>
      <trkpt lat="47.59786" lon="-3.13589">
        <ele>6</ele>
        <time>2012-03-14T16:03:07Z</time>
      </trkpt>
      <trkpt lat="47.59789" lon="-3.13595">
        <ele>6</ele>
        <time>2012-03-14T16:03:08Z</time>
      </trkpt>
      <trkpt lat="47.59797" lon="-3.1361">
        <ele>6</ele>
        <time>2012-03-14T16:03:11Z</time>
      </trkpt>
      <trkpt lat="47.59805" lon="-3.13626">
        <ele>6</ele>
        <time>2012-03-14T16:03:14Z</time>
      </trkpt>
      <trkpt lat="47.59808" lon="-3.13631">
        <ele>6</ele>
        <time>2012-03-14T16:03:15Z</time>
      </trkpt>
      <trkpt lat="47.59811" lon="-3.13636">
        <ele>6</ele>
        <time>2012-03-14T16:03:16Z</time>
      </trkpt>
      <trkpt lat="47.59815" lon="-3.13641">
        <ele>6</ele>
        <time>2012-03-14T16:03:17Z</time>
      </trkpt>
      <trkpt lat="47.59842" lon="-3.13679">
        <ele>4</ele>
        <time>2012-03-14T16:03:26Z</time>
      </trkpt>
      <trkpt lat="47.59853" lon="-3.13691">
        <ele>6</ele>
        <time>2012-03-14T16:03:29Z</time>
      </trkpt>
      <trkpt lat="47.59857" lon="-3.13695">
        <ele>5</ele>
        <time>2012-03-14T16:03:30Z</time>
      </trkpt>
      <trkpt lat="47.59864" lon="-3.13701">
        <ele>5</ele>
        <time>2012-03-14T16:03:32Z</time>
      </trkpt>
      <trkpt lat="47.59883" lon="-3.13716">
        <ele>4</ele>
        <time>2012-03-14T16:03:37Z</time>
      </trkpt>
      <trkpt lat="47.59898" lon="-3.13728">
        <ele>3</ele>
        <time>2012-03-14T16:03:41Z</time>
      </trkpt>
      <trkpt lat="47.59906" lon="-3.13733">
        <ele>3</ele>
        <time>2012-03-14T16:03:43Z</time>
      </trkpt>
      <trkpt lat="47.59913" lon="-3.13741">
        <ele>6</ele>
        <time>2012-03-14T16:03:45Z</time>
      </trkpt>
      <trkpt lat="47.59915" lon="-3.13752">
        <ele>5</ele>
        <time>2012-03-14T16:03:47Z</time>
      </trkpt>
      <trkpt lat="47.59911" lon="-3.13775">
        <ele>2</ele>
        <time>2012-03-14T16:03:51Z</time>
      </trkpt>
      <trkpt lat="47.59909" lon="-3.13786">
        <ele>3</ele>
        <time>2012-03-14T16:03:53Z</time>
      </trkpt>
      <trkpt lat="47.59909" lon="-3.13797">
        <ele>2</ele>
        <time>2012-03-14T16:03:55Z</time>
      </trkpt>
      <trkpt lat="47.59912" lon="-3.13806">
        <ele>3</ele>
        <time>2012-03-14T16:03:57Z</time>
      </trkpt>
      <trkpt lat="47.59918" lon="-3.13815">
        <ele>4</ele>
        <time>2012-03-14T16:03:59Z</time>
      </trkpt>
      <trkpt lat="47.59924" lon="-3.13818">
        <ele>2</ele>
        <time>2012-03-14T16:04:01Z</time>
      </trkpt>
      <trkpt lat="47.5993" lon="-3.13815">
        <ele>3</ele>
        <time>2012-03-14T16:04:03Z</time>
      </trkpt>
      <trkpt lat="47.59951" lon="-3.13813">
        <ele>4.8</ele>
        <time>2012-03-14T16:04:09Z</time>
      </trkpt>
      <trkpt lat="47.59976" lon="-3.13819">
        <ele>4.5</ele>
        <time>2012-03-14T16:04:15Z</time>
      </trkpt>
      <trkpt lat="47.59988" lon="-3.13823">
        <ele>2</ele>
        <time>2012-03-14T16:04:18Z</time>
      </trkpt>
      <trkpt lat="47.59999" lon="-3.13825">
        <ele>4.7</ele>
        <time>2012-03-14T16:04:21Z</time>
      </trkpt>
      <trkpt lat="47.60011" lon="-3.13827">
        <ele>2</ele>
        <time>2012-03-14T16:04:24Z</time>
      </trkpt>
      <trkpt lat="47.60025" lon="-3.13829">
        <ele>3</ele>
        <time>2012-03-14T16:04:27Z</time>
      </trkpt>
      <trkpt lat="47.60038" lon="-3.1383">
        <ele>5</ele>
        <time>2012-03-14T16:04:30Z</time>
      </trkpt>
      <trkpt lat="47.60101" lon="-3.13839">
        <ele>5.1</ele>
        <time>2012-03-14T16:04:46Z</time>
      </trkpt>
      <trkpt lat="47.6011" lon="-3.13839">
        <ele>1</ele>
        <time>2012-03-14T16:04:48Z</time>
      </trkpt>
      <trkpt lat="47.60122" lon="-3.13839">
        <ele>5.5</ele>
        <time>2012-03-14T16:04:51Z</time>
      </trkpt>
      <trkpt lat="47.60134" lon="-3.13839">
        <ele>2</ele>
        <time>2012-03-14T16:04:54Z</time>
      </trkpt>
      <trkpt lat="47.60141" lon="-3.13839">
        <ele>1</ele>
        <time>2012-03-14T16:04:56Z</time>
      </trkpt>
      <trkpt lat="47.60149" lon="-3.13838">
        <ele>3</ele>
        <time>2012-03-14T16:04:58Z</time>
      </trkpt>
      <trkpt lat="47.60161" lon="-3.13837">
        <ele>3</ele>
        <time>2012-03-14T16:05:01Z</time>
      </trkpt>
      <trkpt lat="47.60169" lon="-3.13836">
        <ele>5</ele>
        <time>2012-03-14T16:05:03Z</time>
      </trkpt>
      <trkpt lat="47.60178" lon="-3.13835">
        <ele>4</ele>
        <time>2012-03-14T16:05:05Z</time>
      </trkpt>
      <trkpt lat="47.60191" lon="-3.13833">
        <ele>5</ele>
        <time>2012-03-14T16:05:08Z</time>
      </trkpt>
      <trkpt lat="47.60212" lon="-3.1383">
        <ele>7</ele>
        <time>2012-03-14T16:05:14Z</time>
      </trkpt>
      <trkpt lat="47.60224" lon="-3.13828">
        <ele>1</ele>
        <time>2012-03-14T16:05:17Z</time>
      </trkpt>
      <trkpt lat="47.60234" lon="-3.13828">
        <ele>2</ele>
        <time>2012-03-14T16:05:21Z</time>
      </trkpt>
      <trkpt lat="47.60247" lon="-3.13827">
        <ele>2</ele>
        <time>2012-03-14T16:05:23Z</time>
      </trkpt>
      <trkpt lat="47.60259" lon="-3.13826">
        <ele>3</ele>
        <time>2012-03-14T16:05:26Z</time>
      </trkpt>
      <trkpt lat="47.60269" lon="-3.13826">
        <ele>3</ele>
        <time>2012-03-14T16:05:29Z</time>
      </trkpt>
      <trkpt lat="47.60279" lon="-3.13826">
        <ele>6.4</ele>
        <time>2012-03-14T16:05:32Z</time>
      </trkpt>
      <trkpt lat="47.60337" lon="-3.13821">
        <ele>6</ele>
        <time>2012-03-14T16:05:50Z</time>
      </trkpt>
      <trkpt lat="47.60342" lon="-3.13814">
        <ele>6</ele>
        <time>2012-03-14T16:05:52Z</time>
      </trkpt>
      <trkpt lat="47.60349" lon="-3.13781">
        <ele>5.6</ele>
        <time>2012-03-14T16:06:00Z</time>
      </trkpt>
      <trkpt lat="47.60361" lon="-3.13644">
        <ele>3.2</ele>
        <time>2012-03-14T16:06:33Z</time>
      </trkpt>
      <trkpt lat="47.60399" lon="-3.13577">
        <ele>3.8</ele>
        <time>2012-03-14T16:06:52Z</time>
      </trkpt>
      <trkpt lat="47.60407" lon="-3.1357">
        <ele>1</ele>
        <time>2012-03-14T16:06:56Z</time>
      </trkpt>
      <trkpt lat="47.60411" lon="-3.13566">
        <ele>3</ele>
        <time>2012-03-14T16:06:58Z</time>
      </trkpt>
      <trkpt lat="47.60416" lon="-3.13563">
        <ele>3.3</ele>
        <time>2012-03-14T16:07:00Z</time>
      </trkpt>
      <trkpt lat="47.60449" lon="-3.13536">
        <ele>3.8</ele>
        <time>2012-03-14T16:07:16Z</time>
      </trkpt>
      <trkpt lat="47.60455" lon="-3.1353">
        <ele>3</ele>
        <time>2012-03-14T16:07:19Z</time>
      </trkpt>
      <trkpt lat="47.60459" lon="-3.13521">
        <ele>4</ele>
        <time>2012-03-14T16:07:21Z</time>
      </trkpt>
      <trkpt lat="47.60481" lon="-3.13472">
        <ele>5.3</ele>
        <time>2012-03-14T16:07:40Z</time>
      </trkpt>
      <trkpt lat="47.60477" lon="-3.13476">
        <ele>4.6</ele>
        <time>2012-03-14T16:08:00Z</time>
      </trkpt>
      <trkpt lat="47.60479" lon="-3.13483">
        <ele>4.7</ele>
        <time>2012-03-14T16:08:04Z</time>
      </trkpt>
      <trkpt lat="47.60493" lon="-3.13495">
        <ele>5.2</ele>
        <time>2012-03-14T16:08:12Z</time>
      </trkpt>
      <trkpt lat="47.60505" lon="-3.13505">
        <ele>5.8</ele>
        <time>2012-03-14T16:08:18Z</time>
      </trkpt>
      <trkpt lat="47.60512" lon="-3.13518">
        <ele>7</ele>
        <time>2012-03-14T16:08:23Z</time>
      </trkpt>
      <trkpt lat="47.60516" lon="-3.13522">
        <ele>7</ele>
        <time>2012-03-14T16:08:25Z</time>
      </trkpt>
      <trkpt lat="47.60521" lon="-3.13528">
        <ele>5</ele>
        <time>2012-03-14T16:08:28Z</time>
      </trkpt>
      <trkpt lat="47.60527" lon="-3.1353">
        <ele>5</ele>
        <time>2012-03-14T16:08:31Z</time>
      </trkpt>
      <trkpt lat="47.60533" lon="-3.13533">
        <ele>8</ele>
        <time>2012-03-14T16:08:34Z</time>
      </trkpt>
      <trkpt lat="47.60544" lon="-3.13537">
        <ele>9</ele>
        <time>2012-03-14T16:08:39Z</time>
      </trkpt>
      <trkpt lat="47.60552" lon="-3.1354">
        <ele>9.5</ele>
        <time>2012-03-14T16:08:43Z</time>
      </trkpt>
      <trkpt lat="47.60567" lon="-3.13548">
        <ele>8</ele>
        <time>2012-03-14T16:08:50Z</time>
      </trkpt>
      <trkpt lat="47.60573" lon="-3.13551">
        <ele>8</ele>
        <time>2012-03-14T16:08:53Z</time>
      </trkpt>
      <trkpt lat="47.60583" lon="-3.13556">
        <ele>11</ele>
        <time>2012-03-14T16:08:58Z</time>
      </trkpt>
      <trkpt lat="47.60589" lon="-3.13559">
        <ele>8</ele>
        <time>2012-03-14T16:09:01Z</time>
      </trkpt>
      <trkpt lat="47.60599" lon="-3.1356">
        <ele>10</ele>
        <time>2012-03-14T16:09:06Z</time>
      </trkpt>
      <trkpt lat="47.60629" lon="-3.13559">
        <ele>2</ele>
        <time>2012-03-14T16:09:22Z</time>
      </trkpt>
      <trkpt lat="47.60639" lon="-3.13551">
        <ele>10</ele>
        <time>2012-03-14T16:09:29Z</time>
      </trkpt>
      <trkpt lat="47.60643" lon="-3.13547">
        <ele>10</ele>
        <time>2012-03-14T16:09:32Z</time>
      </trkpt>
      <trkpt lat="47.60654" lon="-3.13547">
        <ele>14</ele>
        <time>2012-03-14T16:09:39Z</time>
      </trkpt>
      <trkpt lat="47.60657" lon="-3.13547">
        <ele>8</ele>
        <time>2012-03-14T16:09:48Z</time>
      </trkpt>
      <trkpt lat="47.60666" lon="-3.1354">
        <ele>11</ele>
        <time>2012-03-14T16:10:53Z</time>
      </trkpt>
      <trkpt lat="47.60677" lon="-3.13541">
        <ele>14</ele>
        <time>2012-03-14T16:10:58Z</time>
      </trkpt>
      <trkpt lat="47.60695" lon="-3.13544">
        <ele>5</ele>
        <time>2012-03-14T16:11:05Z</time>
      </trkpt>
      <trkpt lat="47.60701" lon="-3.1354">
        <ele>6</ele>
        <time>2012-03-14T16:11:09Z</time>
      </trkpt>
      <trkpt lat="47.60706" lon="-3.13538">
        <ele>7</ele>
        <time>2012-03-14T16:11:10Z</time>
      </trkpt>
      <trkpt lat="47.60711" lon="-3.13537">
        <ele>8</ele>
        <time>2012-03-14T16:11:13Z</time>
      </trkpt>
      <trkpt lat="47.60726" lon="-3.13528">
        <ele>15</ele>
        <time>2012-03-14T16:11:20Z</time>
      </trkpt>
      <trkpt lat="47.60731" lon="-3.13517">
        <ele>9</ele>
        <time>2012-03-14T16:11:23Z</time>
      </trkpt>
      <trkpt lat="47.60733" lon="-3.13506">
        <ele>13</ele>
        <time>2012-03-14T16:11:25Z</time>
      </trkpt>
      <trkpt lat="47.60735" lon="-3.13498">
        <ele>13</ele>
        <time>2012-03-14T16:11:28Z</time>
      </trkpt>
      <trkpt lat="47.60736" lon="-3.13491">
        <ele>12</ele>
        <time>2012-03-14T16:11:29Z</time>
      </trkpt>
      <trkpt lat="47.60736" lon="-3.13484">
        <ele>16</ele>
        <time>2012-03-14T16:11:31Z</time>
      </trkpt>
      <trkpt lat="47.60737" lon="-3.13477">
        <ele>10</ele>
        <time>2012-03-14T16:11:33Z</time>
      </trkpt>
      <trkpt lat="47.60737" lon="-3.1347">
        <ele>11</ele>
        <time>2012-03-14T16:11:35Z</time>
      </trkpt>
      <trkpt lat="47.60737" lon="-3.13463">
        <ele>7</ele>
        <time>2012-03-14T16:11:37Z</time>
      </trkpt>
      <trkpt lat="47.60735" lon="-3.13434">
        <ele>13</ele>
        <time>2012-03-14T16:11:45Z</time>
      </trkpt>
      <trkpt lat="47.60733" lon="-3.13426">
        <ele>11</ele>
        <time>2012-03-14T16:11:47Z</time>
      </trkpt>
      <trkpt lat="47.6073" lon="-3.13417">
        <ele>11</ele>
        <time>2012-03-14T16:11:49Z</time>
      </trkpt>
      <trkpt lat="47.60727" lon="-3.13407">
        <ele>10</ele>
        <time>2012-03-14T16:11:51Z</time>
      </trkpt>
      <trkpt lat="47.60721" lon="-3.13394">
        <ele>13</ele>
        <time>2012-03-14T16:11:54Z</time>
      </trkpt>
      <trkpt lat="47.60716" lon="-3.13385">
        <ele>13</ele>
        <time>2012-03-14T16:11:56Z</time>
      </trkpt>
      <trkpt lat="47.6071" lon="-3.13375">
        <ele>12</ele>
        <time>2012-03-14T16:11:58Z</time>
      </trkpt>
      <trkpt lat="47.60684" lon="-3.13347">
        <ele>18</ele>
        <time>2012-03-14T16:12:06Z</time>
      </trkpt>
      <trkpt lat="47.60673" lon="-3.13328">
        <ele>15</ele>
        <time>2012-03-14T16:12:10Z</time>
      </trkpt>
      <trkpt lat="47.60667" lon="-3.13312">
        <ele>17</ele>
        <time>2012-03-14T16:12:13Z</time>
      </trkpt>
      <trkpt lat="47.60661" lon="-3.13295">
        <ele>14</ele>
        <time>2012-03-14T16:12:16Z</time>
      </trkpt>
      <trkpt lat="47.60656" lon="-3.1328">
        <ele>16</ele>
        <time>2012-03-14T16:12:19Z</time>
      </trkpt>
      <trkpt lat="47.60653" lon="-3.1327">
        <ele>14</ele>
        <time>2012-03-14T16:12:21Z</time>
      </trkpt>
      <trkpt lat="47.6065" lon="-3.13259">
        <ele>15</ele>
        <time>2012-03-14T16:12:23Z</time>
      </trkpt>
      <trkpt lat="47.60646" lon="-3.13249">
        <ele>15</ele>
        <time>2012-03-14T16:12:26Z</time>
      </trkpt>
      <trkpt lat="47.60643" lon="-3.13239">
        <ele>12</ele>
        <time>2012-03-14T16:12:27Z</time>
      </trkpt>
      <trkpt lat="47.6064" lon="-3.1323">
        <ele>14</ele>
        <time>2012-03-14T16:12:29Z</time>
      </trkpt>
      <trkpt lat="47.60636" lon="-3.13219">
        <ele>14</ele>
        <time>2012-03-14T16:12:31Z</time>
      </trkpt>
      <trkpt lat="47.60634" lon="-3.13213">
        <ele>14</ele>
        <time>2012-03-14T16:12:32Z</time>
      </trkpt>
      <trkpt lat="47.60632" lon="-3.13207">
        <ele>13</ele>
        <time>2012-03-14T16:12:33Z</time>
      </trkpt>
      <trkpt lat="47.60622" lon="-3.13185">
        <ele>13</ele>
        <time>2012-03-14T16:12:38Z</time>
      </trkpt>
      <trkpt lat="47.60616" lon="-3.13178">
        <ele>16</ele>
        <time>2012-03-14T16:12:40Z</time>
      </trkpt>
      <trkpt lat="47.60609" lon="-3.13167">
        <ele>17</ele>
        <time>2012-03-14T16:12:43Z</time>
      </trkpt>
      <trkpt lat="47.60602" lon="-3.13156">
        <ele>18</ele>
        <time>2012-03-14T16:12:46Z</time>
      </trkpt>
      <trkpt lat="47.60594" lon="-3.13144">
        <ele>15</ele>
        <time>2012-03-14T16:12:49Z</time>
      </trkpt>
      <trkpt lat="47.60587" lon="-3.13135">
        <ele>15</ele>
        <time>2012-03-14T16:12:51Z</time>
      </trkpt>
      <trkpt lat="47.60576" lon="-3.13117">
        <ele>20</ele>
        <time>2012-03-14T16:12:55Z</time>
      </trkpt>
      <trkpt lat="47.60572" lon="-3.13108">
        <ele>19</ele>
        <time>2012-03-14T16:12:57Z</time>
      </trkpt>
      <trkpt lat="47.60565" lon="-3.13093">
        <ele>24</ele>
        <time>2012-03-14T16:13:01Z</time>
      </trkpt>
      <trkpt lat="47.60556" lon="-3.13069">
        <ele>20</ele>
        <time>2012-03-14T16:13:06Z</time>
      </trkpt>
      <trkpt lat="47.6055" lon="-3.13055">
        <ele>24</ele>
        <time>2012-03-14T16:13:09Z</time>
      </trkpt>
      <trkpt lat="47.60546" lon="-3.13043">
        <ele>19</ele>
        <time>2012-03-14T16:13:11Z</time>
      </trkpt>
      <trkpt lat="47.60543" lon="-3.13037">
        <ele>19</ele>
        <time>2012-03-14T16:13:12Z</time>
      </trkpt>
      <trkpt lat="47.60539" lon="-3.13027">
        <ele>18</ele>
        <time>2012-03-14T16:13:14Z</time>
      </trkpt>
      <trkpt lat="47.60536" lon="-3.13019">
        <ele>19</ele>
        <time>2012-03-14T16:13:16Z</time>
      </trkpt>
      <trkpt lat="47.60532" lon="-3.13011">
        <ele>16</ele>
        <time>2012-03-14T16:13:18Z</time>
      </trkpt>
      <trkpt lat="47.60523" lon="-3.12988">
        <ele>19</ele>
        <time>2012-03-14T16:13:24Z</time>
      </trkpt>
      <trkpt lat="47.60516" lon="-3.12969">
        <ele>25</ele>
        <time>2012-03-14T16:13:30Z</time>
      </trkpt>
      <trkpt lat="47.60511" lon="-3.1294">
        <ele>27</ele>
        <time>2012-03-14T16:13:37Z</time>
      </trkpt>
      <trkpt lat="47.60507" lon="-3.1287">
        <ele>18</ele>
        <time>2012-03-14T16:13:52Z</time>
      </trkpt>
      <trkpt lat="47.60506" lon="-3.12861">
        <ele>19</ele>
        <time>2012-03-14T16:13:54Z</time>
      </trkpt>
      <trkpt lat="47.60503" lon="-3.12824">
        <ele>16</ele>
        <time>2012-03-14T16:14:01Z</time>
      </trkpt>
      <trkpt lat="47.60502" lon="-3.12807">
        <ele>20</ele>
        <time>2012-03-14T16:14:04Z</time>
      </trkpt>
      <trkpt lat="47.605" lon="-3.1279">
        <ele>18</ele>
        <time>2012-03-14T16:14:07Z</time>
      </trkpt>
      <trkpt lat="47.60498" lon="-3.12777">
        <ele>19</ele>
        <time>2012-03-14T16:14:09Z</time>
      </trkpt>
      <trkpt lat="47.60494" lon="-3.1276">
        <ele>18</ele>
        <time>2012-03-14T16:14:12Z</time>
      </trkpt>
      <trkpt lat="47.60491" lon="-3.12743">
        <ele>17</ele>
        <time>2012-03-14T16:14:15Z</time>
      </trkpt>
      <trkpt lat="47.60476" lon="-3.12653">
        <ele>25</ele>
        <time>2012-03-14T16:14:33Z</time>
      </trkpt>
      <trkpt lat="47.60473" lon="-3.1264">
        <ele>24</ele>
        <time>2012-03-14T16:14:36Z</time>
      </trkpt>
      <trkpt lat="47.60455" lon="-3.12603">
        <ele>15</ele>
        <time>2012-03-14T16:14:45Z</time>
      </trkpt>
      <trkpt lat="47.60452" lon="-3.12597">
        <ele>16</ele>
        <time>2012-03-14T16:14:47Z</time>
      </trkpt>
      <trkpt lat="47.60449" lon="-3.1259">
        <ele>15</ele>
        <time>2012-03-14T16:14:49Z</time>
      </trkpt>
      <trkpt lat="47.60437" lon="-3.12573">
        <ele>16</ele>
        <time>2012-03-14T16:14:54Z</time>
      </trkpt>
      <trkpt lat="47.6043" lon="-3.12561">
        <ele>21</ele>
        <time>2012-03-14T16:14:58Z</time>
      </trkpt>
      <trkpt lat="47.60419" lon="-3.12544">
        <ele>18</ele>
        <time>2012-03-14T16:15:03Z</time>
      </trkpt>
      <trkpt lat="47.60413" lon="-3.12534">
        <ele>19</ele>
        <time>2012-03-14T16:15:06Z</time>
      </trkpt>
      <trkpt lat="47.60406" lon="-3.12524">
        <ele>18</ele>
        <time>2012-03-14T16:15:09Z</time>
      </trkpt>
      <trkpt lat="47.60402" lon="-3.12518">
        <ele>19</ele>
        <time>2012-03-14T16:15:11Z</time>
      </trkpt>
      <trkpt lat="47.60394" lon="-3.12503">
        <ele>23</ele>
        <time>2012-03-14T16:15:15Z</time>
      </trkpt>
      <trkpt lat="47.60389" lon="-3.12493">
        <ele>22</ele>
        <time>2012-03-14T16:15:17Z</time>
      </trkpt>
      <trkpt lat="47.60384" lon="-3.12483">
        <ele>27</ele>
        <time>2012-03-14T16:15:19Z</time>
      </trkpt>
      <trkpt lat="47.60359" lon="-3.12441">
        <ele>17</ele>
        <time>2012-03-14T16:15:29Z</time>
      </trkpt>
      <trkpt lat="47.60346" lon="-3.12427">
        <ele>21</ele>
        <time>2012-03-14T16:15:33Z</time>
      </trkpt>
      <trkpt lat="47.6034" lon="-3.12422">
        <ele>21</ele>
        <time>2012-03-14T16:15:35Z</time>
      </trkpt>
      <trkpt lat="47.6032" lon="-3.12403">
        <ele>21</ele>
        <time>2012-03-14T16:15:41Z</time>
      </trkpt>
      <trkpt lat="47.6031" lon="-3.1239">
        <ele>22</ele>
        <time>2012-03-14T16:15:44Z</time>
      </trkpt>
      <trkpt lat="47.60298" lon="-3.12377">
        <ele>17</ele>
        <time>2012-03-14T16:15:47Z</time>
      </trkpt>
      <trkpt lat="47.60293" lon="-3.12368">
        <ele>19</ele>
        <time>2012-03-14T16:15:49Z</time>
      </trkpt>
      <trkpt lat="47.60279" lon="-3.12349">
        <ele>15</ele>
        <time>2012-03-14T16:15:54Z</time>
      </trkpt>
      <trkpt lat="47.60241" lon="-3.12324">
        <ele>23</ele>
        <time>2012-03-14T16:16:03Z</time>
      </trkpt>
      <trkpt lat="47.60225" lon="-3.1231">
        <ele>13</ele>
        <time>2012-03-14T16:16:07Z</time>
      </trkpt>
      <trkpt lat="47.60216" lon="-3.12302">
        <ele>17</ele>
        <time>2012-03-14T16:16:09Z</time>
      </trkpt>
      <trkpt lat="47.60207" lon="-3.12295">
        <ele>15</ele>
        <time>2012-03-14T16:16:11Z</time>
      </trkpt>
      <trkpt lat="47.60196" lon="-3.12285">
        <ele>17</ele>
        <time>2012-03-14T16:16:14Z</time>
      </trkpt>
      <trkpt lat="47.60183" lon="-3.12264">
        <ele>12</ele>
        <time>2012-03-14T16:16:18Z</time>
      </trkpt>
      <trkpt lat="47.60175" lon="-3.12245">
        <ele>14</ele>
        <time>2012-03-14T16:16:22Z</time>
      </trkpt>
      <trkpt lat="47.60168" lon="-3.12233">
        <ele>13</ele>
        <time>2012-03-14T16:16:25Z</time>
      </trkpt>
      <trkpt lat="47.60156" lon="-3.12212">
        <ele>19</ele>
        <time>2012-03-14T16:16:31Z</time>
      </trkpt>
      <trkpt lat="47.60147" lon="-3.1219">
        <ele>16</ele>
        <time>2012-03-14T16:16:37Z</time>
      </trkpt>
      <trkpt lat="47.60135" lon="-3.12164">
        <ele>21</ele>
        <time>2012-03-14T16:16:44Z</time>
      </trkpt>
      <trkpt lat="47.60129" lon="-3.12153">
        <ele>21</ele>
        <time>2012-03-14T16:16:47Z</time>
      </trkpt>
      <trkpt lat="47.60123" lon="-3.12142">
        <ele>25</ele>
        <time>2012-03-14T16:16:50Z</time>
      </trkpt>
      <trkpt lat="47.60115" lon="-3.12132">
        <ele>23</ele>
        <time>2012-03-14T16:16:53Z</time>
      </trkpt>
      <trkpt lat="47.60108" lon="-3.12123">
        <ele>25</ele>
        <time>2012-03-14T16:16:56Z</time>
      </trkpt>
      <trkpt lat="47.601" lon="-3.12113">
        <ele>25</ele>
        <time>2012-03-14T16:16:59Z</time>
      </trkpt>
      <trkpt lat="47.60092" lon="-3.12102">
        <ele>22</ele>
        <time>2012-03-14T16:17:03Z</time>
      </trkpt>
      <trkpt lat="47.60077" lon="-3.12085">
        <ele>21</ele>
        <time>2012-03-14T16:17:09Z</time>
      </trkpt>
      <trkpt lat="47.6007" lon="-3.12077">
        <ele>22</ele>
        <time>2012-03-14T16:17:12Z</time>
      </trkpt>
      <trkpt lat="47.60061" lon="-3.12067">
        <ele>29</ele>
        <time>2012-03-14T16:17:15Z</time>
      </trkpt>
      <trkpt lat="47.60051" lon="-3.12055">
        <ele>27</ele>
        <time>2012-03-14T16:17:19Z</time>
      </trkpt>
      <trkpt lat="47.60047" lon="-3.12049">
        <ele>27</ele>
        <time>2012-03-14T16:17:21Z</time>
      </trkpt>
      <trkpt lat="47.60036" lon="-3.12037">
        <ele>23</ele>
        <time>2012-03-14T16:17:25Z</time>
      </trkpt>
      <trkpt lat="47.6003" lon="-3.12031">
        <ele>23</ele>
        <time>2012-03-14T16:17:27Z</time>
      </trkpt>
      <trkpt lat="47.60021" lon="-3.1202">
        <ele>24</ele>
        <time>2012-03-14T16:17:31Z</time>
      </trkpt>
      <trkpt lat="47.60009" lon="-3.12005">
        <ele>18</ele>
        <time>2012-03-14T16:17:36Z</time>
      </trkpt>
      <trkpt lat="47.59997" lon="-3.1199">
        <ele>23</ele>
        <time>2012-03-14T16:17:42Z</time>
      </trkpt>
      <trkpt lat="47.59989" lon="-3.11981">
        <ele>23</ele>
        <time>2012-03-14T16:17:46Z</time>
      </trkpt>
      <trkpt lat="47.59974" lon="-3.1196">
        <ele>11</ele>
        <time>2012-03-14T16:17:51Z</time>
      </trkpt>
      <trkpt lat="47.59958" lon="-3.11939">
        <ele>18</ele>
        <time>2012-03-14T16:17:57Z</time>
      </trkpt>
      <trkpt lat="47.59952" lon="-3.11932">
        <ele>18</ele>
        <time>2012-03-14T16:17:59Z</time>
      </trkpt>
      <trkpt lat="47.59947" lon="-3.11927">
        <ele>22</ele>
        <time>2012-03-14T16:18:01Z</time>
      </trkpt>
      <trkpt lat="47.59935" lon="-3.11912">
        <ele>19</ele>
        <time>2012-03-14T16:18:06Z</time>
      </trkpt>
      <trkpt lat="47.59929" lon="-3.11902">
        <ele>21</ele>
        <time>2012-03-14T16:18:08Z</time>
      </trkpt>
      <trkpt lat="47.59915" lon="-3.11873">
        <ele>18</ele>
        <time>2012-03-14T16:18:14Z</time>
      </trkpt>
      <trkpt lat="47.59908" lon="-3.11858">
        <ele>20</ele>
        <time>2012-03-14T16:18:17Z</time>
      </trkpt>
      <trkpt lat="47.59901" lon="-3.11842">
        <ele>20</ele>
        <time>2012-03-14T16:18:20Z</time>
      </trkpt>
      <trkpt lat="47.59899" lon="-3.11836">
        <ele>18</ele>
        <time>2012-03-14T16:18:21Z</time>
      </trkpt>
      <trkpt lat="47.59894" lon="-3.11823">
        <ele>20</ele>
        <time>2012-03-14T16:18:23Z</time>
      </trkpt>
      <trkpt lat="47.59892" lon="-3.11817">
        <ele>17</ele>
        <time>2012-03-14T16:18:24Z</time>
      </trkpt>
      <trkpt lat="47.59886" lon="-3.11801">
        <ele>18</ele>
        <time>2012-03-14T16:18:27Z</time>
      </trkpt>
      <trkpt lat="47.59881" lon="-3.11788">
        <ele>16</ele>
        <time>2012-03-14T16:18:29Z</time>
      </trkpt>
      <trkpt lat="47.59872" lon="-3.11764">
        <ele>15</ele>
        <time>2012-03-14T16:18:34Z</time>
      </trkpt>
      <trkpt lat="47.59872" lon="-3.11755">
        <ele>13</ele>
        <time>2012-03-14T16:18:36Z</time>
      </trkpt>
      <trkpt lat="47.59877" lon="-3.11739">
        <ele>16</ele>
        <time>2012-03-14T16:18:40Z</time>
      </trkpt>
      <trkpt lat="47.59882" lon="-3.11731">
        <ele>15</ele>
        <time>2012-03-14T16:18:42Z</time>
      </trkpt>
      <trkpt lat="47.59885" lon="-3.11721">
        <ele>16</ele>
        <time>2012-03-14T16:18:44Z</time>
      </trkpt>
      <trkpt lat="47.59889" lon="-3.11705">
        <ele>11</ele>
        <time>2012-03-14T16:18:47Z</time>
      </trkpt>
      <trkpt lat="47.59894" lon="-3.11685">
        <ele>11</ele>
        <time>2012-03-14T16:18:51Z</time>
      </trkpt>
      <trkpt lat="47.59897" lon="-3.1167">
        <ele>9</ele>
        <time>2012-03-14T16:18:54Z</time>
      </trkpt>
      <trkpt lat="47.599" lon="-3.11661">
        <ele>16</ele>
        <time>2012-03-14T16:18:56Z</time>
      </trkpt>
      <trkpt lat="47.59902" lon="-3.11653">
        <ele>15</ele>
        <time>2012-03-14T16:18:58Z</time>
      </trkpt>
      <trkpt lat="47.59905" lon="-3.11644">
        <ele>15</ele>
        <time>2012-03-14T16:19:00Z</time>
      </trkpt>
      <trkpt lat="47.59907" lon="-3.11634">
        <ele>17</ele>
        <time>2012-03-14T16:19:02Z</time>
      </trkpt>
      <trkpt lat="47.59909" lon="-3.11625">
        <ele>17</ele>
        <time>2012-03-14T16:19:04Z</time>
      </trkpt>
      <trkpt lat="47.59912" lon="-3.11617">
        <ele>17</ele>
        <time>2012-03-14T16:19:06Z</time>
      </trkpt>
      <trkpt lat="47.59914" lon="-3.11609">
        <ele>13</ele>
        <time>2012-03-14T16:19:08Z</time>
      </trkpt>
      <trkpt lat="47.59918" lon="-3.11593">
        <ele>11</ele>
        <time>2012-03-14T16:19:12Z</time>
      </trkpt>
      <trkpt lat="47.59921" lon="-3.11584">
        <ele>15</ele>
        <time>2012-03-14T16:19:14Z</time>
      </trkpt>
      <trkpt lat="47.59922" lon="-3.11574">
        <ele>13</ele>
        <time>2012-03-14T16:19:16Z</time>
      </trkpt>
      <trkpt lat="47.59925" lon="-3.11566">
        <ele>15</ele>
        <time>2012-03-14T16:19:18Z</time>
      </trkpt>
      <trkpt lat="47.59929" lon="-3.1155">
        <ele>10</ele>
        <time>2012-03-14T16:19:22Z</time>
      </trkpt>
      <trkpt lat="47.59933" lon="-3.11538">
        <ele>11</ele>
        <time>2012-03-14T16:19:25Z</time>
      </trkpt>
      <trkpt lat="47.59936" lon="-3.11514">
        <ele>17</ele>
        <time>2012-03-14T16:19:31Z</time>
      </trkpt>
      <trkpt lat="47.59935" lon="-3.11507">
        <ele>17</ele>
        <time>2012-03-14T16:19:33Z</time>
      </trkpt>
      <trkpt lat="47.59933" lon="-3.11498">
        <ele>18</ele>
        <time>2012-03-14T16:19:35Z</time>
      </trkpt>
      <trkpt lat="47.5993" lon="-3.11489">
        <ele>14</ele>
        <time>2012-03-14T16:19:37Z</time>
      </trkpt>
      <trkpt lat="47.59929" lon="-3.1148">
        <ele>15</ele>
        <time>2012-03-14T16:19:39Z</time>
      </trkpt>
      <trkpt lat="47.59921" lon="-3.11469">
        <ele>21</ele>
        <time>2012-03-14T16:19:44Z</time>
      </trkpt>
      <trkpt lat="47.59915" lon="-3.11467">
        <ele>22</ele>
        <time>2012-03-14T16:19:46Z</time>
      </trkpt>
      <trkpt lat="47.599" lon="-3.11465">
        <ele>17</ele>
        <time>2012-03-14T16:19:52Z</time>
      </trkpt>
      <trkpt lat="47.59891" lon="-3.11459">
        <ele>22</ele>
        <time>2012-03-14T16:19:56Z</time>
      </trkpt>
      <trkpt lat="47.59877" lon="-3.11448">
        <ele>15</ele>
        <time>2012-03-14T16:20:02Z</time>
      </trkpt>
      <trkpt lat="47.59873" lon="-3.11443">
        <ele>15</ele>
        <time>2012-03-14T16:20:04Z</time>
      </trkpt>
      <trkpt lat="47.59869" lon="-3.11439">
        <ele>13</ele>
        <time>2012-03-14T16:20:06Z</time>
      </trkpt>
      <trkpt lat="47.5987" lon="-3.11431">
        <ele>18</ele>
        <time>2012-03-14T16:20:21Z</time>
      </trkpt>
      <trkpt lat="47.59864" lon="-3.11424">
        <ele>19</ele>
        <time>2012-03-14T16:20:24Z</time>
      </trkpt>
      <trkpt lat="47.59856" lon="-3.11415">
        <ele>16</ele>
        <time>2012-03-14T16:20:28Z</time>
      </trkpt>
      <trkpt lat="47.59846" lon="-3.11411">
        <ele>18</ele>
        <time>2012-03-14T16:20:33Z</time>
      </trkpt>
      <trkpt lat="47.59837" lon="-3.11413">
        <ele>14</ele>
        <time>2012-03-14T16:20:38Z</time>
      </trkpt>
      <trkpt lat="47.59835" lon="-3.11406">
        <ele>11</ele>
        <time>2012-03-14T16:20:43Z</time>
      </trkpt>
      <trkpt lat="47.5983" lon="-3.11393">
        <ele>9</ele>
        <time>2012-03-14T16:20:50Z</time>
      </trkpt>
      <trkpt lat="47.5982" lon="-3.1139">
        <ele>7</ele>
        <time>2012-03-14T16:20:53Z</time>
      </trkpt>
      <trkpt lat="47.59796" lon="-3.11386">
        <ele>16</ele>
        <time>2012-03-14T16:21:01Z</time>
      </trkpt>
      <trkpt lat="47.5979" lon="-3.11387">
        <ele>15</ele>
        <time>2012-03-14T16:21:03Z</time>
      </trkpt>
      <trkpt lat="47.59775" lon="-3.11391">
        <ele>18</ele>
        <time>2012-03-14T16:21:09Z</time>
      </trkpt>
      <trkpt lat="47.59764" lon="-3.11394">
        <ele>16</ele>
        <time>2012-03-14T16:21:14Z</time>
      </trkpt>
      <trkpt lat="47.59756" lon="-3.11402">
        <ele>17</ele>
        <time>2012-03-14T16:21:17Z</time>
      </trkpt>
      <trkpt lat="47.59745" lon="-3.11408">
        <ele>14</ele>
        <time>2012-03-14T16:21:20Z</time>
      </trkpt>
      <trkpt lat="47.59733" lon="-3.11408">
        <ele>16</ele>
        <time>2012-03-14T16:21:23Z</time>
      </trkpt>
      <trkpt lat="47.59725" lon="-3.114">
        <ele>15</ele>
        <time>2012-03-14T16:21:27Z</time>
      </trkpt>
      <trkpt lat="47.59719" lon="-3.1139">
        <ele>17</ele>
        <time>2012-03-14T16:21:31Z</time>
      </trkpt>
      <trkpt lat="47.59711" lon="-3.11398">
        <ele>14</ele>
        <time>2012-03-14T16:21:35Z</time>
      </trkpt>
      <trkpt lat="47.59698" lon="-3.11411">
        <ele>9</ele>
        <time>2012-03-14T16:21:42Z</time>
      </trkpt>
      <trkpt lat="47.59689" lon="-3.1142">
        <ele>15</ele>
        <time>2012-03-14T16:21:46Z</time>
      </trkpt>
      <trkpt lat="47.5968" lon="-3.11429">
        <ele>12</ele>
        <time>2012-03-14T16:21:49Z</time>
      </trkpt>
      <trkpt lat="47.59648" lon="-3.11455">
        <ele>21</ele>
        <time>2012-03-14T16:21:58Z</time>
      </trkpt>
      <trkpt lat="47.5964" lon="-3.1146">
        <ele>21</ele>
        <time>2012-03-14T16:22:06Z</time>
      </trkpt>
      <trkpt lat="47.59638" lon="-3.11457">
        <ele>21.1</ele>
        <time>2012-03-14T16:22:51Z</time>
      </trkpt>
      <trkpt lat="47.59635" lon="-3.11453">
        <ele>21.3</ele>
        <time>2012-03-14T16:23:21Z</time>
      </trkpt>
      <trkpt lat="47.59636" lon="-3.11463">
        <ele>19</ele>
        <time>2012-03-14T16:23:33Z</time>
      </trkpt>
      <trkpt lat="47.59636" lon="-3.11479">
        <ele>19</ele>
        <time>2012-03-14T16:23:36Z</time>
      </trkpt>
      <trkpt lat="47.59637" lon="-3.11493">
        <ele>18</ele>
        <time>2012-03-14T16:23:38Z</time>
      </trkpt>
      <trkpt lat="47.59636" lon="-3.11512">
        <ele>22</ele>
        <time>2012-03-14T16:23:41Z</time>
      </trkpt>
      <trkpt lat="47.59634" lon="-3.11525">
        <ele>21</ele>
        <time>2012-03-14T16:23:43Z</time>
      </trkpt>
      <trkpt lat="47.59628" lon="-3.11573">
        <ele>20</ele>
        <time>2012-03-14T16:23:50Z</time>
      </trkpt>
      <trkpt lat="47.59627" lon="-3.11587">
        <ele>21</ele>
        <time>2012-03-14T16:23:52Z</time>
      </trkpt>
      <trkpt lat="47.59624" lon="-3.11611">
        <ele>18</ele>
        <time>2012-03-14T16:23:56Z</time>
      </trkpt>
      <trkpt lat="47.5962" lon="-3.11628">
        <ele>17</ele>
        <time>2012-03-14T16:24:00Z</time>
      </trkpt>
      <trkpt lat="47.59621" lon="-3.11626">
        <ele>12</ele>
        <time>2012-03-14T16:25:08Z</time>
      </trkpt>
      <trkpt lat="47.59623" lon="-3.11609">
        <ele>9</ele>
        <time>2012-03-14T16:25:13Z</time>
      </trkpt>
      <trkpt lat="47.59625" lon="-3.11599">
        <ele>9</ele>
        <time>2012-03-14T16:25:14Z</time>
      </trkpt>
      <trkpt lat="47.59627" lon="-3.11589">
        <ele>7</ele>
        <time>2012-03-14T16:25:16Z</time>
      </trkpt>
      <trkpt lat="47.59629" lon="-3.11568">
        <ele>12</ele>
        <time>2012-03-14T16:25:20Z</time>
      </trkpt>
      <trkpt lat="47.59631" lon="-3.11553">
        <ele>9</ele>
        <time>2012-03-14T16:25:23Z</time>
      </trkpt>
      <trkpt lat="47.59632" lon="-3.11539">
        <ele>10</ele>
        <time>2012-03-14T16:25:26Z</time>
      </trkpt>
      <trkpt lat="47.59633" lon="-3.11531">
        <ele>12</ele>
        <time>2012-03-14T16:25:28Z</time>
      </trkpt>
      <trkpt lat="47.59634" lon="-3.11522">
        <ele>11</ele>
        <time>2012-03-14T16:25:30Z</time>
      </trkpt>
      <trkpt lat="47.59635" lon="-3.11508">
        <ele>12</ele>
        <time>2012-03-14T16:25:33Z</time>
      </trkpt>
      <trkpt lat="47.59637" lon="-3.11495">
        <ele>14</ele>
        <time>2012-03-14T16:25:36Z</time>
      </trkpt>
      <trkpt lat="47.59638" lon="-3.11486">
        <ele>12</ele>
        <time>2012-03-14T16:25:39Z</time>
      </trkpt>
      <trkpt lat="47.59639" lon="-3.11477">
        <ele>13</ele>
        <time>2012-03-14T16:25:40Z</time>
      </trkpt>
      <trkpt lat="47.59639" lon="-3.11468">
        <ele>13</ele>
        <time>2012-03-14T16:25:43Z</time>
      </trkpt>
      <trkpt lat="47.59642" lon="-3.11443">
        <ele>1</ele>
        <time>2012-03-14T16:25:49Z</time>
      </trkpt>
      <trkpt lat="47.59639" lon="-3.11413">
        <ele>16</ele>
        <time>2012-03-14T16:25:59Z</time>
      </trkpt>
      <trkpt lat="47.59639" lon="-3.11405">
        <ele>13</ele>
        <time>2012-03-14T16:26:01Z</time>
      </trkpt>
      <trkpt lat="47.59637" lon="-3.11373">
        <ele>22</ele>
        <time>2012-03-14T16:26:13Z</time>
      </trkpt>
      <trkpt lat="47.59635" lon="-3.11359">
        <ele>18</ele>
        <time>2012-03-14T16:26:17Z</time>
      </trkpt>
      <trkpt lat="47.59634" lon="-3.11344">
        <ele>19</ele>
        <time>2012-03-14T16:26:23Z</time>
      </trkpt>
      <trkpt lat="47.59634" lon="-3.11328">
        <ele>25</ele>
        <time>2012-03-14T16:26:26Z</time>
      </trkpt>
      <trkpt lat="47.5963" lon="-3.11296">
        <ele>27</ele>
        <time>2012-03-14T16:26:34Z</time>
      </trkpt>
      <trkpt lat="47.59628" lon="-3.1128">
        <ele>25</ele>
        <time>2012-03-14T16:26:37Z</time>
      </trkpt>
      <trkpt lat="47.5962" lon="-3.1127">
        <ele>23</ele>
        <time>2012-03-14T16:26:40Z</time>
      </trkpt>
      <trkpt lat="47.59614" lon="-3.1127">
        <ele>22</ele>
        <time>2012-03-14T16:26:42Z</time>
      </trkpt>
      <trkpt lat="47.59608" lon="-3.11272">
        <ele>25</ele>
        <time>2012-03-14T16:26:44Z</time>
      </trkpt>
      <trkpt lat="47.59599" lon="-3.11273">
        <ele>26</ele>
        <time>2012-03-14T16:26:46Z</time>
      </trkpt>
      <trkpt lat="47.59591" lon="-3.11273">
        <ele>24</ele>
        <time>2012-03-14T16:26:48Z</time>
      </trkpt>
      <trkpt lat="47.59581" lon="-3.11273">
        <ele>24</ele>
        <time>2012-03-14T16:26:51Z</time>
      </trkpt>
      <trkpt lat="47.59572" lon="-3.11274">
        <ele>25</ele>
        <time>2012-03-14T16:26:53Z</time>
      </trkpt>
      <trkpt lat="47.59567" lon="-3.11274">
        <ele>25</ele>
        <time>2012-03-14T16:26:55Z</time>
      </trkpt>
      <trkpt lat="47.59559" lon="-3.11274">
        <ele>26</ele>
        <time>2012-03-14T16:26:56Z</time>
      </trkpt>
      <trkpt lat="47.59554" lon="-3.11274">
        <ele>26</ele>
        <time>2012-03-14T16:26:57Z</time>
      </trkpt>
      <trkpt lat="47.59529" lon="-3.11268">
        <ele>18</ele>
        <time>2012-03-14T16:27:02Z</time>
      </trkpt>
      <trkpt lat="47.59519" lon="-3.11261">
        <ele>21</ele>
        <time>2012-03-14T16:27:04Z</time>
      </trkpt>
      <trkpt lat="47.59505" lon="-3.11248">
        <ele>20</ele>
        <time>2012-03-14T16:27:07Z</time>
      </trkpt>
      <trkpt lat="47.595" lon="-3.11244">
        <ele>22</ele>
        <time>2012-03-14T16:27:09Z</time>
      </trkpt>
      <trkpt lat="47.59495" lon="-3.11241">
        <ele>22</ele>
        <time>2012-03-14T16:27:09Z</time>
      </trkpt>
      <trkpt lat="47.59491" lon="-3.11238">
        <ele>23</ele>
        <time>2012-03-14T16:27:10Z</time>
      </trkpt>
      <trkpt lat="47.59486" lon="-3.11236">
        <ele>20</ele>
        <time>2012-03-14T16:27:11Z</time>
      </trkpt>
      <trkpt lat="47.59475" lon="-3.11232">
        <ele>22</ele>
        <time>2012-03-14T16:27:13Z</time>
      </trkpt>
      <trkpt lat="47.5947" lon="-3.11231">
        <ele>20</ele>
        <time>2012-03-14T16:27:14Z</time>
      </trkpt>
      <trkpt lat="47.59463" lon="-3.1123">
        <ele>20</ele>
        <time>2012-03-14T16:27:15Z</time>
      </trkpt>
      <trkpt lat="47.59444" lon="-3.11229">
        <ele>19</ele>
        <time>2012-03-14T16:27:18Z</time>
      </trkpt>
      <trkpt lat="47.59438" lon="-3.11229">
        <ele>18</ele>
        <time>2012-03-14T16:27:19Z</time>
      </trkpt>
      <trkpt lat="47.59415" lon="-3.11231">
        <ele>17</ele>
        <time>2012-03-14T16:27:23Z</time>
      </trkpt>
      <trkpt lat="47.59404" lon="-3.11233">
        <ele>19</ele>
        <time>2012-03-14T16:27:25Z</time>
      </trkpt>
      <trkpt lat="47.59366" lon="-3.11237">
        <ele>10</ele>
        <time>2012-03-14T16:27:32Z</time>
      </trkpt>
      <trkpt lat="47.5936" lon="-3.11237">
        <ele>10</ele>
        <time>2012-03-14T16:27:33Z</time>
      </trkpt>
      <trkpt lat="47.59355" lon="-3.11238">
        <ele>7</ele>
        <time>2012-03-14T16:27:34Z</time>
      </trkpt>
      <trkpt lat="47.59344" lon="-3.11239">
        <ele>9</ele>
        <time>2012-03-14T16:27:36Z</time>
      </trkpt>
      <trkpt lat="47.59339" lon="-3.1124">
        <ele>8</ele>
        <time>2012-03-14T16:27:37Z</time>
      </trkpt>
      <trkpt lat="47.59334" lon="-3.11241">
        <ele>9</ele>
        <time>2012-03-14T16:27:38Z</time>
      </trkpt>
      <trkpt lat="47.59329" lon="-3.11241">
        <ele>11</ele>
        <time>2012-03-14T16:27:39Z</time>
      </trkpt>
      <trkpt lat="47.59316" lon="-3.11239">
        <ele>10</ele>
        <time>2012-03-14T16:27:43Z</time>
      </trkpt>
      <trkpt lat="47.59308" lon="-3.11237">
        <ele>9</ele>
        <time>2012-03-14T16:27:44Z</time>
      </trkpt>
      <trkpt lat="47.59303" lon="-3.11236">
        <ele>11</ele>
        <time>2012-03-14T16:27:45Z</time>
      </trkpt>
      <trkpt lat="47.5929" lon="-3.11233">
        <ele>10</ele>
        <time>2012-03-14T16:27:48Z</time>
      </trkpt>
      <trkpt lat="47.59282" lon="-3.1123">
        <ele>11</ele>
        <time>2012-03-14T16:27:50Z</time>
      </trkpt>
      <trkpt lat="47.59273" lon="-3.11228">
        <ele>12</ele>
        <time>2012-03-14T16:27:53Z</time>
      </trkpt>
      <trkpt lat="47.59262" lon="-3.11224">
        <ele>11</ele>
        <time>2012-03-14T16:27:55Z</time>
      </trkpt>
      <trkpt lat="47.59253" lon="-3.11221">
        <ele>13</ele>
        <time>2012-03-14T16:27:57Z</time>
      </trkpt>
      <trkpt lat="47.59242" lon="-3.11216">
        <ele>13</ele>
        <time>2012-03-14T16:28:00Z</time>
      </trkpt>
      <trkpt lat="47.59221" lon="-3.11204">
        <ele>9</ele>
        <time>2012-03-14T16:28:07Z</time>
      </trkpt>
      <trkpt lat="47.59203" lon="-3.11186">
        <ele>7</ele>
        <time>2012-03-14T16:28:12Z</time>
      </trkpt>
      <trkpt lat="47.59186" lon="-3.11174">
        <ele>14</ele>
        <time>2012-03-14T16:28:18Z</time>
      </trkpt>
      <trkpt lat="47.59179" lon="-3.11172">
        <ele>13</ele>
        <time>2012-03-14T16:28:20Z</time>
      </trkpt>
      <trkpt lat="47.59163" lon="-3.11176">
        <ele>19</ele>
        <time>2012-03-14T16:28:25Z</time>
      </trkpt>
      <trkpt lat="47.59154" lon="-3.11182">
        <ele>19</ele>
        <time>2012-03-14T16:28:28Z</time>
      </trkpt>
      <trkpt lat="47.59142" lon="-3.11192">
        <ele>11</ele>
        <time>2012-03-14T16:28:32Z</time>
      </trkpt>
      <trkpt lat="47.59138" lon="-3.11196">
        <ele>13</ele>
        <time>2012-03-14T16:28:35Z</time>
      </trkpt>
      <trkpt lat="47.59134" lon="-3.1119">
        <ele>11</ele>
        <time>2012-03-14T16:28:39Z</time>
      </trkpt>
      <trkpt lat="47.59135" lon="-3.1117">
        <ele>6</ele>
        <time>2012-03-14T16:28:44Z</time>
      </trkpt>
      <trkpt lat="47.59137" lon="-3.11161">
        <ele>5</ele>
        <time>2012-03-14T16:28:47Z</time>
      </trkpt>
      <trkpt lat="47.59138" lon="-3.11147">
        <ele>11</ele>
        <time>2012-03-14T16:28:51Z</time>
      </trkpt>
      <trkpt lat="47.59138" lon="-3.11135">
        <ele>11</ele>
        <time>2012-03-14T16:28:54Z</time>
      </trkpt>
      <trkpt lat="47.59138" lon="-3.11125">
        <ele>7</ele>
        <time>2012-03-14T16:28:57Z</time>
      </trkpt>
      <trkpt lat="47.59134" lon="-3.11117">
        <ele>8</ele>
        <time>2012-03-14T16:29:00Z</time>
      </trkpt>
      <trkpt lat="47.59132" lon="-3.11109">
        <ele>7</ele>
        <time>2012-03-14T16:29:02Z</time>
      </trkpt>
      <trkpt lat="47.59132" lon="-3.11101">
        <ele>8</ele>
        <time>2012-03-14T16:29:04Z</time>
      </trkpt>
      <trkpt lat="47.5913" lon="-3.11101">
        <ele>13</ele>
        <time>2012-03-14T16:29:30Z</time>
      </trkpt>
      <trkpt lat="47.59137" lon="-3.11132">
        <ele>16</ele>
        <time>2012-03-14T16:29:42Z</time>
      </trkpt>
      <trkpt lat="47.59137" lon="-3.11142">
        <ele>16</ele>
        <time>2012-03-14T16:29:45Z</time>
      </trkpt>
      <trkpt lat="47.59137" lon="-3.1115">
        <ele>18</ele>
        <time>2012-03-14T16:29:47Z</time>
      </trkpt>
      <trkpt lat="47.59135" lon="-3.11158">
        <ele>18</ele>
        <time>2012-03-14T16:29:50Z</time>
      </trkpt>
      <trkpt lat="47.59135" lon="-3.11176">
        <ele>14</ele>
        <time>2012-03-14T16:29:56Z</time>
      </trkpt>
      <trkpt lat="47.59134" lon="-3.11185">
        <ele>14</ele>
        <time>2012-03-14T16:29:58Z</time>
      </trkpt>
      <trkpt lat="47.59134" lon="-3.11195">
        <ele>12</ele>
        <time>2012-03-14T16:30:00Z</time>
      </trkpt>
      <trkpt lat="47.59132" lon="-3.11207">
        <ele>14</ele>
        <time>2012-03-14T16:30:02Z</time>
      </trkpt>
      <trkpt lat="47.5913" lon="-3.11221">
        <ele>14</ele>
        <time>2012-03-14T16:30:04Z</time>
      </trkpt>
      <trkpt lat="47.59129" lon="-3.11234">
        <ele>13</ele>
        <time>2012-03-14T16:30:06Z</time>
      </trkpt>
      <trkpt lat="47.59128" lon="-3.11249">
        <ele>15</ele>
        <time>2012-03-14T16:30:08Z</time>
      </trkpt>
      <trkpt lat="47.5912" lon="-3.11281">
        <ele>13</ele>
        <time>2012-03-14T16:30:13Z</time>
      </trkpt>
      <trkpt lat="47.59116" lon="-3.11295">
        <ele>11</ele>
        <time>2012-03-14T16:30:15Z</time>
      </trkpt>
      <trkpt lat="47.5911" lon="-3.11307">
        <ele>15</ele>
        <time>2012-03-14T16:30:17Z</time>
      </trkpt>
      <trkpt lat="47.59105" lon="-3.11322">
        <ele>14</ele>
        <time>2012-03-14T16:30:19Z</time>
      </trkpt>
      <trkpt lat="47.59095" lon="-3.11335">
        <ele>11</ele>
        <time>2012-03-14T16:30:21Z</time>
      </trkpt>
      <trkpt lat="47.59083" lon="-3.11346">
        <ele>12</ele>
        <time>2012-03-14T16:30:23Z</time>
      </trkpt>
      <trkpt lat="47.59057" lon="-3.11376">
        <ele>8</ele>
        <time>2012-03-14T16:30:31Z</time>
      </trkpt>
      <trkpt lat="47.59053" lon="-3.1139">
        <ele>8</ele>
        <time>2012-03-14T16:30:34Z</time>
      </trkpt>
      <trkpt lat="47.59047" lon="-3.11401">
        <ele>6</ele>
        <time>2012-03-14T16:30:37Z</time>
      </trkpt>
      <trkpt lat="47.59041" lon="-3.11408">
        <ele>6</ele>
        <time>2012-03-14T16:30:39Z</time>
      </trkpt>
      <trkpt lat="47.59033" lon="-3.11411">
        <ele>7</ele>
        <time>2012-03-14T16:30:41Z</time>
      </trkpt>
      <trkpt lat="47.59029" lon="-3.11414">
        <ele>7</ele>
        <time>2012-03-14T16:30:42Z</time>
      </trkpt>
      <trkpt lat="47.59024" lon="-3.11416">
        <ele>7</ele>
        <time>2012-03-14T16:30:43Z</time>
      </trkpt>
      <trkpt lat="47.5902" lon="-3.11419">
        <ele>6</ele>
        <time>2012-03-14T16:30:44Z</time>
      </trkpt>
      <trkpt lat="47.59011" lon="-3.11423">
        <ele>5</ele>
        <time>2012-03-14T16:30:46Z</time>
      </trkpt>
      <trkpt lat="47.59004" lon="-3.11427">
        <ele>3</ele>
        <time>2012-03-14T16:30:48Z</time>
      </trkpt>
      <trkpt lat="47.58996" lon="-3.11429">
        <ele>3</ele>
        <time>2012-03-14T16:30:50Z</time>
      </trkpt>
      <trkpt lat="47.58987" lon="-3.11423">
        <ele>2</ele>
        <time>2012-03-14T16:30:53Z</time>
      </trkpt>
      <trkpt lat="47.58981" lon="-3.11417">
        <ele>3.6</ele>
        <time>2012-03-14T16:30:55Z</time>
      </trkpt>
      <trkpt lat="47.58943" lon="-3.11395">
        <ele>4.3</ele>
        <time>2012-03-14T16:31:06Z</time>
      </trkpt>
      <trkpt lat="47.58936" lon="-3.11391">
        <ele>1</ele>
        <time>2012-03-14T16:31:08Z</time>
      </trkpt>
      <trkpt lat="47.58924" lon="-3.11384">
        <ele>1</ele>
        <time>2012-03-14T16:31:11Z</time>
      </trkpt>
      <trkpt lat="47.58902" lon="-3.11377">
        <ele>3</ele>
        <time>2012-03-14T16:31:19Z</time>
      </trkpt>
      <trkpt lat="47.58889" lon="-3.11373">
        <ele>6</ele>
        <time>2012-03-14T16:31:23Z</time>
      </trkpt>
      <trkpt lat="47.58884" lon="-3.11367">
        <ele>4</ele>
        <time>2012-03-14T16:31:25Z</time>
      </trkpt>
      <trkpt lat="47.58881" lon="-3.11358">
        <ele>2</ele>
        <time>2012-03-14T16:31:27Z</time>
      </trkpt>
      <trkpt lat="47.58881" lon="-3.11351">
        <ele>3</ele>
        <time>2012-03-14T16:31:29Z</time>
      </trkpt>
      <trkpt lat="47.58878" lon="-3.11334">
        <ele>1</ele>
        <time>2012-03-14T16:31:33Z</time>
      </trkpt>
      <trkpt lat="47.58874" lon="-3.11327">
        <ele>1</ele>
        <time>2012-03-14T16:31:35Z</time>
      </trkpt>
      <trkpt lat="47.5887" lon="-3.1132">
        <ele>4</ele>
        <time>2012-03-14T16:31:37Z</time>
      </trkpt>
      <trkpt lat="47.58865" lon="-3.11306">
        <ele>3</ele>
        <time>2012-03-14T16:31:41Z</time>
      </trkpt>
      <trkpt lat="47.58862" lon="-3.113">
        <ele>5</ele>
        <time>2012-03-14T16:31:43Z</time>
      </trkpt>
      <trkpt lat="47.58856" lon="-3.11287">
        <ele>4</ele>
        <time>2012-03-14T16:31:46Z</time>
      </trkpt>
      <trkpt lat="47.58851" lon="-3.11276">
        <ele>4</ele>
        <time>2012-03-14T16:31:49Z</time>
      </trkpt>
      <trkpt lat="47.58847" lon="-3.11269">
        <ele>1</ele>
        <time>2012-03-14T16:31:51Z</time>
      </trkpt>
      <trkpt lat="47.58844" lon="-3.11261">
        <ele>2</ele>
        <time>2012-03-14T16:31:53Z</time>
      </trkpt>
      <trkpt lat="47.5884" lon="-3.11254">
        <ele>7</ele>
        <time>2012-03-14T16:31:55Z</time>
      </trkpt>
      <trkpt lat="47.58837" lon="-3.11246">
        <ele>6</ele>
        <time>2012-03-14T16:31:57Z</time>
      </trkpt>
      <trkpt lat="47.58833" lon="-3.11238">
        <ele>7</ele>
        <time>2012-03-14T16:31:59Z</time>
      </trkpt>
      <trkpt lat="47.58827" lon="-3.1121">
        <ele>2</ele>
        <time>2012-03-14T16:32:05Z</time>
      </trkpt>
      <trkpt lat="47.58825" lon="-3.112">
        <ele>4</ele>
        <time>2012-03-14T16:32:07Z</time>
      </trkpt>
      <trkpt lat="47.58826" lon="-3.11189">
        <ele>1</ele>
        <time>2012-03-14T16:32:10Z</time>
      </trkpt>
      <trkpt lat="47.58827" lon="-3.11175">
        <ele>2</ele>
        <time>2012-03-14T16:32:12Z</time>
      </trkpt>
      <trkpt lat="47.58831" lon="-3.11163">
        <ele>6.5</ele>
        <time>2012-03-14T16:32:15Z</time>
      </trkpt>
      <trkpt lat="47.58837" lon="-3.1115">
        <ele>6</ele>
        <time>2012-03-14T16:32:19Z</time>
      </trkpt>
      <trkpt lat="47.58835" lon="-3.11137">
        <ele>5</ele>
        <time>2012-03-14T16:32:24Z</time>
      </trkpt>
      <trkpt lat="47.58818" lon="-3.11114">
        <ele>4.4</ele>
        <time>2012-03-14T16:32:29Z</time>
      </trkpt>
      <trkpt lat="47.58795" lon="-3.11092">
        <ele>5</ele>
        <time>2012-03-14T16:32:40Z</time>
      </trkpt>
      <trkpt lat="47.58791" lon="-3.11087">
        <ele>1</ele>
        <time>2012-03-14T16:32:42Z</time>
      </trkpt>
      <trkpt lat="47.58787" lon="-3.11081">
        <ele>3</ele>
        <time>2012-03-14T16:32:44Z</time>
      </trkpt>
      <trkpt lat="47.58784" lon="-3.11076">
        <ele>5.6</ele>
        <time>2012-03-14T16:32:46Z</time>
      </trkpt>
      <trkpt lat="47.58781" lon="-3.11071">
        <ele>5.7</ele>
        <time>2012-03-14T16:32:48Z</time>
      </trkpt>
      <trkpt lat="47.58778" lon="-3.11064">
        <ele>6.1</ele>
        <time>2012-03-14T16:32:50Z</time>
      </trkpt>
      <trkpt lat="47.58777" lon="-3.11051">
        <ele>2</ele>
        <time>2012-03-14T16:32:55Z</time>
      </trkpt>
      <trkpt lat="47.58778" lon="-3.11037">
        <ele>7.7</ele>
        <time>2012-03-14T16:32:59Z</time>
      </trkpt>
      <trkpt lat="47.58781" lon="-3.10998">
        <ele>8.4</ele>
        <time>2012-03-14T16:33:10Z</time>
      </trkpt>
      <trkpt lat="47.58786" lon="-3.10982">
        <ele>2</ele>
        <time>2012-03-14T16:33:16Z</time>
      </trkpt>
      <trkpt lat="47.58789" lon="-3.10968">
        <ele>9.9</ele>
        <time>2012-03-14T16:33:21Z</time>
      </trkpt>
      <trkpt lat="47.58791" lon="-3.1096">
        <ele>1</ele>
        <time>2012-03-14T16:33:24Z</time>
      </trkpt>
      <trkpt lat="47.58796" lon="-3.10946">
        <ele>1</ele>
        <time>2012-03-14T16:33:29Z</time>
      </trkpt>
      <trkpt lat="47.58801" lon="-3.10934">
        <ele>10.8</ele>
        <time>2012-03-14T16:33:34Z</time>
      </trkpt>
      <trkpt lat="47.58809" lon="-3.10924">
        <ele>3</ele>
        <time>2012-03-14T16:33:38Z</time>
      </trkpt>
      <trkpt lat="47.58814" lon="-3.10913">
        <ele>1</ele>
        <time>2012-03-14T16:33:42Z</time>
      </trkpt>
      <trkpt lat="47.58823" lon="-3.10906">
        <ele>11.2</ele>
        <time>2012-03-14T16:33:49Z</time>
      </trkpt>
      <trkpt lat="47.58841" lon="-3.10891">
        <ele>11.6</ele>
        <time>2012-03-14T16:34:00Z</time>
      </trkpt>
      <trkpt lat="47.58848" lon="-3.10862">
        <ele>12.5</ele>
        <time>2012-03-14T16:34:09Z</time>
      </trkpt>
      <trkpt lat="47.58855" lon="-3.10835">
        <ele>6</ele>
        <time>2012-03-14T16:34:17Z</time>
      </trkpt>
      <trkpt lat="47.58854" lon="-3.10828">
        <ele>6</ele>
        <time>2012-03-14T16:34:20Z</time>
      </trkpt>
      <trkpt lat="47.58852" lon="-3.1082">
        <ele>5</ele>
        <time>2012-03-14T16:34:23Z</time>
      </trkpt>
      <trkpt lat="47.58851" lon="-3.10813">
        <ele>6</ele>
        <time>2012-03-14T16:34:25Z</time>
      </trkpt>
      <trkpt lat="47.58851" lon="-3.10803">
        <ele>6</ele>
        <time>2012-03-14T16:34:35Z</time>
      </trkpt>
      <trkpt lat="47.58858" lon="-3.10795">
        <ele>5</ele>
        <time>2012-03-14T16:34:42Z</time>
      </trkpt>
      <trkpt lat="47.58866" lon="-3.10786">
        <ele>10</ele>
        <time>2012-03-14T16:34:46Z</time>
      </trkpt>
      <trkpt lat="47.58885" lon="-3.10769">
        <ele>6</ele>
        <time>2012-03-14T16:34:56Z</time>
      </trkpt>
      <trkpt lat="47.58894" lon="-3.10762">
        <ele>8</ele>
        <time>2012-03-14T16:35:00Z</time>
      </trkpt>
      <trkpt lat="47.58904" lon="-3.10756">
        <ele>2</ele>
        <time>2012-03-14T16:35:04Z</time>
      </trkpt>
      <trkpt lat="47.5891" lon="-3.10753">
        <ele>2</ele>
        <time>2012-03-14T16:35:06Z</time>
      </trkpt>
      <trkpt lat="47.58917" lon="-3.1075">
        <ele>15</ele>
        <time>2012-03-14T16:35:09Z</time>
      </trkpt>
      <trkpt lat="47.58927" lon="-3.10748">
        <ele>10</ele>
        <time>2012-03-14T16:35:13Z</time>
      </trkpt>
      <trkpt lat="47.58937" lon="-3.10749">
        <ele>10</ele>
        <time>2012-03-14T16:35:17Z</time>
      </trkpt>
      <trkpt lat="47.58946" lon="-3.1075">
        <ele>11</ele>
        <time>2012-03-14T16:35:20Z</time>
      </trkpt>
      <trkpt lat="47.58954" lon="-3.10751">
        <ele>9</ele>
        <time>2012-03-14T16:35:22Z</time>
      </trkpt>
      <trkpt lat="47.58962" lon="-3.1075">
        <ele>16</ele>
        <time>2012-03-14T16:35:24Z</time>
      </trkpt>
      <trkpt lat="47.58974" lon="-3.1075">
        <ele>17</ele>
        <time>2012-03-14T16:35:27Z</time>
      </trkpt>
      <trkpt lat="47.58985" lon="-3.1075">
        <ele>15</ele>
        <time>2012-03-14T16:35:30Z</time>
      </trkpt>
      <trkpt lat="47.59022" lon="-3.1075">
        <ele>12</ele>
        <time>2012-03-14T16:35:39Z</time>
      </trkpt>
      <trkpt lat="47.59032" lon="-3.10748">
        <ele>10</ele>
        <time>2012-03-14T16:35:42Z</time>
      </trkpt>
      <trkpt lat="47.59042" lon="-3.10743">
        <ele>10</ele>
        <time>2012-03-14T16:35:45Z</time>
      </trkpt>
      <trkpt lat="47.59061" lon="-3.10729">
        <ele>13</ele>
        <time>2012-03-14T16:35:51Z</time>
      </trkpt>
      <trkpt lat="47.5907" lon="-3.10721">
        <ele>8</ele>
        <time>2012-03-14T16:35:54Z</time>
      </trkpt>
      <trkpt lat="47.591" lon="-3.10696">
        <ele>5</ele>
        <time>2012-03-14T16:36:03Z</time>
      </trkpt>
      <trkpt lat="47.59111" lon="-3.10686">
        <ele>8</ele>
        <time>2012-03-14T16:36:06Z</time>
      </trkpt>
      <trkpt lat="47.59113" lon="-3.10672">
        <ele>8</ele>
        <time>2012-03-14T16:36:11Z</time>
      </trkpt>
      <trkpt lat="47.59106" lon="-3.10661">
        <ele>8</ele>
        <time>2012-03-14T16:36:14Z</time>
      </trkpt>
      <trkpt lat="47.59082" lon="-3.10629">
        <ele>14</ele>
        <time>2012-03-14T16:36:23Z</time>
      </trkpt>
      <trkpt lat="47.59074" lon="-3.10616">
        <ele>13</ele>
        <time>2012-03-14T16:36:27Z</time>
      </trkpt>
      <trkpt lat="47.5907" lon="-3.1061">
        <ele>13</ele>
        <time>2012-03-14T16:36:29Z</time>
      </trkpt>
      <trkpt lat="47.5906" lon="-3.10593">
        <ele>8</ele>
        <time>2012-03-14T16:36:35Z</time>
      </trkpt>
      <trkpt lat="47.59056" lon="-3.10587">
        <ele>8</ele>
        <time>2012-03-14T16:36:37Z</time>
      </trkpt>
      <trkpt lat="47.59052" lon="-3.1058">
        <ele>8</ele>
        <time>2012-03-14T16:36:39Z</time>
      </trkpt>
      <trkpt lat="47.59049" lon="-3.10574">
        <ele>9</ele>
        <time>2012-03-14T16:36:41Z</time>
      </trkpt>
      <trkpt lat="47.59047" lon="-3.10568">
        <ele>8</ele>
        <time>2012-03-14T16:36:43Z</time>
      </trkpt>
      <trkpt lat="47.5904" lon="-3.10553">
        <ele>12</ele>
        <time>2012-03-14T16:36:47Z</time>
      </trkpt>
      <trkpt lat="47.59037" lon="-3.10545">
        <ele>12</ele>
        <time>2012-03-14T16:36:49Z</time>
      </trkpt>
      <trkpt lat="47.59027" lon="-3.10523">
        <ele>9</ele>
        <time>2012-03-14T16:36:55Z</time>
      </trkpt>
      <trkpt lat="47.59022" lon="-3.10511">
        <ele>12</ele>
        <time>2012-03-14T16:36:58Z</time>
      </trkpt>
      <trkpt lat="47.59016" lon="-3.105">
        <ele>11</ele>
        <time>2012-03-14T16:37:01Z</time>
      </trkpt>
      <trkpt lat="47.59011" lon="-3.10494">
        <ele>9</ele>
        <time>2012-03-14T16:37:03Z</time>
      </trkpt>
      <trkpt lat="47.58989" lon="-3.10471">
        <ele>16</ele>
        <time>2012-03-14T16:37:11Z</time>
      </trkpt>
      <trkpt lat="47.58983" lon="-3.10466">
        <ele>16</ele>
        <time>2012-03-14T16:37:13Z</time>
      </trkpt>
      <trkpt lat="47.58967" lon="-3.10457">
        <ele>9</ele>
        <time>2012-03-14T16:37:26Z</time>
      </trkpt>
      <trkpt lat="47.58962" lon="-3.10462">
        <ele>19</ele>
        <time>2012-03-14T16:38:08Z</time>
      </trkpt>
      <trkpt lat="47.58957" lon="-3.10463">
        <ele>16</ele>
        <time>2012-03-14T16:38:10Z</time>
      </trkpt>
      <trkpt lat="47.58951" lon="-3.10463">
        <ele>17</ele>
        <time>2012-03-14T16:38:12Z</time>
      </trkpt>
      <trkpt lat="47.58944" lon="-3.10462">
        <ele>17</ele>
        <time>2012-03-14T16:38:14Z</time>
      </trkpt>
      <trkpt lat="47.58938" lon="-3.10463">
        <ele>12</ele>
        <time>2012-03-14T16:38:16Z</time>
      </trkpt>
      <trkpt lat="47.58931" lon="-3.10463">
        <ele>12</ele>
        <time>2012-03-14T16:38:18Z</time>
      </trkpt>
      <trkpt lat="47.58925" lon="-3.10463">
        <ele>10</ele>
        <time>2012-03-14T16:38:20Z</time>
      </trkpt>
      <trkpt lat="47.58918" lon="-3.10463">
        <ele>14</ele>
        <time>2012-03-14T16:38:22Z</time>
      </trkpt>
      <trkpt lat="47.58908" lon="-3.10463">
        <ele>8</ele>
        <time>2012-03-14T16:38:25Z</time>
      </trkpt>
      <trkpt lat="47.58884" lon="-3.10473">
        <ele>14</ele>
        <time>2012-03-14T16:38:32Z</time>
      </trkpt>
      <trkpt lat="47.58876" lon="-3.1048">
        <ele>14</ele>
        <time>2012-03-14T16:38:35Z</time>
      </trkpt>
      <trkpt lat="47.58871" lon="-3.10485">
        <ele>13</ele>
        <time>2012-03-14T16:38:37Z</time>
      </trkpt>
      <trkpt lat="47.58866" lon="-3.10489">
        <ele>15</ele>
        <time>2012-03-14T16:38:39Z</time>
      </trkpt>
      <trkpt lat="47.58854" lon="-3.10501">
        <ele>11</ele>
        <time>2012-03-14T16:38:43Z</time>
      </trkpt>
      <trkpt lat="47.58833" lon="-3.10515">
        <ele>18</ele>
        <time>2012-03-14T16:38:49Z</time>
      </trkpt>
      <trkpt lat="47.58826" lon="-3.10515">
        <ele>18</ele>
        <time>2012-03-14T16:38:51Z</time>
      </trkpt>
      <trkpt lat="47.58815" lon="-3.10512">
        <ele>13</ele>
        <time>2012-03-14T16:38:54Z</time>
      </trkpt>
      <trkpt lat="47.58803" lon="-3.10506">
        <ele>17</ele>
        <time>2012-03-14T16:38:57Z</time>
      </trkpt>
      <trkpt lat="47.58786" lon="-3.105">
        <ele>12</ele>
        <time>2012-03-14T16:39:00Z</time>
      </trkpt>
      <trkpt lat="47.58773" lon="-3.10495">
        <ele>13</ele>
        <time>2012-03-14T16:39:02Z</time>
      </trkpt>
      <trkpt lat="47.58767" lon="-3.10493">
        <ele>15</ele>
        <time>2012-03-14T16:39:03Z</time>
      </trkpt>
      <trkpt lat="47.5876" lon="-3.10492">
        <ele>13</ele>
        <time>2012-03-14T16:39:04Z</time>
      </trkpt>
      <trkpt lat="47.5874" lon="-3.10491">
        <ele>15</ele>
        <time>2012-03-14T16:39:07Z</time>
      </trkpt>
      <trkpt lat="47.58734" lon="-3.10491">
        <ele>15</ele>
        <time>2012-03-14T16:39:08Z</time>
      </trkpt>
      <trkpt lat="47.58712" lon="-3.10492">
        <ele>14</ele>
        <time>2012-03-14T16:39:11Z</time>
      </trkpt>
      <trkpt lat="47.58693" lon="-3.10495">
        <ele>8</ele>
        <time>2012-03-14T16:39:14Z</time>
      </trkpt>
      <trkpt lat="47.58686" lon="-3.10496">
        <ele>8</ele>
        <time>2012-03-14T16:39:15Z</time>
      </trkpt>
      <trkpt lat="47.58673" lon="-3.10497">
        <ele>11</ele>
        <time>2012-03-14T16:39:17Z</time>
      </trkpt>
      <trkpt lat="47.5865" lon="-3.10496">
        <ele>7</ele>
        <time>2012-03-14T16:39:21Z</time>
      </trkpt>
      <trkpt lat="47.58639" lon="-3.10495">
        <ele>7</ele>
        <time>2012-03-14T16:39:23Z</time>
      </trkpt>
      <trkpt lat="47.58625" lon="-3.10493">
        <ele>8</ele>
        <time>2012-03-14T16:39:25Z</time>
      </trkpt>
      <trkpt lat="47.58619" lon="-3.10493">
        <ele>8</ele>
        <time>2012-03-14T16:39:26Z</time>
      </trkpt>
      <trkpt lat="47.58612" lon="-3.10492">
        <ele>5</ele>
        <time>2012-03-14T16:39:27Z</time>
      </trkpt>
      <trkpt lat="47.58598" lon="-3.10491">
        <ele>6</ele>
        <time>2012-03-14T16:39:29Z</time>
      </trkpt>
      <trkpt lat="47.58571" lon="-3.10488">
        <ele>3</ele>
        <time>2012-03-14T16:39:33Z</time>
      </trkpt>
      <trkpt lat="47.58546" lon="-3.10484">
        <ele>3</ele>
        <time>2012-03-14T16:39:37Z</time>
      </trkpt>
      <trkpt lat="47.58537" lon="-3.10478">
        <ele>1</ele>
        <time>2012-03-14T16:39:39Z</time>
      </trkpt>
      <trkpt lat="47.58534" lon="-3.10472">
        <ele>1</ele>
        <time>2012-03-14T16:39:40Z</time>
      </trkpt>
      <trkpt lat="47.58531" lon="-3.10466">
        <ele>2.5</ele>
        <time>2012-03-14T16:39:41Z</time>
      </trkpt>
      <trkpt lat="47.58524" lon="-3.10439">
        <ele>5</ele>
        <time>2012-03-14T16:39:45Z</time>
      </trkpt>
      <trkpt lat="47.58522" lon="-3.10425">
        <ele>2</ele>
        <time>2012-03-14T16:39:47Z</time>
      </trkpt>
      <trkpt lat="47.58516" lon="-3.104">
        <ele>1</ele>
        <time>2012-03-14T16:39:51Z</time>
      </trkpt>
      <trkpt lat="47.58509" lon="-3.10383">
        <ele>1</ele>
        <time>2012-03-14T16:39:54Z</time>
      </trkpt>
      <trkpt lat="47.58502" lon="-3.10368">
        <ele>3.6</ele>
        <time>2012-03-14T16:39:57Z</time>
      </trkpt>
      <trkpt lat="47.58482" lon="-3.1034">
        <ele>6</ele>
        <time>2012-03-14T16:40:02Z</time>
      </trkpt>
      <trkpt lat="47.58478" lon="-3.10335">
        <ele>6</ele>
        <time>2012-03-14T16:40:03Z</time>
      </trkpt>
      <trkpt lat="47.58474" lon="-3.10331">
        <ele>6</ele>
        <time>2012-03-14T16:40:04Z</time>
      </trkpt>
      <trkpt lat="47.5847" lon="-3.10327">
        <ele>4</ele>
        <time>2012-03-14T16:40:05Z</time>
      </trkpt>
      <trkpt lat="47.58466" lon="-3.10324">
        <ele>5</ele>
        <time>2012-03-14T16:40:06Z</time>
      </trkpt>
      <trkpt lat="47.58453" lon="-3.10319">
        <ele>4</ele>
        <time>2012-03-14T16:40:09Z</time>
      </trkpt>
      <trkpt lat="47.58437" lon="-3.10316">
        <ele>3.6</ele>
        <time>2012-03-14T16:40:13Z</time>
      </trkpt>
      <trkpt lat="47.58429" lon="-3.10314">
        <ele>1</ele>
        <time>2012-03-14T16:40:15Z</time>
      </trkpt>
      <trkpt lat="47.58421" lon="-3.10313">
        <ele>1</ele>
        <time>2012-03-14T16:40:17Z</time>
      </trkpt>
      <trkpt lat="47.58413" lon="-3.10311">
        <ele>5</ele>
        <time>2012-03-14T16:40:19Z</time>
      </trkpt>
      <trkpt lat="47.58406" lon="-3.10309">
        <ele>5</ele>
        <time>2012-03-14T16:40:21Z</time>
      </trkpt>
      <trkpt lat="47.58393" lon="-3.10306">
        <ele>2</ele>
        <time>2012-03-14T16:40:24Z</time>
      </trkpt>
      <trkpt lat="47.5838" lon="-3.10303">
        <ele>3</ele>
        <time>2012-03-14T16:40:27Z</time>
      </trkpt>
      <trkpt lat="47.58374" lon="-3.103">
        <ele>5</ele>
        <time>2012-03-14T16:40:29Z</time>
      </trkpt>
      <trkpt lat="47.58361" lon="-3.10299">
        <ele>3</ele>
        <time>2012-03-14T16:40:32Z</time>
      </trkpt>
      <trkpt lat="47.58353" lon="-3.10299">
        <ele>4</ele>
        <time>2012-03-14T16:40:34Z</time>
      </trkpt>
      <trkpt lat="47.5834" lon="-3.10298">
        <ele>6</ele>
        <time>2012-03-14T16:40:37Z</time>
      </trkpt>
      <trkpt lat="47.58329" lon="-3.10295">
        <ele>1</ele>
        <time>2012-03-14T16:40:40Z</time>
      </trkpt>
      <trkpt lat="47.58321" lon="-3.10293">
        <ele>1</ele>
        <time>2012-03-14T16:40:42Z</time>
      </trkpt>
      <trkpt lat="47.58313" lon="-3.10289">
        <ele>2.7</ele>
        <time>2012-03-14T16:40:44Z</time>
      </trkpt>
      <trkpt lat="47.58305" lon="-3.10285">
        <ele>3</ele>
        <time>2012-03-14T16:40:46Z</time>
      </trkpt>
      <trkpt lat="47.58293" lon="-3.1028">
        <ele>2.5</ele>
        <time>2012-03-14T16:40:50Z</time>
      </trkpt>
      <trkpt lat="47.58277" lon="-3.10272">
        <ele>5</ele>
        <time>2012-03-14T16:40:54Z</time>
      </trkpt>
      <trkpt lat="47.5827" lon="-3.10269">
        <ele>4</ele>
        <time>2012-03-14T16:40:56Z</time>
      </trkpt>
      <trkpt lat="47.58264" lon="-3.10266">
        <ele>2</ele>
        <time>2012-03-14T16:40:58Z</time>
      </trkpt>
      <trkpt lat="47.58248" lon="-3.10257">
        <ele>5</ele>
        <time>2012-03-14T16:41:03Z</time>
      </trkpt>
      <trkpt lat="47.58241" lon="-3.10253">
        <ele>4</ele>
        <time>2012-03-14T16:41:05Z</time>
      </trkpt>
      <trkpt lat="47.58233" lon="-3.1025">
        <ele>2</ele>
        <time>2012-03-14T16:41:07Z</time>
      </trkpt>
      <trkpt lat="47.58224" lon="-3.10247">
        <ele>1</ele>
        <time>2012-03-14T16:41:10Z</time>
      </trkpt>
      <trkpt lat="47.58217" lon="-3.10247">
        <ele>1</ele>
        <time>2012-03-14T16:41:12Z</time>
      </trkpt>
      <trkpt lat="47.58211" lon="-3.10249">
        <ele>4</ele>
        <time>2012-03-14T16:41:14Z</time>
      </trkpt>
      <trkpt lat="47.58125" lon="-3.10351">
        <ele>3.5</ele>
        <time>2012-03-14T16:41:43Z</time>
      </trkpt>
      <trkpt lat="47.58118" lon="-3.10347">
        <ele>3.8</ele>
        <time>2012-03-14T16:41:45Z</time>
      </trkpt>
      <trkpt lat="47.58112" lon="-3.10334">
        <ele>4</ele>
        <time>2012-03-14T16:41:49Z</time>
      </trkpt>
      <trkpt lat="47.58105" lon="-3.103">
        <ele>4.2</ele>
        <time>2012-03-14T16:41:57Z</time>
      </trkpt>
      <trkpt lat="47.58096" lon="-3.10294">
        <ele>4.2</ele>
        <time>2012-03-14T16:41:59Z</time>
      </trkpt>
      <trkpt lat="47.58084" lon="-3.10289">
        <ele>6</ele>
        <time>2012-03-14T16:42:02Z</time>
      </trkpt>
      <trkpt lat="47.58075" lon="-3.10286">
        <ele>7</ele>
        <time>2012-03-14T16:42:04Z</time>
      </trkpt>
      <trkpt lat="47.58069" lon="-3.1028">
        <ele>9</ele>
        <time>2012-03-14T16:42:06Z</time>
      </trkpt>
      <trkpt lat="47.58064" lon="-3.10268">
        <ele>4</ele>
        <time>2012-03-14T16:42:09Z</time>
      </trkpt>
      <trkpt lat="47.58058" lon="-3.10252">
        <ele>4</ele>
        <time>2012-03-14T16:42:13Z</time>
      </trkpt>
      <trkpt lat="47.58052" lon="-3.10239">
        <ele>5</ele>
        <time>2012-03-14T16:42:16Z</time>
      </trkpt>
      <trkpt lat="47.58045" lon="-3.10225">
        <ele>3</ele>
        <time>2012-03-14T16:42:19Z</time>
      </trkpt>
      <trkpt lat="47.58039" lon="-3.10213">
        <ele>2</ele>
        <time>2012-03-14T16:42:22Z</time>
      </trkpt>
      <trkpt lat="47.58025" lon="-3.10188">
        <ele>8</ele>
        <time>2012-03-14T16:42:28Z</time>
      </trkpt>
      <trkpt lat="47.58022" lon="-3.10174">
        <ele>7</ele>
        <time>2012-03-14T16:42:31Z</time>
      </trkpt>
      <trkpt lat="47.58022" lon="-3.10128">
        <ele>4.3</ele>
        <time>2012-03-14T16:42:40Z</time>
      </trkpt>
      <trkpt lat="47.58029" lon="-3.10095">
        <ele>5</ele>
        <time>2012-03-14T16:42:49Z</time>
      </trkpt>
      <trkpt lat="47.5803" lon="-3.10087">
        <ele>1</ele>
        <time>2012-03-14T16:42:51Z</time>
      </trkpt>
      <trkpt lat="47.58032" lon="-3.10073">
        <ele>4.8</ele>
        <time>2012-03-14T16:42:54Z</time>
      </trkpt>
      <trkpt lat="47.58091" lon="-3.09924">
        <ele>4.5</ele>
        <time>2012-03-14T16:43:28Z</time>
      </trkpt>
      <trkpt lat="47.58097" lon="-3.09912">
        <ele>4.5</ele>
        <time>2012-03-14T16:43:31Z</time>
      </trkpt>
      <trkpt lat="47.58103" lon="-3.09898">
        <ele>1</ele>
        <time>2012-03-14T16:43:34Z</time>
      </trkpt>
      <trkpt lat="47.58109" lon="-3.09884">
        <ele>4.9</ele>
        <time>2012-03-14T16:43:37Z</time>
      </trkpt>
      <trkpt lat="47.58127" lon="-3.09838">
        <ele>5.6</ele>
        <time>2012-03-14T16:43:47Z</time>
      </trkpt>
      <trkpt lat="47.58132" lon="-3.09825">
        <ele>4</ele>
        <time>2012-03-14T16:43:50Z</time>
      </trkpt>
      <trkpt lat="47.58137" lon="-3.09811">
        <ele>5.9</ele>
        <time>2012-03-14T16:43:53Z</time>
      </trkpt>
      <trkpt lat="47.5816" lon="-3.09759">
        <ele>6.8</ele>
        <time>2012-03-14T16:44:07Z</time>
      </trkpt>
      <trkpt lat="47.58166" lon="-3.09746">
        <ele>1</ele>
        <time>2012-03-14T16:44:10Z</time>
      </trkpt>
      <trkpt lat="47.58171" lon="-3.09734">
        <ele>6.5</ele>
        <time>2012-03-14T16:44:13Z</time>
      </trkpt>
      <trkpt lat="47.5818" lon="-3.09708">
        <ele>6.7</ele>
        <time>2012-03-14T16:44:19Z</time>
      </trkpt>
      <trkpt lat="47.58185" lon="-3.09693">
        <ele>6</ele>
        <time>2012-03-14T16:44:23Z</time>
      </trkpt>
      <trkpt lat="47.5819" lon="-3.09678">
        <ele>6</ele>
        <time>2012-03-14T16:44:26Z</time>
      </trkpt>
      <trkpt lat="47.58202" lon="-3.09643">
        <ele>6.2</ele>
        <time>2012-03-14T16:44:32Z</time>
      </trkpt>
      <trkpt lat="47.5828" lon="-3.09464">
        <ele>6.1</ele>
        <time>2012-03-14T16:45:04Z</time>
      </trkpt>
      <trkpt lat="47.58291" lon="-3.09435">
        <ele>7.1</ele>
        <time>2012-03-14T16:45:10Z</time>
      </trkpt>
      <trkpt lat="47.58304" lon="-3.09413">
        <ele>3</ele>
        <time>2012-03-14T16:45:16Z</time>
      </trkpt>
      <trkpt lat="47.58309" lon="-3.09401">
        <ele>2</ele>
        <time>2012-03-14T16:45:20Z</time>
      </trkpt>
      <trkpt lat="47.58317" lon="-3.0939">
        <ele>2</ele>
        <time>2012-03-14T16:45:25Z</time>
      </trkpt>
      <trkpt lat="47.58334" lon="-3.09375">
        <ele>4</ele>
        <time>2012-03-14T16:45:33Z</time>
      </trkpt>
      <trkpt lat="47.58341" lon="-3.09364">
        <ele>8</ele>
        <time>2012-03-14T16:45:37Z</time>
      </trkpt>
      <trkpt lat="47.58345" lon="-3.09352">
        <ele>1</ele>
        <time>2012-03-14T16:45:42Z</time>
      </trkpt>
      <trkpt lat="47.58351" lon="-3.09343">
        <ele>2</ele>
        <time>2012-03-14T16:45:46Z</time>
      </trkpt>
      <trkpt lat="47.58358" lon="-3.09333">
        <ele>2</ele>
        <time>2012-03-14T16:45:50Z</time>
      </trkpt>
      <trkpt lat="47.58366" lon="-3.09324">
        <ele>15.4</ele>
        <time>2012-03-14T16:45:55Z</time>
      </trkpt>
      <trkpt lat="47.58374" lon="-3.09314">
        <ele>4</ele>
        <time>2012-03-14T16:46:00Z</time>
      </trkpt>
      <trkpt lat="47.58379" lon="-3.09302">
        <ele>2</ele>
        <time>2012-03-14T16:46:05Z</time>
      </trkpt>
      <trkpt lat="47.58384" lon="-3.09291">
        <ele>4</ele>
        <time>2012-03-14T16:46:09Z</time>
      </trkpt>
      <trkpt lat="47.58389" lon="-3.09279">
        <ele>5</ele>
        <time>2012-03-14T16:46:13Z</time>
      </trkpt>
      <trkpt lat="47.58396" lon="-3.09263">
        <ele>9</ele>
        <time>2012-03-14T16:46:18Z</time>
      </trkpt>
      <trkpt lat="47.584" lon="-3.09257">
        <ele>9</ele>
        <time>2012-03-14T16:46:20Z</time>
      </trkpt>
      <trkpt lat="47.58402" lon="-3.0925">
        <ele>10</ele>
        <time>2012-03-14T16:46:22Z</time>
      </trkpt>
      <trkpt lat="47.58404" lon="-3.09241">
        <ele>10</ele>
        <time>2012-03-14T16:46:25Z</time>
      </trkpt>
      <trkpt lat="47.58408" lon="-3.09226">
        <ele>12</ele>
        <time>2012-03-14T16:46:29Z</time>
      </trkpt>
      <trkpt lat="47.5841" lon="-3.09218">
        <ele>12</ele>
        <time>2012-03-14T16:46:32Z</time>
      </trkpt>
      <trkpt lat="47.58412" lon="-3.0919">
        <ele>3</ele>
        <time>2012-03-14T16:46:40Z</time>
      </trkpt>
      <trkpt lat="47.58412" lon="-3.09176">
        <ele>6</ele>
        <time>2012-03-14T16:46:43Z</time>
      </trkpt>
      <trkpt lat="47.58412" lon="-3.09162">
        <ele>3</ele>
        <time>2012-03-14T16:46:47Z</time>
      </trkpt>
      <trkpt lat="47.58412" lon="-3.09148">
        <ele>15</ele>
        <time>2012-03-14T16:46:54Z</time>
      </trkpt>
      <trkpt lat="47.58409" lon="-3.09135">
        <ele>14</ele>
        <time>2012-03-14T16:46:57Z</time>
      </trkpt>
      <trkpt lat="47.58407" lon="-3.09121">
        <ele>11</ele>
        <time>2012-03-14T16:47:00Z</time>
      </trkpt>
      <trkpt lat="47.58399" lon="-3.09061">
        <ele>19</ele>
        <time>2012-03-14T16:47:09Z</time>
      </trkpt>
      <trkpt lat="47.58397" lon="-3.09046">
        <ele>16</ele>
        <time>2012-03-14T16:47:11Z</time>
      </trkpt>
      <trkpt lat="47.58395" lon="-3.09032">
        <ele>17</ele>
        <time>2012-03-14T16:47:13Z</time>
      </trkpt>
      <trkpt lat="47.58392" lon="-3.09016">
        <ele>7</ele>
        <time>2012-03-14T16:47:15Z</time>
      </trkpt>
      <trkpt lat="47.58387" lon="-3.08999">
        <ele>7</ele>
        <time>2012-03-14T16:47:17Z</time>
      </trkpt>
      <trkpt lat="47.58382" lon="-3.08981">
        <ele>10</ele>
        <time>2012-03-14T16:47:19Z</time>
      </trkpt>
      <trkpt lat="47.58369" lon="-3.08943">
        <ele>10</ele>
        <time>2012-03-14T16:47:23Z</time>
      </trkpt>
      <trkpt lat="47.58362" lon="-3.08924">
        <ele>7</ele>
        <time>2012-03-14T16:47:25Z</time>
      </trkpt>
      <trkpt lat="47.58355" lon="-3.08903">
        <ele>7</ele>
        <time>2012-03-14T16:47:27Z</time>
      </trkpt>
      <trkpt lat="47.58351" lon="-3.08884">
        <ele>11</ele>
        <time>2012-03-14T16:47:29Z</time>
      </trkpt>
      <trkpt lat="47.58347" lon="-3.0885">
        <ele>4</ele>
        <time>2012-03-14T16:47:33Z</time>
      </trkpt>
      <trkpt lat="47.58345" lon="-3.08834">
        <ele>9</ele>
        <time>2012-03-14T16:47:36Z</time>
      </trkpt>
      <trkpt lat="47.58344" lon="-3.08817">
        <ele>8</ele>
        <time>2012-03-14T16:47:40Z</time>
      </trkpt>
      <trkpt lat="47.58342" lon="-3.08803">
        <ele>14</ele>
        <time>2012-03-14T16:47:44Z</time>
      </trkpt>
      <trkpt lat="47.58341" lon="-3.08788">
        <ele>10</ele>
        <time>2012-03-14T16:47:49Z</time>
      </trkpt>
      <trkpt lat="47.5834" lon="-3.08773">
        <ele>10</ele>
        <time>2012-03-14T16:47:54Z</time>
      </trkpt>
      <trkpt lat="47.58341" lon="-3.08764">
        <ele>12</ele>
        <time>2012-03-14T16:47:57Z</time>
      </trkpt>
      <trkpt lat="47.58344" lon="-3.08758">
        <ele>12</ele>
        <time>2012-03-14T16:47:59Z</time>
      </trkpt>
      <trkpt lat="47.58349" lon="-3.08754">
        <ele>13</ele>
        <time>2012-03-14T16:48:02Z</time>
      </trkpt>
      <trkpt lat="47.58354" lon="-3.08753">
        <ele>14</ele>
        <time>2012-03-14T16:48:04Z</time>
      </trkpt>
      <trkpt lat="47.5836" lon="-3.08754">
        <ele>11</ele>
        <time>2012-03-14T16:48:06Z</time>
      </trkpt>
      <trkpt lat="47.58373" lon="-3.08756">
        <ele>14</ele>
        <time>2012-03-14T16:48:10Z</time>
      </trkpt>
      <trkpt lat="47.5838" lon="-3.08758">
        <ele>15</ele>
        <time>2012-03-14T16:48:12Z</time>
      </trkpt>
      <trkpt lat="47.58386" lon="-3.0876">
        <ele>16</ele>
        <time>2012-03-14T16:48:14Z</time>
      </trkpt>
      <trkpt lat="47.58392" lon="-3.0876">
        <ele>16</ele>
        <time>2012-03-14T16:48:16Z</time>
      </trkpt>
      <trkpt lat="47.58397" lon="-3.0876">
        <ele>17</ele>
        <time>2012-03-14T16:48:18Z</time>
      </trkpt>
      <trkpt lat="47.58407" lon="-3.08761">
        <ele>10</ele>
        <time>2012-03-14T16:48:21Z</time>
      </trkpt>
      <trkpt lat="47.58417" lon="-3.08762">
        <ele>10</ele>
        <time>2012-03-14T16:48:24Z</time>
      </trkpt>
      <trkpt lat="47.58437" lon="-3.08762">
        <ele>15</ele>
        <time>2012-03-14T16:48:30Z</time>
      </trkpt>
      <trkpt lat="47.58448" lon="-3.08764">
        <ele>15</ele>
        <time>2012-03-14T16:48:33Z</time>
      </trkpt>
      <trkpt lat="47.58458" lon="-3.08766">
        <ele>14</ele>
        <time>2012-03-14T16:48:36Z</time>
      </trkpt>
      <trkpt lat="47.5848" lon="-3.08769">
        <ele>16</ele>
        <time>2012-03-14T16:48:42Z</time>
      </trkpt>
      <trkpt lat="47.58492" lon="-3.0877">
        <ele>13</ele>
        <time>2012-03-14T16:48:45Z</time>
      </trkpt>
      <trkpt lat="47.58501" lon="-3.0877">
        <ele>13</ele>
        <time>2012-03-14T16:48:47Z</time>
      </trkpt>
      <trkpt lat="47.58508" lon="-3.08769">
        <ele>13</ele>
        <time>2012-03-14T16:48:49Z</time>
      </trkpt>
      <trkpt lat="47.58519" lon="-3.0877">
        <ele>14</ele>
        <time>2012-03-14T16:48:53Z</time>
      </trkpt>
      <trkpt lat="47.58525" lon="-3.0877">
        <ele>11</ele>
        <time>2012-03-14T16:48:55Z</time>
      </trkpt>
      <trkpt lat="47.58532" lon="-3.0877">
        <ele>11</ele>
        <time>2012-03-14T16:48:57Z</time>
      </trkpt>
      <trkpt lat="47.58545" lon="-3.08771">
        <ele>16</ele>
        <time>2012-03-14T16:49:01Z</time>
      </trkpt>
      <trkpt lat="47.58551" lon="-3.08771">
        <ele>11</ele>
        <time>2012-03-14T16:49:03Z</time>
      </trkpt>
      <trkpt lat="47.58565" lon="-3.08771">
        <ele>7</ele>
        <time>2012-03-14T16:49:07Z</time>
      </trkpt>
      <trkpt lat="47.58599" lon="-3.08773">
        <ele>14</ele>
        <time>2012-03-14T16:49:16Z</time>
      </trkpt>
      <trkpt lat="47.58611" lon="-3.08774">
        <ele>15</ele>
        <time>2012-03-14T16:49:20Z</time>
      </trkpt>
      <trkpt lat="47.58622" lon="-3.08776">
        <ele>13</ele>
        <time>2012-03-14T16:49:23Z</time>
      </trkpt>
      <trkpt lat="47.5863" lon="-3.08785">
        <ele>12</ele>
        <time>2012-03-14T16:49:26Z</time>
      </trkpt>
      <trkpt lat="47.58631" lon="-3.08795">
        <ele>12</ele>
        <time>2012-03-14T16:49:28Z</time>
      </trkpt>
      <trkpt lat="47.58628" lon="-3.0883">
        <ele>10</ele>
        <time>2012-03-14T16:49:34Z</time>
      </trkpt>
      <trkpt lat="47.58629" lon="-3.0884">
        <ele>12</ele>
        <time>2012-03-14T16:49:36Z</time>
      </trkpt>
      <trkpt lat="47.58633" lon="-3.08849">
        <ele>10</ele>
        <time>2012-03-14T16:49:38Z</time>
      </trkpt>
      <trkpt lat="47.5864" lon="-3.08853">
        <ele>8</ele>
        <time>2012-03-14T16:49:40Z</time>
      </trkpt>
      <trkpt lat="47.58652" lon="-3.08858">
        <ele>7</ele>
        <time>2012-03-14T16:49:44Z</time>
      </trkpt>
      <trkpt lat="47.58658" lon="-3.08861">
        <ele>8</ele>
        <time>2012-03-14T16:49:46Z</time>
      </trkpt>
      <trkpt lat="47.58665" lon="-3.08864">
        <ele>7</ele>
        <time>2012-03-14T16:49:48Z</time>
      </trkpt>
      <trkpt lat="47.58671" lon="-3.08876">
        <ele>8</ele>
        <time>2012-03-14T16:49:51Z</time>
      </trkpt>
      <trkpt lat="47.58674" lon="-3.08884">
        <ele>8</ele>
        <time>2012-03-14T16:49:53Z</time>
      </trkpt>
      <trkpt lat="47.58672" lon="-3.08901">
        <ele>8</ele>
        <time>2012-03-14T16:49:57Z</time>
      </trkpt>
      <trkpt lat="47.58676" lon="-3.08912">
        <ele>12</ele>
        <time>2012-03-14T16:50:00Z</time>
      </trkpt>
      <trkpt lat="47.58686" lon="-3.08919">
        <ele>13</ele>
        <time>2012-03-14T16:50:03Z</time>
      </trkpt>
      <trkpt lat="47.58718" lon="-3.08938">
        <ele>13</ele>
        <time>2012-03-14T16:50:12Z</time>
      </trkpt>
      <trkpt lat="47.58728" lon="-3.08935">
        <ele>13</ele>
        <time>2012-03-14T16:50:16Z</time>
      </trkpt>
      <trkpt lat="47.58742" lon="-3.08935">
        <ele>19</ele>
        <time>2012-03-14T16:50:22Z</time>
      </trkpt>
      <trkpt lat="47.58747" lon="-3.08935">
        <ele>16</ele>
        <time>2012-03-14T16:50:25Z</time>
      </trkpt>
      <trkpt lat="47.58748" lon="-3.08943">
        <ele>8</ele>
        <time>2012-03-14T16:51:07Z</time>
      </trkpt>
      <trkpt lat="47.58745" lon="-3.0895">
        <ele>12</ele>
        <time>2012-03-14T16:53:06Z</time>
      </trkpt>
    </trkseg>
  </trk>
</gpx>